[[{"header":{"parameterUnit":"m.s-1","parameterCategory":1,"la1":31.0,"la2":29.5877,"lo1":-88.7671,"lo2":-86.6584,"dy":0.0162,"dx":0.0185,"nx":115,"ny":88,"refTime":"2024-07-04T06:00:00:Z","depth":0,"parameterNumber":2,"parameterNumberName":"U-component_of_WINDS"},"data":[0.0,0.0,0.0,0.0,0.0,0.0,0.0,0.0,0.0,0.0,0.0,0.0,0.0,0.0,0.0,0.0,0.0,0.0,0.0,0.0,0.0,0.0,0.0,0.0,0.0,0.0,0.0,0.0,0.0,0.0,0.0,0.0,0.0,0.0,0.0,0.0,0.0,0.0,0.0,0.0,0.0,0.0,0.0,0.0,0.0,0.0,0.0,0.0,0.0,0.0,0.0,0.0,0.0,0.0,0.0,0.0,0.0,0.0,0.0,0.0,0.0,0.0,0.0,0.0,0.0,0.0,0.0,0.0,0.0,0.0,0.0,0.0,0.0,0.0,0.0,0.0,0.0,0.0,0.0,0.0,0.0,0.0,0.0,0.0,0.0,0.0,0.0,0.0,0.0,0.0,0.0,0.0,0.0,0.0,0.0,0.0,0.0,0.0,0.0,0.0,0.0,0.0,0.0,0.0,0.0,0.0,0.0,0.0,0.0,0.0,0.0,0.0,0.0,0.0,0.0,0.0,0.0,0.0,0.0,0.0,0.0,0.0,0.0,0.0,0.0,0.0,0.0,0.0,0.0,0.0,0.0,0.0,0.0,0.0,0.0,0.0,0.0,0.0,0.0,0.0,0.0,0.0,0.0,0.0,0.0,0.0,0.0,0.0,0.0,0.0,0.0,0.0,0.0,0.0,0.0,0.0,0.0,0.0,0.0,0.0,0.0,0.0,0.0,0.0,0.0,0.0,0.0,0.0,0.0,0.0,0.0,0.0,0.0,0.0,0.0,0.0,0.0,0.0,0.0,0.0,0.0,0.0,0.0,0.0,0.0,0.0,0.0,0.0,0.0,0.0,0.0,0.0,0.0,0.0,0.0,0.0,0.0,0.0,0.0,0.0,0.0,0.0,0.0,0.0,0.0,0.0,0.0,0.0,0.0,0.0,0.0,0.0,0.0,0.0,0.0,0.0,0.0,0.0,0.0,0.0,0.0,0.0,0.0,0.0,0.0,0.0,0.0,0.0,0.0,0.0,0.0,0.0,0.0,0.0,0.0,0.0,0.0,0.0,0.0,0.0,0.0,0.0,0.0,0.0,0.0,0.0,0.0,0.0,0.0,0.0,0.0,0.0,0.0,0.0,0.0,0.0,0.0,0.0,0.0,0.0,0.0,0.0,0.0,0.0,0.0,0.0,0.0,0.0,0.0,0.0,0.0,0.0,0.0,0.0,0.0,0.0,0.0,0.0,0.0,0.0,0.0,0.0,0.0,0.0,0.0,0.0,0.0,0.0,0.0,0.0,0.0,0.0,0.0,0.0,0.0,0.0,0.0,0.0,0.0,0.0,0.0,0.0,0.0,0.0,0.0,0.0,0.0,0.0,0.0,0.0,0.0,0.0,0.0,0.0,0.0,0.0,0.0,0.0,0.0,0.0,0.0,0.0,0.0,0.0,0.0,0.0,0.0,0.0,0.0,0.0,0.0,0.0,0.0,0.0,0.0,0.0,0.0,0.0,0.0,0.0,0.0,0.0,0.0,0.0,0.0,0.0,0.0,0.0,0.0,0.0,0.0,0.0,0.0,0.0,0.0,0.0,0.0,0.0,0.0,0.0,0.0,0.0,0.0,0.0,0.0,0.0,0.0,0.0,0.0,0.0,0.0,0.0,0.0,0.0,0.0,0.0,0.0,0.0,0.0,0.0,0.0,0.0,0.0,0.0,0.0,0.0,0.0,0.0,0.0,0.0,0.0,0.0,0.0,0.0,0.0,0.0,0.0,0.0,0.0,0.0,0.0,0.0,0.0,0.0,0.0,0.0,0.0,0.0,0.0,0.0,0.0,0.0,0.0,0.0,0.0,0.0,0.0,0.0,0.0,0.0,0.0,0.0,0.0,0.0,0.0,0.0,0.0,0.0,0.0,0.0,0.0,0.0,0.0,0.0,0.0,0.0,0.0,0.0,0.0,0.0,0.0,0.0,0.0,0.0,0.0,0.0,0.0,0.0,0.0,0.0,0.0,0.0,0.0,0.0,0.0,0.0,0.0,0.0,0.0,0.0,0.0,0.0,0.0,0.0,0.0,0.0,0.0,0.0,0.0,0.0,0.0,0.0,0.0,0.0,0.0,0.0,0.0,0.0,0.0,0.0,0.0,0.0,0.0,0.0,0.0,0.0,0.0,0.0,0.0,0.0,0.0,0.0,0.0,0.0,0.0,0.0,0.0,0.0,0.0,0.0,0.0,0.0,0.0,0.0,0.0,0.0,0.0,0.0,0.0,0.0,0.0,0.0,0.0,0.0,0.0,0.0,0.0,0.0,0.0,0.0,0.0,0.0,0.0,0.0,0.0,0.0,0.0,0.0,0.0,0.0,0.0,0.0,0.0,0.0,0.0,0.0,0.0,0.0,0.0,0.0,0.0,0.0,0.0,0.0,0.0,0.0,0.0,0.0,0.0,0.0,0.0,0.0,0.0,0.0,0.0,0.0,0.0,0.0,0.0,0.0,0.0,0.0,0.0,0.0,0.0,0.0,0.0,0.0,0.0,0.0,0.0,0.0,0.0,0.0,0.0,0.0,0.0,0.0,0.0,0.0,0.0,0.0,0.0,0.0,0.0,0.0,0.0,0.0,0.0,0.0,0.0,0.0,0.0,0.0,0.0,0.0,0.0,0.0,0.0,0.0,0.0,0.0,0.0,0.0,0.0,0.0,0.0,0.0,0.0,0.0,0.0,0.0,0.0,0.0,0.0,0.0,0.0,0.0,0.0,0.0,0.0,0.0,0.0,0.0,0.0,0.0,0.0,0.0,0.0,0.0,0.0,0.0,0.0,0.0,0.0,0.0,0.0,0.0,0.0,0.0,0.0,0.0,0.0,0.0,0.0,0.0,0.0,0.0,0.0,0.0,0.0,0.0,0.0,0.0,0.0,0.0,0.0,0.0,0.0,0.0,0.0,0.0,0.0,0.0,0.0,0.0,0.0,0.0,0.0,0.0,0.0,0.0,0.0,0.0,0.0,0.0,0.0,0.0,0.0,0.0,0.0,0.0,0.0,0.0,0.0,0.0,0.0,0.0,0.0,0.0,0.0,0.0,0.0,0.0,0.0,0.0,0.0,0.0,0.0,0.0,0.0,0.0,0.0,0.0,0.0,0.0,0.0,0.0,0.0,0.0,0.0,0.0,0.0,0.0,0.0,0.0,0.0,0.0,0.0,0.0,0.0,0.0,0.0,0.0,0.0,0.0,0.0,0.0,0.0,0.0,0.0,0.0,0.0,0.0,0.0,0.0,0.0,0.0,0.0,0.0,0.0,0.0,0.0,0.0,0.0,0.0,0.0,0.0,0.0,0.0,0.0,0.0,0.0,0.0,0.0,0.0,0.0,0.0,0.0,0.0,0.0,0.0,0.0,0.0,0.0,0.0,0.0,0.0,0.0,0.0,0.0,0.0,0.0,0.0,0.0,0.0,0.0,0.0,0.0,0.0,0.0,0.0,0.0,0.0,0.0,0.0,0.0,0.0,0.0,0.0,0.0,0.0,0.0,0.0,0.0,0.0,0.0,0.0,0.0,0.0,0.0,0.0,0.0,0.0,0.0,0.0,0.0,0.0,0.0,0.0,0.0,0.0,0.0,0.0,0.0,0.0,0.0,0.0,0.0,0.0,0.0,0.0,0.0,0.0,0.0,0.0,0.0,0.0,0.0,0.0,0.0,0.0,0.0,0.0,0.0,0.0,0.0,0.0,0.0,0.0,0.0,0.0,0.0,0.0,0.0,0.0,0.0,0.0,0.0,0.0,0.0,0.0,0.0,0.0,0.0,0.0,0.0,0.0,0.0,0.0,0.0,0.0,0.0,0.0,0.0,0.0,0.0,0.0,0.0,0.0,0.0,0.0,0.0,0.0,0.0,0.0,0.0,0.0,0.0,0.0,0.0,0.0,0.0,0.0,0.0,0.0,0.0,0.0,0.0,0.0,0.0,0.0,0.0,0.0,0.0,0.0,0.0,0.0,0.0,0.0,0.0,0.0,0.0,0.0,0.0,0.0,0.0,0.0,0.0,0.0,0.0,0.0,0.0,0.0,0.0,0.0,0.0,0.0,0.0,0.0,0.0,0.0,0.0,0.0,0.0,0.0,0.0,0.0,0.0,0.0,0.0,0.0,0.0,0.0,0.0,0.0,0.0,0.0,0.0,0.0,0.0,0.0,0.0,0.0,0.0,0.0,0.0,0.0,0.0,0.0,0.0,0.0,0.0,0.0,0.0,0.0,0.0,0.0,0.0,0.0,0.0,0.0,0.0,0.0,0.0,0.0,-0.8367,0.0,0.0,0.0,0.0,0.0,0.0,0.0,0.0,0.0,0.0,0.0,0.0,0.0,0.0,0.0,0.0,0.0,0.0,0.0,0.0,0.0,0.0,0.0,0.0,0.0,0.0,0.0,0.0,0.0,0.0,0.0,0.0,0.0,0.0,0.0,0.0,0.0,0.0,0.0,0.0,0.0,0.0,0.0,0.0,0.0,0.0,0.0,0.0,0.0,0.0,0.0,0.0,0.0,0.0,0.0,0.0,0.0,0.0,0.0,0.0,0.0,0.0,0.0,0.0,0.0,0.0,0.0,0.0,0.0,0.0,0.0,0.0,0.0,0.0,0.0,0.0,0.0,0.0,0.0,0.0,0.0,0.0,0.0,0.0,0.0,0.0,0.0,0.0,0.0,0.0,0.0,0.0,0.0,0.0,0.0,0.0,0.0,0.0,0.0,0.0,0.0,0.0,0.0,0.0,0.0,0.0,0.0,0.0,0.0,0.0,-0.8395,-0.802,-0.8339,-0.8385,-0.814,0.0,0.0,0.0,0.0,0.0,0.0,0.0,0.0,0.0,0.0,0.0,0.0,0.0,0.0,0.0,0.0,0.0,0.0,0.0,0.0,0.0,0.0,0.0,0.0,0.0,0.0,0.0,0.0,0.0,0.0,0.0,0.0,0.0,0.0,0.0,0.0,0.0,0.0,0.0,0.0,0.0,0.0,0.0,0.0,0.0,0.0,0.0,0.0,0.0,0.0,0.0,0.0,0.0,0.0,0.0,0.0,0.0,0.0,0.0,0.0,0.0,0.0,0.0,0.0,0.0,0.0,0.0,0.0,0.0,0.0,0.0,0.0,0.0,0.0,0.0,0.0,0.0,0.0,0.0,0.0,0.0,0.0,0.0,0.0,0.0,0.0,0.0,0.0,0.0,0.0,0.0,0.0,0.0,0.0,0.0,0.0,0.0,0.0,0.0,0.0,0.0,0.0,0.0,0.0,0.0,0.0,0.0,0.0,0.0,0.0,0.0,0.0,-0.8399,-0.8382,-0.8054,0.0,0.0,0.0,0.0,0.0,0.0,0.0,0.0,0.0,0.0,0.0,0.0,0.0,0.0,0.0,0.0,0.0,0.0,0.0,0.0,0.0,0.0,0.0,0.0,0.0,0.0,0.0,0.0,0.0,0.0,0.0,0.0,0.0,0.0,0.0,0.0,0.0,0.0,0.0,0.0,0.0,0.0,0.0,0.0,0.0,0.0,0.0,0.0,0.0,0.0,0.0,0.0,0.0,0.0,0.0,0.0,0.0,0.0,0.0,0.0,0.0,0.0,0.0,0.0,0.0,0.0,0.0,0.0,0.0,0.0,0.0,0.0,0.0,0.0,0.0,0.0,0.0,0.0,0.0,0.0,0.0,0.0,0.0,0.0,0.0,0.0,0.0,0.0,0.0,0.0,0.0,0.0,0.0,0.0,0.0,0.0,0.0,0.0,0.0,0.0,0.0,0.0,0.0,0.0,0.0,0.0,0.0,0.0,0.0,0.0,-0.813,-0.9048,-0.8812,0.0,-0.819,0.0,0.0,0.0,0.0,0.0,0.0,0.0,0.0,0.0,0.0,0.0,0.0,0.0,0.0,0.0,0.0,0.0,0.0,0.0,0.0,0.0,0.0,0.0,0.0,0.0,0.0,0.0,0.0,0.0,0.0,0.0,0.0,0.0,0.0,0.0,0.0,0.0,0.0,0.0,0.0,0.0,0.0,0.0,0.0,0.0,0.0,0.0,0.0,0.0,0.0,0.0,0.0,0.0,0.0,0.0,0.0,0.0,0.0,0.0,0.0,0.0,0.0,0.0,0.0,0.0,0.0,0.0,0.0,0.0,0.0,0.0,0.0,0.0,0.0,0.0,0.0,0.0,0.0,0.0,0.0,0.0,0.0,0.0,0.0,0.0,0.0,0.0,0.0,0.0,0.0,0.0,0.0,0.0,0.0,0.0,0.0,0.0,0.0,0.0,0.0,0.0,0.0,0.0,0.0,0.0,0.0,0.0,0.0,0.0,0.0,0.0,-0.8769,-0.8612,-0.8278,0.0,0.0,0.0,0.0,0.0,0.0,0.0,0.0,0.0,0.0,0.0,0.0,0.0,0.0,0.0,0.0,0.0,0.0,0.0,0.0,0.0,0.0,0.0,0.0,0.0,0.0,0.0,0.0,0.0,0.0,0.0,0.0,0.0,0.0,0.0,0.0,0.0,0.0,0.0,0.0,0.0,0.0,0.0,0.0,0.0,0.0,0.0,0.0,0.0,0.0,0.0,0.0,0.0,0.0,0.0,0.0,0.0,0.0,0.0,0.0,0.0,0.0,0.0,0.0,0.0,0.0,0.0,0.0,0.0,0.0,0.0,0.0,0.0,0.0,0.0,0.0,0.0,0.0,0.0,0.0,0.0,0.0,0.0,0.0,0.0,0.0,0.0,0.0,0.0,0.0,0.0,0.0,0.0,0.0,0.0,0.0,0.0,0.0,0.0,0.0,0.0,0.0,0.0,0.0,0.0,0.0,0.0,0.0,0.0,0.0,-0.7938,0.0,-0.8762,-0.8495,-0.8056,-0.7506,0.0,0.0,0.0,0.0,0.0,0.0,0.0,0.0,0.0,0.0,0.0,0.0,0.0,0.0,0.0,0.0,0.0,0.0,0.0,0.0,0.0,0.0,0.0,0.0,0.0,0.0,0.0,0.0,0.0,0.0,0.0,0.0,0.0,0.0,0.0,0.0,0.0,0.0,0.0,0.0,0.0,0.0,0.0,0.0,0.0,0.0,0.0,0.0,0.0,0.0,0.0,0.0,0.0,0.0,0.0,0.0,0.0,0.0,0.0,0.0,0.0,0.0,0.0,0.0,0.0,0.0,0.0,0.0,0.0,0.0,0.0,0.0,0.0,0.0,0.0,0.0,0.0,0.0,0.0,0.0,0.0,0.0,0.0,0.0,0.0,0.0,0.0,0.0,0.0,0.0,0.0,0.0,0.0,0.0,0.0,0.0,0.0,0.0,0.0,0.0,0.0,0.0,0.0,0.0,0.0,0.0,0.0,0.0,0.0,-0.8727,-0.8681,-0.9485,-0.8629,-0.7977,0.0,0.0,0.0,0.0,0.0,0.0,0.0,0.0,0.0,0.0,0.0,0.0,0.0,0.0,0.0,0.0,0.0,0.0,0.0,0.0,0.0,0.0,0.0,0.0,0.0,0.0,0.0,0.0,0.0,0.0,0.0,0.0,0.0,0.0,0.0,0.0,0.0,0.0,0.0,0.0,0.0,0.0,0.0,0.0,0.0,0.0,0.0,0.0,0.0,0.0,0.0,0.0,0.0,0.0,0.0,0.0,0.0,0.0,0.0,0.0,0.0,0.0,0.0,0.0,0.0,0.0,0.0,0.0,0.0,0.0,0.0,0.0,0.0,0.0,0.0,0.0,0.0,0.0,0.0,0.0,0.0,0.0,0.0,0.0,0.0,0.0,0.0,0.0,0.0,0.0,0.0,0.0,0.0,0.0,0.0,0.0,0.0,0.0,0.0,0.0,0.0,0.0,0.0,0.0,0.0,0.0,0.0,0.0,0.0,-0.7763,-0.8249,-0.8741,0.0,-0.8715,-0.8287,0.0,0.0,0.0,0.0,0.0,0.0,0.0,0.0,0.0,0.0,0.0,0.0,0.0,0.0,0.0,0.0,0.0,0.0,0.0,0.0,0.0,0.0,0.0,0.0,0.0,0.0,0.0,0.0,0.0,0.0,0.0,0.0,0.0,0.0,0.0,0.0,0.0,0.0,0.0,0.0,0.0,0.0,0.0,0.0,0.0,0.0,0.0,0.0,0.0,0.0,0.0,0.0,0.0,0.0,0.0,0.0,0.0,0.0,0.0,0.0,0.0,0.0,0.0,0.0,0.0,0.0,0.0,0.0,0.0,0.0,0.0,0.0,0.0,0.0,0.0,0.0,0.0,0.0,0.0,0.0,0.0,0.0,0.0,0.0,0.0,0.0,0.0,0.0,0.0,0.0,0.0,0.0,0.0,0.0,0.0,0.0,0.0,0.0,0.0,0.0,0.0,0.0,0.0,0.0,0.0,0.0,0.0,0.0,0.0,-0.7772,0.0,-0.9793,0.0,-0.92,-0.8578,0.0,0.0,0.0,0.0,0.0,0.0,0.0,0.0,0.0,0.0,0.0,0.0,0.0,0.0,0.0,0.0,0.0,0.0,0.0,0.0,0.0,0.0,0.0,0.0,0.0,0.0,0.0,0.0,0.0,0.0,0.0,0.0,0.0,0.0,0.0,0.0,0.0,0.0,0.0,0.0,0.0,0.0,0.0,0.0,0.0,0.0,0.0,0.0,0.0,0.0,0.0,0.0,0.0,0.0,0.0,0.0,0.0,0.0,0.0,0.0,0.0,0.0,0.0,0.0,0.0,0.0,0.0,0.0,0.0,0.0,0.0,0.0,0.0,0.0,0.0,0.0,0.0,0.0,0.0,0.0,0.0,0.0,0.0,0.0,0.0,0.0,0.0,0.0,0.0,0.0,0.0,0.0,0.0,0.0,0.0,0.0,0.0,0.0,0.0,0.0,0.0,0.0,0.0,0.0,0.0,0.0,0.0,0.0,-0.7706,-0.9889,-1.1277,-1.1774,-1.1585,-1.0085,-0.8778,0.0,0.0,0.0,0.0,0.0,0.0,0.0,0.0,0.0,0.0,0.0,0.0,0.0,0.0,0.0,0.0,0.0,0.0,0.0,0.0,0.0,0.0,0.0,0.0,0.0,0.0,0.0,0.0,0.0,0.0,0.0,0.0,0.0,0.0,0.0,0.0,0.0,0.0,0.0,0.0,0.0,0.0,0.0,0.0,0.0,0.0,0.0,0.0,0.0,0.0,0.0,0.0,0.0,0.0,0.0,0.0,0.0,0.0,0.0,0.0,0.0,0.0,0.0,0.0,0.0,0.0,0.0,0.0,0.0,0.0,0.0,0.0,0.0,0.0,0.0,0.0,0.0,0.0,0.0,0.0,0.0,0.0,0.0,0.0,0.0,0.0,0.0,0.0,0.0,0.0,0.0,0.0,0.0,0.0,0.0,0.0,0.0,0.0,0.0,0.0,0.0,0.0,0.0,0.0,0.0,0.0,0.0,0.0,0.0,-0.955,-1.0835,-1.1865,-1.2387,-1.0332,-0.9264,0.0,0.0,0.0,0.0,0.0,0.0,0.0,0.0,0.0,0.0,0.0,0.0,0.0,0.0,0.0,0.0,0.0,0.0,0.0,0.0,0.0,0.0,0.0,0.0,0.0,0.0,0.0,0.0,0.0,0.0,0.0,0.0,0.0,0.0,0.0,0.0,0.0,0.0,0.0,0.0,0.0,0.0,0.0,0.0,0.0,0.0,0.0,0.0,0.0,0.0,0.0,0.0,0.0,0.0,0.0,0.0,0.0,0.0,0.0,0.0,0.0,0.0,0.0,0.0,0.0,0.0,0.0,0.0,0.0,0.0,0.0,0.0,0.0,0.0,0.0,0.0,0.0,0.0,0.0,0.0,0.0,0.0,0.0,0.0,0.0,0.0,0.0,0.0,0.0,0.0,0.0,0.0,0.0,0.0,0.0,0.0,0.0,0.0,0.0,0.0,0.0,0.0,0.0,0.0,0.0,0.0,0.0,0.0,0.0,-1.1108,-1.251,-1.3403,-1.3687,-1.1394,-1.0196,-1.0273,0.0,0.0,0.0,0.0,0.0,0.0,0.0,0.0,0.0,0.0,0.0,0.0,0.0,0.0,0.0,0.0,0.0,0.0,0.0,0.0,0.0,0.0,0.0,0.0,0.0,0.0,0.0,0.0,0.0,0.0,0.0,0.0,0.0,0.0,0.0,0.0,0.0,0.0,0.0,0.0,0.0,0.0,0.0,0.0,0.0,0.0,0.0,0.0,0.0,0.0,0.0,0.0,0.0,0.0,0.0,0.0,0.0,0.0,0.0,0.0,0.0,0.0,0.0,0.0,0.0,0.0,0.0,0.0,0.0,0.0,0.0,0.0,0.0,0.0,0.0,0.0,0.0,0.0,0.0,0.0,0.0,0.0,0.0,0.0,0.0,0.0,0.0,0.0,0.0,0.0,0.0,0.0,0.0,0.0,0.0,0.0,0.0,0.0,0.0,0.0,0.0,0.0,0.0,0.0,0.0,0.0,0.0,0.0,-1.3972,-1.5778,-1.6196,-1.5154,-1.302,-1.1453,0.0,0.0,0.0,0.0,0.0,0.0,0.0,0.0,0.0,0.0,0.0,0.0,0.0,0.0,0.0,0.0,0.0,0.0,0.0,0.0,0.0,0.0,0.0,0.0,0.0,0.0,0.0,0.0,0.0,0.0,0.0,0.0,0.0,0.0,0.0,0.0,0.0,0.0,0.0,0.0,0.0,0.0,0.0,0.0,0.0,0.0,0.0,0.0,0.0,0.0,0.0,0.0,0.0,0.0,0.0,0.0,0.0,0.0,0.0,0.0,0.0,0.0,0.0,0.0,0.0,0.0,0.0,0.0,0.0,0.0,0.0,0.0,0.0,0.0,0.0,0.0,0.0,0.0,0.0,0.0,0.0,0.0,0.0,0.0,0.0,0.0,0.0,0.0,0.0,0.0,0.0,0.0,0.0,0.0,0.0,0.0,0.0,0.0,0.0,0.0,0.0,0.0,0.0,0.0,0.0,0.0,0.0,0.0,0.0,-1.509,-1.7193,-1.7806,-1.6736,-1.3597,-1.1834,0.0,0.0,0.0,0.0,0.0,0.0,0.0,0.0,0.0,0.0,0.0,0.0,0.0,0.0,0.0,0.0,0.0,0.0,0.0,0.0,0.0,0.0,0.0,0.0,0.0,0.0,0.0,0.0,0.0,0.0,0.0,0.0,0.0,0.0,0.0,0.0,0.0,0.0,0.0,0.0,0.0,0.0,0.0,0.0,0.0,0.0,0.0,0.0,0.0,0.0,0.0,0.0,0.0,0.0,0.0,0.0,0.0,0.0,0.0,0.0,0.0,0.0,0.0,0.0,0.0,0.0,0.0,0.0,0.0,0.0,0.0,0.0,0.0,0.0,0.0,0.0,0.0,0.0,0.0,0.0,0.0,0.0,0.0,0.0,0.0,0.0,0.0,0.0,0.0,0.0,0.0,0.0,0.0,0.0,0.0,0.0,0.0,0.0,0.0,0.0,0.0,0.0,0.0,0.0,0.0,0.0,0.0,0.0,-1.4629,-1.6082,-1.8186,-1.8931,-1.8141,-1.5334,-1.3366,0.0,0.0,0.0,0.0,0.0,0.0,0.0,0.0,0.0,0.0,0.0,0.0,0.0,0.0,0.0,0.0,0.0,0.0,0.0,0.0,0.0,0.0,0.0,0.0,0.0,0.0,0.0,0.0,0.0,0.0,0.0,0.0,0.0,0.0,0.0,0.0,0.0,0.0,0.0,0.0,0.0,0.0,0.0,0.0,0.0,0.0,0.0,0.0,0.0,0.0,0.0,0.0,0.0,0.0,0.0,0.0,0.0,0.0,0.0,0.0,0.0,0.0,0.0,0.0,0.0,0.0,0.0,0.0,0.0,0.0,0.0,0.0,0.0,0.0,0.0,0.0,0.0,0.0,0.0,0.0,0.0,0.0,0.0,0.0,0.0,0.0,0.0,0.0,0.0,0.0,0.0,0.0,0.0,0.0,0.0,0.0,0.0,0.0,0.0,0.0,0.0,0.0,0.0,0.0,0.0,0.0,0.0,0.0,-1.5551,-1.7177,-1.9002,-1.9751,-1.9294,-1.7483,-1.5322,0.0,0.0,0.0,0.0,0.0,0.0,0.0,0.0,0.0,0.0,0.0,0.0,0.0,0.0,0.0,0.0,0.0,0.0,0.0,0.0,0.0,0.0,0.0,0.0,0.0,0.0,0.0,0.0,0.0,0.0,0.0,0.0,0.0,0.0,0.0,0.0,0.0,0.0,0.0,0.0,0.0,0.0,0.0,0.0,0.0,0.0,0.0,0.0,0.0,0.0,0.0,0.0,0.0,0.0,0.0,0.0,0.0,0.0,0.0,0.0,0.0,0.0,0.0,0.0,0.0,0.0,0.0,0.0,0.0,0.0,0.0,0.0,0.0,0.0,0.0,0.0,0.0,0.0,0.0,0.0,0.0,0.0,0.0,0.0,0.0,0.0,0.0,0.0,0.0,0.0,0.0,0.0,0.0,0.0,0.0,0.0,0.0,0.0,0.0,0.0,0.0,0.0,0.0,0.0,0.0,0.0,0.0,0.0,-1.5847,-1.8931,-1.9863,-2.0494,-2.0892,-1.8295,-1.5755,0.0,0.0,0.0,0.0,0.0,0.0,0.0,0.0,0.0,0.0,0.0,0.0,0.0,0.0,0.0,0.0,0.0,0.0,0.0,0.0,0.0,0.0,0.0,0.0,0.0,0.0,0.0,0.0,0.0,0.0,0.0,0.0,0.0,0.0,0.0,0.0,0.0,0.0,0.0,0.0,0.0,0.0,0.0,0.0,0.0,0.0,0.0,0.0,-0.3234,0.0,0.0,0.0,0.0,0.0,0.0,0.0,0.0,0.0,0.0,0.0,0.0,0.0,0.0,0.0,0.0,0.0,0.0,0.0,0.0,0.0,0.0,0.0,0.0,0.0,0.0,0.0,0.0,0.0,0.0,0.0,0.0,0.0,0.0,0.0,0.0,0.0,0.0,0.0,0.0,0.0,0.0,0.0,0.0,0.0,0.0,0.0,0.0,0.0,0.0,0.0,0.0,0.0,0.0,0.0,0.0,0.0,0.0,0.0,-1.6667,-1.9393,-2.0074,-2.057,-2.0886,-1.934,-1.6993,0.0,0.0,0.0,0.0,0.0,0.0,0.0,0.0,0.0,0.0,0.0,0.0,0.0,0.0,0.0,0.0,0.0,0.0,0.0,0.0,0.0,0.0,0.0,0.0,0.0,0.0,0.0,0.0,0.0,0.0,0.0,0.0,0.0,0.0,0.0,0.0,0.0,0.0,0.0,0.0,0.0,0.0,0.0,0.0,0.0,0.0,0.0,0.0,0.0,0.0,0.0,0.0,0.0,0.0,0.0,0.0,0.0,0.0,0.0,0.0,0.0,0.0,0.0,0.0,0.0,0.0,0.0,0.0,0.0,0.0,0.0,0.0,0.0,0.0,0.0,0.0,0.0,0.0,0.0,0.0,0.0,0.0,0.0,0.0,0.0,0.0,0.0,0.0,0.0,0.0,0.0,0.0,0.0,0.0,0.0,0.0,0.0,0.0,0.0,0.0,0.0,0.0,0.0,0.0,0.0,0.0,0.0,-1.5295,-1.7399,-1.9601,-2.0118,-2.0435,-2.0599,-2.0259,-1.8255,-1.4419,0.0,0.0,0.0,0.0,0.0,0.0,0.0,0.0,0.0,0.0,0.0,0.0,0.0,0.0,0.0,0.0,0.0,0.0,0.0,0.0,0.0,0.0,0.0,0.0,0.0,0.0,0.0,0.0,0.0,0.0,0.0,0.0,0.0,0.0,0.0,0.0,0.0,0.0,-0.3552,-0.4043,0.0,0.0,0.0,0.0,0.0,0.0,0.0,0.0,-0.4144,0.0,0.0,0.0,0.0,0.0,0.0,0.0,0.0,0.0,0.0,0.0,0.0,0.0,0.0,0.0,0.0,0.0,0.0,0.0,0.0,0.0,0.0,0.0,0.0,0.0,0.0,0.0,0.0,0.0,0.0,0.0,0.0,0.0,0.0,0.0,0.0,0.0,0.0,0.0,0.0,0.0,0.0,0.0,0.0,0.0,0.0,0.0,0.0,0.0,0.0,0.0,0.0,0.0,0.0,0.0,0.0,-1.4501,-1.4996,-1.709,-2.0879,-2.0445,-2.0489,-2.111,-2.0354,-1.8243,-1.4755,0.0,0.0,0.0,0.0,0.0,0.0,0.0,0.0,0.0,0.0,0.0,0.0,0.0,0.0,0.0,0.0,0.0,0.0,0.0,0.0,0.0,0.0,0.0,0.0,0.0,0.0,0.0,0.0,0.0,0.0,0.0,0.0,0.0,0.0,0.0,0.0,0.0,0.0,0.0,-0.4738,-0.4692,0.0,0.0,0.0,0.0,0.0,0.0,0.0,0.0,-0.4483,0.0,0.0,0.0,0.0,0.0,0.0,0.0,0.0,0.0,0.0,0.0,0.0,0.0,0.0,0.0,0.0,0.0,0.0,0.0,0.0,0.0,0.0,0.0,0.0,0.0,0.0,0.0,0.0,0.0,0.0,0.0,0.0,0.0,0.0,0.0,0.0,0.0,0.0,0.0,0.0,0.0,0.0,0.0,0.0,0.0,0.0,0.0,0.0,0.0,0.0,0.0,0.0,0.0,0.0,0.0,-1.4643,-1.6005,-1.7999,-2.0685,-2.0239,-2.0437,-2.1428,-2.0425,-1.8392,0.0,0.0,0.0,0.0,0.0,0.0,0.0,0.0,0.0,0.0,0.0,0.0,0.0,0.0,0.0,0.0,0.0,0.0,0.0,0.0,0.0,0.0,0.0,0.0,0.0,0.0,0.0,0.0,0.0,0.0,0.0,0.0,0.0,0.0,0.0,0.0,0.0,0.0,0.0,0.0,-0.5288,-0.5689,-0.5664,0.0,0.0,0.0,0.0,0.0,0.0,-0.5395,-0.5257,0.0,0.0,0.0,0.0,0.0,0.0,0.0,0.0,0.0,0.0,0.0,0.0,0.0,0.0,0.0,0.0,0.0,0.0,0.0,0.0,0.0,0.0,0.0,0.0,0.0,0.0,0.0,0.0,0.0,0.0,0.0,0.0,0.0,0.0,0.0,0.0,0.0,0.0,0.0,0.0,0.0,0.0,0.0,0.0,0.0,0.0,0.0,0.0,0.0,0.0,0.0,0.0,0.0,0.0,0.0,-1.4787,-1.6858,-1.879,-2.0469,-2.009,-2.0474,-2.1699,-2.0356,-1.8444,0.0,0.0,0.0,0.0,0.0,0.0,0.0,0.0,0.0,0.0,0.0,0.0,0.0,0.0,0.0,0.0,0.0,0.0,0.0,0.0,0.0,0.0,0.0,0.0,0.0,0.0,0.0,0.0,0.0,0.0,0.0,0.0,0.0,0.0,0.0,0.0,0.0,0.0,0.0,0.0,0.0,-0.665,-0.6245,-0.6686,0.0,0.0,0.0,0.0,-0.6585,-0.649,0.0,0.0,0.0,0.0,0.0,0.0,0.0,0.0,0.0,0.0,0.0,0.0,0.0,0.0,0.0,0.0,0.0,0.0,0.0,0.0,0.0,0.0,0.0,0.0,0.0,0.0,0.0,0.0,0.0,0.0,0.0,0.0,0.0,0.0,0.0,0.0,0.0,0.0,0.0,0.0,0.0,0.0,0.0,0.0,0.0,0.0,0.0,0.0,0.0,0.0,0.0,0.0,0.0,0.0,0.0,0.0,-1.5081,-1.6389,-1.8395,-2.1011,-2.0448,-2.0684,-2.189,-1.9979,-1.7962,0.0,0.0,0.0,0.0,0.0,0.0,0.0,0.0,0.0,0.0,0.0,0.0,0.0,0.0,0.0,0.0,0.0,0.0,0.0,0.0,0.0,0.0,0.0,0.0,0.0,0.0,0.0,0.0,0.0,0.0,0.0,0.0,0.0,0.0,0.0,0.0,0.0,0.0,0.0,0.0,0.0,-0.7158,-0.7148,-0.7217,-0.7231,0.0,0.0,-0.7222,-0.7932,-0.8041,0.0,0.0,0.0,0.0,0.0,0.0,0.0,0.0,0.0,0.0,0.0,0.0,0.0,0.0,0.0,0.0,0.0,0.0,0.0,0.0,0.0,0.0,0.0,0.0,0.0,0.0,0.0,0.0,0.0,0.0,0.0,0.0,0.0,0.0,0.0,0.0,0.0,0.0,0.0,0.0,0.0,0.0,0.0,0.0,0.0,0.0,0.0,0.0,0.0,0.0,0.0,0.0,0.0,0.0,0.0,-1.3417,-1.4824,-1.7079,-1.9259,-2.1204,-2.1075,-2.1631,-2.3028,-2.0621,-1.8501,0.0,0.0,0.0,0.0,0.0,0.0,0.0,0.0,0.0,0.0,0.0,0.0,0.0,0.0,0.0,0.0,0.0,0.0,0.0,0.0,0.0,0.0,0.0,0.0,0.0,0.0,0.0,0.0,0.0,0.0,0.0,0.0,0.0,0.0,0.0,0.0,0.0,0.0,0.0,0.0,0.0,0.0,-0.7623,-0.8338,0.0,0.0,0.0,-0.9085,-0.9145,0.0,0.0,0.0,0.0,0.0,0.0,0.0,0.0,0.0,0.0,0.0,0.0,0.0,0.0,0.0,0.0,0.0,0.0,0.0,0.0,0.0,0.0,0.0,0.0,0.0,0.0,0.0,0.0,0.0,0.0,0.0,0.0,0.0,0.0,0.0,0.0,0.0,0.0,0.0,0.0,0.0,0.0,0.0,0.0,0.0,0.0,0.0,0.0,0.0,0.0,0.0,0.0,0.0,0.0,0.0,0.0,0.0,-1.4831,-1.804,-2.0259,-2.1411,-2.1798,-2.2637,-2.3952,-2.1586,0.0,0.0,0.0,0.0,0.0,0.0,0.0,0.0,0.0,0.0,0.0,0.0,0.0,0.0,0.0,0.0,0.0,0.0,0.0,0.0,0.0,0.0,0.0,0.0,0.0,0.0,0.0,-0.6377,0.0,0.0,0.0,0.0,0.0,0.0,0.0,0.0,0.0,0.0,0.0,0.0,0.0,0.0,-0.8071,-0.821,-0.9439,-1.0415,0.0,0.0,-1.0709,-1.0442,-1.0895,-1.0902,0.0,0.0,0.0,0.0,0.0,0.0,0.0,0.0,0.0,0.0,0.0,0.0,0.0,0.0,0.0,0.0,0.0,0.0,0.0,0.0,0.0,0.0,0.0,0.0,0.0,0.0,0.0,0.0,0.0,0.0,0.0,0.0,0.0,0.0,0.0,0.0,0.0,0.0,0.0,0.0,0.0,0.0,0.0,0.0,0.0,0.0,0.0,0.0,0.0,0.0,0.0,0.0,0.0,0.0,0.0,-1.5615,-1.8996,-2.1149,-2.1861,-2.2667,-2.3555,-2.4397,-2.2718,-2.0637,0.0,0.0,0.0,0.0,0.0,0.0,0.0,0.0,0.0,0.0,0.0,0.0,0.0,0.0,0.0,0.0,0.0,0.0,0.0,0.0,0.0,0.0,0.0,0.0,0.0,0.0,0.0,0.0,0.0,0.0,0.0,0.0,0.0,0.0,0.0,0.0,0.0,0.0,0.0,0.0,0.0,-0.8971,-0.9109,-1.0154,-1.1212,0.0,0.0,-1.1515,-1.1961,-1.2277,-1.2209,-1.1455,0.0,0.0,0.0,0.0,0.0,0.0,0.0,0.0,0.0,0.0,0.0,0.0,0.0,0.0,0.0,0.0,0.0,0.0,0.0,0.0,0.0,0.0,0.0,0.0,0.0,0.0,0.0,0.0,0.0,0.0,0.0,0.0,0.0,0.0,0.0,0.0,0.0,0.0,0.0,0.0,0.0,0.0,0.0,0.0,0.0,0.0,0.0,0.0,0.0,0.0,0.0,0.0,0.0,-1.5363,-1.628,-1.9664,-2.1925,-2.3029,-2.3456,-2.4108,-2.4969,-2.3305,-2.1191,0.0,0.0,0.0,0.0,0.0,0.0,0.0,0.0,0.0,0.0,0.0,0.0,0.0,0.0,0.0,0.0,0.0,0.0,0.0,0.0,0.0,0.0,0.0,0.0,0.0,0.0,0.0,0.0,-0.8192,-0.8286,-0.804,0.0,0.0,0.0,0.0,0.0,0.0,0.0,0.0,0.0,0.0,-0.9913,-1.069,-1.223,0.0,0.0,-1.3478,-1.3591,-1.374,-1.3694,-1.3502,-1.3107,-1.2613,0.0,0.0,0.0,0.0,0.0,0.0,0.0,0.0,0.0,0.0,0.0,0.0,0.0,0.0,0.0,0.0,0.0,0.0,0.0,0.0,0.0,0.0,0.0,0.0,0.0,0.0,0.0,0.0,0.0,0.0,0.0,0.0,0.0,0.0,0.0,0.0,0.0,0.0,0.0,0.0,0.0,0.0,0.0,0.0,0.0,0.0,0.0,0.0,0.0,0.0,0.0,0.0,-1.6353,-1.7084,-2.0816,-2.3166,-2.4061,-2.4507,-2.4991,-2.5563,-2.4372,-2.2484,0.0,0.0,0.0,0.0,0.0,0.0,0.0,0.0,0.0,0.0,0.0,0.0,0.0,0.0,0.0,0.0,0.0,0.0,0.0,0.0,0.0,0.0,0.0,0.0,0.0,0.0,0.0,0.0,-0.8704,-0.87,-0.8271,0.0,0.0,0.0,0.0,0.0,0.0,0.0,0.0,0.0,0.0,-1.1195,-1.2167,-1.3748,-1.4741,-1.4455,-1.4833,-1.5107,-1.4955,-1.483,-1.4709,-1.4502,0.0,0.0,0.0,0.0,0.0,0.0,0.0,0.0,0.0,0.0,0.0,0.0,0.0,0.0,0.0,0.0,0.0,0.0,0.0,0.0,0.0,0.0,0.0,0.0,0.0,0.0,0.0,-1.0931,0.0,0.0,-1.0008,0.0,0.0,0.0,0.0,0.0,0.0,0.0,0.0,0.0,0.0,0.0,0.0,0.0,0.0,0.0,0.0,0.0,0.0,0.0,0.0,0.0,0.0,-1.7667,-1.8046,-2.2618,-2.4909,-2.4826,-2.5805,-2.6323,-2.636,-2.599,-2.4813,-2.2707,0.0,0.0,0.0,0.0,0.0,0.0,0.0,0.0,0.0,0.0,0.0,0.0,0.0,0.0,0.0,0.0,0.0,0.0,0.0,0.0,0.0,0.0,0.0,0.0,0.0,0.0,-0.8716,-0.8715,-0.8736,0.0,0.0,0.0,0.0,0.0,0.0,0.0,0.0,0.0,0.0,-1.1361,-1.2894,-1.3365,-1.4437,-1.5231,-1.5189,-1.5499,-1.5706,-1.5503,-1.5605,-1.5737,0.0,0.0,0.0,0.0,0.0,0.0,0.0,0.0,0.0,0.0,0.0,0.0,0.0,0.0,0.0,0.0,0.0,0.0,0.0,0.0,0.0,0.0,0.0,0.0,0.0,0.0,0.0,-1.2134,-1.198,0.0,0.0,0.0,0.0,0.0,0.0,0.0,0.0,0.0,0.0,0.0,-1.5879,-1.6545,0.0,0.0,0.0,0.0,0.0,0.0,0.0,0.0,0.0,0.0,0.0,0.0,-1.8566,-1.998,-2.3516,-2.5673,-2.6185,-2.6525,-2.6552,-2.6227,-2.6346,-2.5239,-2.275,0.0,0.0,0.0,0.0,0.0,0.0,0.0,0.0,0.0,0.0,0.0,0.0,0.0,0.0,0.0,0.0,0.0,0.0,0.0,0.0,0.0,0.0,0.0,0.0,0.0,-1.007,0.0,0.0,0.0,0.0,0.0,0.0,0.0,0.0,0.0,0.0,0.0,-1.1453,-1.2849,-1.415,-1.5156,-1.5615,-1.6351,-1.6655,0.0,0.0,0.0,0.0,0.0,0.0,0.0,0.0,0.0,0.0,0.0,0.0,0.0,0.0,-1.2854,-1.0427,-0.9504,-0.9003,-0.8549,0.0,0.0,0.0,0.0,0.0,0.0,0.0,0.0,0.0,0.0,0.0,0.0,0.0,0.0,-1.4783,0.0,-1.384,0.0,0.0,0.0,0.0,0.0,0.0,0.0,0.0,-1.7814,-1.8739,-1.8986,-1.9543,-1.9707,0.0,-1.9392,-1.7731,0.0,0.0,0.0,0.0,0.0,0.0,0.0,0.0,-1.9794,-2.1185,-2.4623,-2.6687,-2.7176,-2.7238,-2.7048,-2.6504,-2.6515,-2.5509,-2.3329,-2.1104,-1.8955,0.0,0.0,0.0,0.0,0.0,0.0,0.0,0.0,0.0,0.0,0.0,0.0,0.0,0.0,0.0,0.0,0.0,0.0,0.0,0.0,0.0,0.0,0.0,-1.0602,0.0,0.0,0.0,0.0,0.0,0.0,0.0,0.0,0.0,-1.0741,-1.2252,-1.3884,-1.5186,-1.6144,-1.6752,-1.683,0.0,0.0,0.0,0.0,0.0,0.0,0.0,-1.5018,-1.5171,-1.5419,-1.5845,-1.665,-1.7795,-1.8405,-1.7733,0.0,0.0,-1.3041,-1.195,-1.1369,-1.0975,-1.1217,-1.1467,-1.1358,-1.1482,-1.1546,0.0,0.0,0.0,0.0,0.0,0.0,0.0,0.0,-1.9141,-1.8929,0.0,-1.7063,0.0,0.0,0.0,0.0,0.0,-1.6773,0.0,0.0,-2.2346,-2.3329,-2.2605,-2.2594,-2.2685,-2.2765,-2.2103,-2.1306,-2.0347,-1.814,0.0,0.0,0.0,0.0,0.0,0.0,-2.1378,-2.1866,-2.585,-2.7898,-2.7753,-2.791,-2.777,-2.7198,-2.6547,-2.567,-2.4538,-2.3426,-2.1981,-2.0024,-1.7104,0.0,0.0,0.0,0.0,0.0,0.0,0.0,0.0,0.0,0.0,0.0,0.0,0.0,0.0,0.0,0.0,0.0,0.0,0.0,0.0,-1.1026,0.0,0.0,0.0,0.0,0.0,0.0,0.0,0.0,0.0,0.0,-1.1734,-1.3998,-1.5976,-1.6337,0.0,0.0,0.0,0.0,-1.6713,-1.5492,-1.5461,-1.5544,-1.5367,-1.6606,-1.7584,-1.7736,0.0,0.0,-1.8482,-1.8785,-1.8808,-1.7845,-1.8227,-1.8008,-1.5504,-1.3803,-1.2697,-1.2439,-1.245,-1.2254,-1.2245,-1.2648,-1.2679,-2.4667,0.0,0.0,0.0,0.0,-2.0246,-2.0447,-2.089,-2.1009,-2.0926,-2.0665,-1.9662,0.0,0.0,0.0,0.0,0.0,0.0,-2.0527,-2.2362,-2.2913,-2.3818,-2.5043,-2.4994,-2.5154,-2.5438,-2.5027,-2.4684,-2.441,-2.3361,-2.0908,-1.7252,0.0,0.0,0.0,0.0,-2.259,-2.4399,-2.6776,-2.8079,-2.8282,-2.8321,-2.7992,-2.7223,-2.6559,-2.5914,-2.5294,-2.4835,-2.3652,-2.1631,-1.9831,0.0,0.0,0.0,0.0,0.0,0.0,0.0,0.0,0.0,0.0,0.0,0.0,0.0,0.0,0.0,0.0,0.0,0.0,0.0,-1.2323,-1.2477,-1.2793,0.0,0.0,0.0,0.0,0.0,0.0,0.0,0.0,0.0,-1.5796,-1.6179,-1.6537,0.0,0.0,-1.7372,-1.6715,-1.7501,-1.7921,-1.7149,-1.7421,0.0,-1.7636,-1.7588,-1.7541,-1.7565,-1.8493,-1.8992,-1.8298,-1.8961,-1.9417,-1.8752,-1.8749,-1.8565,-1.8046,-1.7236,-1.6499,-1.6192,-1.6182,-1.6288,-1.6298,-1.633,-1.6215,-2.8982,-2.6103,-2.4233,-2.3532,-2.3643,-2.3441,-2.3748,-2.4317,-2.4206,-2.4089,-2.3937,-2.2725,-2.2072,-2.1865,-2.1068,0.0,0.0,0.0,-2.3722,-2.5861,-2.5651,-2.6308,-2.76,-2.7447,-2.7459,-2.7642,-2.7232,-2.6935,-2.6731,-2.5908,-2.3968,-2.0921,0.0,0.0,-2.0864,-2.248,-2.4107,-2.5726,-2.7361,-2.8304,-2.851,-2.8258,-2.7803,-2.7211,-2.6547,-2.6097,-2.5875,-2.5647,-2.4921,-2.3568,-2.1894,-1.987,0.0,0.0,0.0,0.0,0.0,0.0,0.0,0.0,0.0,0.0,0.0,-1.1565,0.0,0.0,0.0,0.0,-1.248,-1.2635,-1.3218,-1.3362,0.0,0.0,0.0,0.0,0.0,0.0,0.0,-1.5556,-1.7025,-1.8118,-1.8171,-1.8027,-1.8166,-1.8692,-1.8971,-1.8811,-1.7963,0.0,-1.8958,-1.8124,-1.8311,-1.8547,-1.8488,-1.8607,-1.881,-1.9139,-1.9611,-1.9758,-1.9157,-1.9465,-1.9689,-1.944,-1.9132,-1.8942,-1.9065,-1.8774,-1.8405,-1.809,-1.7998,-1.8008,-1.8008,-1.8008,-1.794,-3.2563,-3.2214,-2.8239,-2.6685,-2.6806,-2.6334,-2.7081,-2.857,-2.8074,-2.787,-2.775,-2.604,-2.5004,-2.4565,-2.3344,0.0,-2.5408,-2.6067,-2.7387,-2.9352,-2.954,-2.9794,-3.0062,-2.9581,-2.9352,-2.934,-2.8823,-2.833,-2.7798,-2.6682,-2.5899,-2.5499,-2.4588,-2.3827,-2.332,-2.4626,-2.5641,-2.615,-2.7573,-2.8374,-2.8498,-2.7858,-2.7409,-2.7198,-2.6547,-2.6213,-2.6166,-2.6015,-2.5825,-2.5486,-2.3408,-2.159,-2.0186,0.0,0.0,0.0,0.0,0.0,0.0,0.0,0.0,0.0,0.0,0.0,0.0,0.0,0.0,0.0,-1.4641,0.0,-1.4183,-1.4183,0.0,0.0,0.0,-1.5654,-1.7262,-1.7754,-1.8115,-1.8436,0.0,0.0,-1.9392,-1.9673,-2.0431,-2.1849,-2.1686,-2.1021,-1.9988,-2.0025,-1.985,-1.8778,-1.8768,-1.8842,-1.9089,-1.9968,-2.0915,-2.1438,-2.1607,-2.1152,-2.057,-2.0172,-1.9938,-1.9772,-1.9461,-1.9181,-1.9129,-1.9014,-1.8843,-1.864,-1.8265,-1.8042,-1.8042,-1.8008,-1.8018,-3.3104,-3.302,-3.201,-3.0908,-2.981,-2.9282,-2.9323,-2.9689,-2.9581,-2.952,-2.946,-2.8611,-2.8191,-2.8071,-2.7912,-2.8237,-2.8886,-2.9047,-2.94,-2.9893,-2.9947,-3.0007,-3.0074,-2.9965,-2.9893,-2.9869,-2.9364,-2.9051,-2.8895,-2.8219,-2.7419,-2.6512,-2.6217,-2.5477,-2.4209,-2.4198,-2.5007,-2.6624,-2.6652,-2.7281,-2.845,-2.7846,-2.7335,-2.6949,-2.6618,-2.6223,-2.5758,-2.598,-2.5849,-2.5246,-2.439,-2.302,-2.1114,-1.8525,0.0,0.0,0.0,0.0,0.0,0.0,0.0,0.0,0.0,-1.2989,-1.167,0.0,-1.4005,0.0,-1.5849,-1.6894,-1.7272,-1.7347,0.0,0.0,-1.7988,-1.8326,-1.9374,-2.0015,-2.0276,-1.9983,-2.0625,-2.1184,-2.1442,-2.1406,-2.1883,-2.3185,-2.1233,-1.9523,-1.9264,-2.0107,-2.0691,-2.0628,-2.1257,-2.1893,-2.1814,-2.2028,-2.2232,-2.2434,-2.2158,-2.1786,-2.1251,-2.0985,-2.0576,-1.9979,-1.9975,-1.982,-1.9253,-1.9486,-1.9665,-1.932,-1.8713,-1.8236,-1.8202,-1.811,-1.8052,-3.397,-3.3958,-3.3717,-3.2616,-3.1021,-3.1344,-3.1517,-3.148,-3.1043,-3.0826,-3.0735,-2.9989,-2.9653,-2.9665,-3.0048,-3.0272,-3.0446,-3.0718,-3.0838,-3.0838,-3.0826,-3.0795,-3.0814,-3.0597,-3.0434,-3.0422,-2.9905,-2.9532,-2.9292,-2.9003,-2.8435,-2.7581,-2.753,-2.6894,-2.5562,-2.4782,-2.4888,-2.5739,-2.6012,-2.6877,-2.8438,-2.7858,-2.7064,-2.6117,-2.5658,-2.4993,-2.4049,-2.4257,-2.4179,-2.3654,-2.3271,-2.232,-2.0647,-1.8585,-1.6778,0.0,0.0,0.0,0.0,0.0,0.0,0.0,0.0,0.0,0.0,0.0,-1.5946,-1.6446,-1.7893,-1.8865,-1.9058,-1.9081,-1.9315,-1.9915,-1.9955,-2.0266,-2.1211,-2.1837,-2.208,-2.1845,-2.2321,-2.2763,-2.2942,-2.2881,-2.3001,-2.3672,-2.2191,-2.1059,-2.1115,-2.1653,-2.2121,-2.2165,-2.2699,-2.3113,-2.3038,-2.2889,-2.2804,-2.2703,-2.2515,-2.2269,-2.1903,-2.1508,-2.1074,-2.0625,-2.0471,-2.024,-1.9799,-1.9988,-2.0195,-1.9919,-1.9514,-1.9083,-1.8744,-1.8452,-1.8289,-3.4775,-3.4787,-3.4282,-3.3111,-3.1658,-3.2953,-3.3142,-3.2462,-3.1528,-3.1193,-3.1321,-3.0627,-3.0344,-3.0326,-3.0814,-3.1031,-3.1055,-3.15,-3.1705,-3.1705,-3.1705,-3.1705,-3.1681,-3.1235,-3.0975,-3.0995,-3.0434,-2.9941,-2.9508,-2.9364,-2.8987,-2.8403,-2.8319,-2.7731,-2.6611,-2.5665,-2.4968,-2.4559,-2.5558,-2.683,-2.8275,-2.7451,-2.6283,-2.4934,-2.4248,-2.3329,-2.2103,-2.2207,-2.2105,-2.1745,-2.1461,-2.0908,-2.0017,-1.8372,-1.7098,0.0,-1.5231,0.0,0.0,0.0,0.0,0.0,0.0,0.0,0.0,-1.7713,-1.8232,-1.9365,-2.0199,-2.057,-2.0344,-2.0266,-2.0565,-2.1366,-2.1475,-2.1801,-2.2707,-2.3201,-2.351,-2.3499,-2.3925,-2.4127,-2.3936,-2.3934,-2.3849,-2.374,-2.3599,-2.3414,-2.3621,-2.3514,-2.3404,-2.3383,-2.3309,-2.315,-2.3038,-2.3001,-2.2927,-2.2777,-2.2703,-2.2665,-2.2467,-2.1951,-2.1518,-2.1366,-2.098,-2.0632,-2.0462,-2.0467,-2.056,-2.0498,-2.036,-2.0053,-1.9364,-1.8897,-1.8596,-3.4775,-3.4775,-3.4679,-3.4462,-3.4114,-3.439,-3.2198,-2.84,-2.8025,-2.8575,-2.9746,-3.1072,-3.1547,-3.1416,-3.1656,-3.1704,-3.156,-3.1657,-3.1705,-3.1705,-3.1705,-3.1705,-3.1705,-3.1609,-3.156,-3.1524,-3.0975,-3.0718,-3.0597,-2.9713,-2.8784,-2.7794,-2.7331,-2.66,-2.5542,0.0,0.0,0.0,-2.5695,-2.6549,-2.7238,-2.5207,-2.3982,-2.3708,-2.327,0.0,-2.2207,-2.2514,-2.2303,-2.1438,-2.1331,0.0,0.0,0.0,0.0,0.0,0.0,0.0,0.0,0.0,0.0,0.0,-1.8731,-1.844,-1.8124,-1.9143,-2.0289,-2.1353,-2.1761,-2.2116,-2.2547,-2.2474,-2.2391,-2.2442,-2.2765,-2.3063,-2.327,-2.3741,-2.4062,-2.4062,-2.4143,-2.42,-2.4164,-2.4152,-2.4127,-2.4091,-2.4091,-2.408,-2.408,-2.3787,-2.3604,-2.3519,-2.3309,-2.3075,-2.3001,-2.3001,-2.3001,-2.2916,-2.2815,-2.2703,-2.2617,-2.2424,-2.1993,-2.155,-2.1612,-2.1444,-2.0643,-2.101,-2.1373,-2.1025,-2.0953,-2.0633,-1.9665,-1.9267,-1.8982,-3.4775,0.0,-3.4775,-3.4246,0.0,-3.31,-3.0968,-2.781,-2.9682,-3.0602,-3.087,-3.1553,-3.1805,-3.1637,-3.0934,-3.0577,-3.0442,-2.9632,-2.9668,-3.0466,-3.0478,-3.0926,-3.1705,-3.1705,-3.1705,-3.1693,-3.144,-3.1175,-3.0855,-3.0338,-2.9552,-2.8437,-2.8177,-2.7615,-2.6846,-2.6834,-2.6488,-2.58,-2.6015,-2.667,-2.7668,-2.6467,-2.5446,-2.4791,-2.4247,0.0,0.0,0.0,0.0,0.0,0.0,0.0,0.0,0.0,0.0,-2.1141,-2.0339,-2.0072,-2.0614,-2.0596,-2.0842,-2.1573,-2.1843,-2.1475,-2.0367,-2.1835,-2.3029,-2.3556,-2.373,-2.3924,-2.4173,-2.4025,-2.3828,-2.377,-2.3767,-2.3821,-2.3808,-2.4039,-2.4189,-2.4189,-2.4189,-2.4189,-2.4189,-2.4189,-2.4189,-2.4189,-2.4189,-2.4189,-2.4152,-2.3934,-2.3751,-2.3641,-2.3372,-2.315,-2.3139,-2.3027,-2.3001,-2.3001,-2.2927,-2.2841,-2.2852,-2.2665,-2.243,-2.2105,-2.2104,-2.1874,-2.1428,-2.1582,-2.1725,-2.1518,-2.1455,-2.1201,-2.0411,-1.9878,-1.9393,-3.4775,-3.4775,-3.4775,-3.3887,-3.2391,-3.1964,-3.0805,-2.9487,0.0,0.0,0.0,-3.1958,-3.1834,-3.1645,-3.0249,-2.9644,-2.9542,-2.8207,-2.8318,-2.9644,-2.9644,-3.0375,-3.1693,-3.1705,-3.1705,-3.1705,-3.1705,-3.1488,-3.1067,-3.097,-3.0386,-2.952,-2.934,-2.9039,-2.8546,-2.851,-2.8044,-2.712,-2.6434,-2.6779,-2.8187,-2.7772,-2.6978,-2.5902,-2.531,-2.4413,-2.3186,-2.2857,-2.2433,-2.1881,-2.2022,-2.1936,-2.1603,-2.158,-2.1576,-2.151,-2.1619,-2.1966,-2.2626,-2.2772,-2.3171,-2.4013,-2.4422,-2.4118,-2.2845,-2.4335,-2.5312,-2.5312,-2.5312,-2.53,-2.5276,-2.5028,-2.4825,-2.479,-2.4502,-2.4298,-2.4261,-2.4273,-2.4309,-2.4236,-2.4236,-2.4225,-2.4189,-2.4189,-2.4189,-2.4189,-2.4189,-2.4189,-2.4116,-2.4007,-2.3824,-2.3677,-2.3494,-2.3335,-2.3298,-2.3187,-2.3038,-2.3001,-2.3001,-2.3001,-2.2964,-2.2852,-2.274,-2.2633,-2.2402,-2.2203,-2.209,-2.1939,-2.1835,-2.1797,-2.1807,-2.1662,-2.1186,-2.0534,-1.9913,-3.4775,-3.4775,-3.4775,-3.4655,-3.439,-3.4318,-3.4102,-3.3696,-3.1983,-3.0954,-3.0695,-3.2051,-3.2394,-3.1937,-3.1548,-3.1344,-3.1344,-3.1089,-3.1125,-3.1344,-3.1344,-3.1472,-3.1705,-3.1705,-3.1705,-3.1705,-3.1705,-3.1681,-3.1548,-3.1139,-3.0609,-2.9989,-2.9532,-2.9039,-2.8558,-2.851,-2.8435,-2.8207,-2.6853,-2.6476,-2.725,-2.544,-2.4525,-2.4721,-2.4476,-2.3938,-2.3315,-2.3421,-2.3028,-2.2113,-2.2076,-2.2381,-2.3032,-2.3112,-2.357,-2.4563,-2.4681,-2.4752,-2.4823,-2.4882,-2.4941,-2.5083,-2.5168,-2.4904,-2.4284,-2.488,-2.5312,-2.5312,-2.5312,-2.5241,-2.5147,-2.5076,-2.4992,-2.4825,-2.4754,-2.4646,-2.449,-2.461,-2.4562,-2.4236,-2.4357,-2.4381,-2.4236,-2.4212,-2.4246,-2.4212,-2.4326,-2.4198,-2.4052,-2.3897,-2.3897,-2.3824,-2.3714,-2.3519,-2.3372,-2.3309,-2.3187,-2.3038,-2.3001,-2.3001,-2.3001,-2.2953,-2.2889,-2.274,-2.2617,-2.2478,-2.2214,-2.2063,-2.1987,-2.1845,-2.1807,-2.1652,-2.1248,-2.099,-2.0741,-3.4872,-3.4969,-3.4872,-3.4775,-3.4763,-3.4474,-3.4354,-3.4294,-3.3346,-3.2566,-3.201,-3.2698,-3.2568,-3.1769,-3.0961,-3.0493,-3.0284,-2.9406,-2.9507,-3.0296,-3.0351,-3.0834,-3.1681,-3.1705,-3.1705,-3.1705,-3.1705,-3.1705,-3.1681,-3.1452,-3.0934,-3.0086,-2.928,-2.8739,-2.8534,-2.851,-2.851,-2.8459,-2.7782,-2.76,-2.7999,-2.7162,-2.6823,-2.7153,-2.6863,-2.6589,-2.636,-2.6166,-2.5801,-2.5363,-2.5071,-2.5091,-2.5473,-2.5137,-2.5129,-2.5569,-2.5535,-2.5418,-2.53,-2.5312,-2.5312,-2.5312,-2.5312,-2.518,-2.4975,-2.5168,-2.5276,-2.5218,-2.5229,-2.5253,-2.5111,-2.5076,-2.5087,-2.4945,-2.4778,-2.461,-2.4538,-2.4574,-2.4538,-2.4273,-2.4381,-2.4429,-2.4236,-2.4418,-2.459,-2.4613,-2.4797,-2.4863,-2.4514,-2.442,-2.4292,-2.3954,-2.3824,-2.3677,-2.3494,-2.3372,-2.3224,-2.3038,-2.3001,-2.3001,-2.3001,-2.3001,-2.2964,-2.2889,-2.2777,-2.2628,-2.244,-2.2327,-2.2176,-2.2025,-2.1959,-2.1797,-2.1576,-2.1487,-2.1145,-3.4981,-3.5175,-3.4969,-3.492,-3.4933,-3.4486,-3.427,-3.4318,-3.4852,-3.4403,-3.3423,-3.3432,-3.2881,-3.1777,-3.0654,-2.9996,-2.9609,-2.8418,-2.8553,-2.9668,-2.9769,-3.0478,-3.1589,-3.1705,-3.1705,-3.1705,-3.1705,-3.1705,-3.1749,-3.1705,-3.1175,-3.0182,-2.927,-2.875,-2.855,-2.859,-2.855,-2.851,-2.851,-2.859,-2.8724,-2.8934,-2.9118,-2.9277,-2.9098,-2.8975,-2.8875,-2.8511,-2.8235,-2.8097,-2.7695,-2.7433,-2.7337,-2.6673,-2.62,-2.5965,-2.5667,-2.5465,-2.5312,-2.5312,-2.5312,-2.5312,-2.5312,-2.5312,-2.5312,-2.5312,-2.5241,-2.517,-2.5229,-2.5276,-2.5182,-2.5147,-2.5147,-2.5111,-2.4873,-2.4694,-2.4634,-2.4658,-2.4586,-2.4406,-2.449,-2.449,-2.4378,-2.465,-2.4935,-2.5119,-2.5463,-2.5471,-2.5138,-2.5004,-2.4665,-2.4292,-2.405,-2.3897,-2.3703,-2.353,-2.3298,-2.3113,-2.3049,-2.3001,-2.3001,-2.3001,-2.3001,-2.2964,-2.2889,-2.274,-2.2703,-2.258,-2.2402,-2.2214,-2.2187,-2.209,-2.1928,-2.1804,-2.1356,-3.5175,-3.5175,-3.5175,-3.532,-3.5452,-3.5198,-3.5078,-3.5126,-3.563,-3.491,-3.3448,-3.4007,-3.3514,-3.2386,-3.1904,-3.16,-3.1412,-3.1309,-3.1285,-3.14,-3.1472,-3.1565,-3.1705,-3.1705,-3.1705,-3.1705,-3.1705,-3.1793,-3.1937,-3.1769,-3.1262,-3.0452,-3.0025,-2.9462,-2.8864,-2.8752,-2.8697,-2.851,-2.851,-2.851,-2.8538,-2.8724,-2.8922,-2.9131,-2.9264,-2.9197,-2.895,-2.885,-2.8624,-2.816,-2.8084,-2.7839,-2.7508,-2.6979,-2.6479,-2.6118,-2.5612,-2.5312,-2.5312,-2.5312,-2.5312,-2.5312,-2.5312,-2.5312,-2.5312,-2.5312,-2.5312,-2.5276,-2.5276,-2.5312,-2.5264,-2.5276,-2.5276,-2.5276,-2.5206,-2.517,-2.504,-2.5135,-2.5111,-2.4778,-2.4754,-2.4693,-2.4583,-2.4828,-2.5176,-2.567,-2.5819,-2.583,-2.5647,-2.5325,-2.5027,-2.4783,-2.4473,-2.4148,-2.392,-2.3714,-2.3482,-2.3298,-2.3113,-2.3038,-2.3038,-2.3001,-2.3001,-2.3001,-2.3001,-2.2889,-2.2777,-2.2665,-2.2628,-2.244,-2.2327,-2.2289,-2.2111,-2.1959,-2.1319,-3.5524,-3.5668,-3.5524,-3.5428,-3.5368,-3.5416,-3.532,-3.5199,-3.5289,-3.4664,-3.3793,-3.3724,-3.3056,-3.1994,-3.1994,-3.2125,-3.2276,-3.2157,-3.2407,-3.2785,-3.2363,-3.2157,-3.2232,-3.1881,-3.1705,-3.1705,-3.1705,-3.1749,-3.1745,-3.1523,-3.1064,-3.0445,-3.0387,-2.9819,-2.8879,-2.9015,-2.8961,-2.851,-2.851,-2.851,-2.855,-2.8816,-2.9079,-2.9275,-2.9521,-2.9563,-2.9478,-2.944,-2.9327,-2.9089,-2.8787,-2.8512,-2.8325,-2.7286,-2.6637,-2.6408,-2.572,-2.5312,-2.5312,-2.5312,-2.5312,-2.5312,-2.5312,-2.5312,-2.5312,-2.5312,-2.5312,-2.5312,-2.5312,-2.5264,-2.5218,-2.5253,-2.5312,-2.5276,-2.5241,-2.5147,-2.5111,-2.5135,-2.5076,-2.4861,-2.4885,-2.4979,-2.5051,-2.5451,-2.6003,-2.6485,-2.6548,-2.6473,-2.6209,-2.5996,-2.5727,-2.544,-2.521,-2.4757,-2.4116,-2.3861,-2.3641,-2.342,-2.3224,-2.315,-2.3038,-2.3001,-2.3001,-2.3001,-2.3001,-2.3001,-2.2927,-2.2852,-2.2815,-2.2628,-2.244,-2.2327,-2.2138,-2.2025,-2.1497,-3.5908,-3.5968,-3.5716,-3.5426,-3.5231,-3.5339,-3.517,-3.4749,-3.4654,-3.4234,-3.3594,-3.3449,-3.2835,-3.2106,-3.2189,-3.245,-3.2667,-3.2711,-3.3099,-3.3586,-3.284,-3.255,-3.2624,-3.2013,-3.1705,-3.1705,-3.1705,-3.1705,-3.1713,-3.1636,-3.1321,-3.0974,-3.091,-3.0401,-2.9483,-2.9506,-2.9184,-2.8618,-2.859,-2.8578,-2.8605,-2.8973,-2.9236,-2.9353,-2.9611,-2.9779,-2.9779,-2.9779,-2.9779,-2.9767,-2.9201,-2.8825,-2.87,-2.7373,-2.654,-2.6297,-2.5683,-2.5312,-2.5312,-2.5312,-2.5312,-2.5312,-2.5312,-2.5312,-2.5312,-2.5312,-2.5312,-2.5312,-2.5312,-2.5241,-2.5182,-2.5241,-2.5276,-2.5312,-2.5218,-2.5147,-2.5182,-2.5147,-2.5123,-2.4992,-2.5052,-2.5205,-2.5471,-2.6031,-2.6616,-2.6995,-2.7133,-2.7087,-2.6749,-2.6582,-2.6341,-2.5968,-2.5807,-2.5261,-2.4394,-2.4172,-2.3931,-2.3567,-2.3409,-2.3224,-2.3065,-2.3065,-2.3001,-2.3001,-2.3001,-2.3001,-2.2964,-2.2964,-2.2953,-2.2815,-2.2628,-2.244,-2.2327,-2.2214,-2.1824,-3.6405,-3.5991,-3.5704,-3.5406,-3.5149,-3.494,-3.4411,-3.3801,-3.3943,-3.3533,-3.2871,-3.3499,-3.3408,-3.268,-3.2871,-3.2884,-3.284,-3.3386,-3.367,-3.3755,-3.3056,-3.2711,-3.2667,-3.2013,-3.1705,-3.1705,-3.1705,-3.1705,-3.1749,-3.212,-3.2284,-3.2026,-3.1763,-3.1341,-3.0628,-2.9994,-2.9406,-2.8831,-2.8764,-2.8803,-2.8843,-2.9184,-2.9302,-2.9209,-2.9546,-2.9779,-2.9779,-2.9779,-2.9767,-2.9767,-2.9062,-2.8573,-2.8259,-2.7127,-2.6153,-2.5515,-2.5324,-2.5312,-2.5312,-2.5312,-2.5312,-2.5312,-2.5312,-2.5312,-2.5312,-2.5312,-2.5312,-2.5312,-2.5312,-2.5276,-2.5347,-2.5312,-2.5312,-2.5312,-2.5276,-2.5264,-2.5276,-2.5276,-2.5276,-2.5301,-2.5314,-2.5549,-2.5934,-2.6297,-2.672,-2.7082,-2.719,-2.7156,-2.7105,-2.6772,-2.657,-2.6432,-2.6071,-2.5494,-2.4989,-2.4662,-2.4343,-2.3946,-2.3519,-2.3298,-2.3213,-2.3139,-2.3075,-2.3001,-2.3001,-2.3001,-2.3001,-2.3001,-2.3001,-2.2927,-2.2815,-2.2665,-2.2553,-2.2289,-2.1941,-3.6248,-3.5303,-3.4796,-3.444,-3.42,-3.4268,-3.4007,-3.3652,-3.3843,-3.3729,-3.3461,-3.3694,-3.3619,-3.3373,-3.3882,-3.405,-3.3995,-3.4092,-3.4439,-3.484,-3.4134,-3.3641,-3.33,-3.2667,-3.2101,-3.1749,-3.1705,-3.1705,-3.1793,-3.245,-3.2352,-3.1764,-3.2125,-3.1685,-3.0478,-3.0031,-2.9613,-2.904,-2.9,-2.8961,-2.9013,-2.9275,-2.938,-2.9314,-2.9624,-2.9779,-2.9779,-2.9325,-2.9099,-2.9099,-2.835,-2.7891,-2.7754,-2.7029,-2.6285,-2.5608,-2.55,-2.5418,-2.5312,-2.5312,-2.5312,-2.5312,-2.5312,-2.5312,-2.5312,-2.5312,-2.5312,-2.5312,-2.5312,-2.5418,-2.5699,-2.5523,-2.5312,-2.5312,-2.5312,-2.5336,-2.5312,-2.5312,-2.5432,-2.5781,-2.621,-2.6664,-2.6783,-2.7049,-2.7192,-2.7325,-2.726,-2.7231,-2.7179,-2.7007,-2.6921,-2.6932,-2.6795,-2.6496,-2.603,-2.523,-2.4674,-2.415,-2.3751,-2.353,-2.342,-2.3298,-2.3224,-2.3075,-2.3038,-2.3038,-2.3038,-2.3001,-2.3001,-2.3001,-2.2889,-2.2815,-2.274,-2.2515,-2.2176,-3.575,-3.4906,-3.428,-3.3713,-3.3396,-3.3521,-3.3514,-3.3379,-3.3662,-3.3941,-3.4128,-3.4457,-3.4593,-3.4721,-3.527,-3.5498,-3.5271,-3.4987,-3.5141,-3.5548,-3.4647,-3.4008,-3.3586,-3.2785,-3.2145,-3.1805,-3.1925,-3.2013,-3.2101,-3.2698,-3.2671,-3.2249,-3.2391,-3.1815,-3.0731,-3.0235,-2.9741,-2.9275,-2.9197,-2.9209,-2.9248,-2.9431,-2.9521,-2.9521,-2.9599,-2.9601,-2.9528,-2.9025,-2.8662,-2.835,-2.7705,-2.7212,-2.6991,-2.6635,-2.622,-2.5772,-2.5688,-2.5641,-2.55,-2.5418,-2.5394,-2.5394,-2.5312,-2.5312,-2.5312,-2.5312,-2.5312,-2.5312,-2.5523,-2.577,-2.6024,-2.5955,-2.5776,-2.5643,-2.5563,-2.5552,-2.5576,-2.5745,-2.5997,-2.6369,-2.689,-2.7275,-2.7426,-2.7552,-2.7585,-2.7522,-2.7423,-2.7383,-2.7231,-2.726,-2.726,-2.7231,-2.7144,-2.6898,-2.6473,-2.5853,-2.5173,-2.4637,-2.4206,-2.3942,-2.3604,-2.3457,-2.3335,-2.315,-2.3075,-2.3038,-2.3038,-2.3038,-2.3001,-2.3001,-2.2964,-2.2889,-2.2815,-2.274,-2.244,-3.49,-3.4613,-3.4165,-3.3432,-3.2804,-3.2881,-3.2811,-3.286,-3.3464,-3.4166,-3.4727,-3.5873,-3.629,-3.6512,-3.6836,-3.6983,-3.6373,-3.5764,-3.5467,-3.5467,-3.4384,-3.3768,-3.3543,-3.245,-3.1925,-3.1837,-3.2407,-3.2723,-3.2754,-3.3043,-3.339,-3.3592,-3.25,-3.1977,-3.1968,-3.0671,-2.9844,-2.9509,-2.9457,-2.947,-2.9419,-2.9689,-2.9818,-2.974,-2.956,-2.9311,-2.8963,-2.8875,-2.8475,-2.784,-2.7269,-2.6652,-2.6142,-2.6031,-2.5923,-2.5923,-2.591,-2.591,-2.5875,-2.5676,-2.5606,-2.5535,-2.543,-2.5312,-2.5312,-2.5312,-2.5312,-2.5488,-2.5807,-2.6165,-2.6274,-2.654,-2.6607,-2.6268,-2.6141,-2.6093,-2.619,-2.6586,-2.6885,-2.6932,-2.7272,-2.7421,-2.7486,-2.7723,-2.7817,-2.7684,-2.7708,-2.7679,-2.7394,-2.7412,-2.7371,-2.726,-2.7179,-2.7059,-2.6749,-2.6432,-2.5835,-2.5218,-2.4808,-2.443,-2.3923,-2.3677,-2.3519,-2.3335,-2.3224,-2.3176,-2.3102,-2.3075,-2.3038,-2.3001,-2.3001,-2.2964,-2.2927,-2.2815,-2.2665,-3.4217,-3.332,-3.269,-3.2281,-3.2124,-3.2521,-3.2729,-3.2903,-3.4272,-3.5119,-3.5509,-3.6636,-3.716,-3.7109,-3.7023,-3.6809,-3.651,-3.5531,-3.5005,-3.4922,-3.4538,-3.3839,-3.3086,-3.2568,-3.2407,-3.2481,-3.3086,-3.3386,-3.3458,-3.3882,-3.3953,-3.3348,-3.3148,-3.2391,-3.148,-3.0735,-3.0193,-2.9778,-2.9947,-2.9985,-2.9728,-3.0037,-3.0075,-2.9818,-2.9702,-2.9439,-2.8925,-2.8263,-2.7742,-2.7269,-2.6616,-2.6188,-2.6134,-2.6097,-2.6097,-2.6097,-2.6109,-2.6015,-2.591,-2.584,-2.5723,-2.5653,-2.5535,-2.5418,-2.5312,-2.5312,-2.5523,-2.5818,-2.6087,-2.6382,-2.7042,-2.7005,-2.6895,-2.6712,-2.6649,-2.6671,-2.6767,-2.7126,-2.739,-2.7498,-2.7855,-2.8115,-2.8151,-2.8195,-2.8047,-2.7966,-2.795,-2.7812,-2.7719,-2.7574,-2.7482,-2.7412,-2.7319,-2.7196,-2.6978,-2.6783,-2.6416,-2.583,-2.5375,-2.4819,-2.4286,-2.3963,-2.3793,-2.3556,-2.3409,-2.3298,-2.3176,-2.3113,-2.3075,-2.3038,-2.3001,-2.3001,-2.2964,-2.2889,-2.2777,-3.3487,-3.2431,-3.1981,-3.1925,-3.2101,-3.2537,-3.3,-3.359,-3.4943,-3.5743,-3.6198,-3.7275,-3.7811,-3.7797,-3.7663,-3.7351,-3.6861,-3.5803,-3.5125,-3.4645,-3.4092,-3.3598,-3.3086,-3.3099,-3.3043,-3.3172,-3.3755,-3.4092,-3.4092,-3.4301,-3.4134,-3.3623,-3.3162,-3.252,-3.1526,-3.1065,-3.0643,-3.0366,-3.0522,-3.0457,-3.0152,-3.0254,-3.0228,-2.9869,-2.9689,-2.9401,-2.8888,-2.8251,-2.7643,-2.701,-2.6369,-2.6144,-2.6283,-2.6305,-2.6305,-2.6305,-2.6305,-2.627,-2.6154,-2.605,-2.5945,-2.5828,-2.5758,-2.5746,-2.5699,-2.5721,-2.5978,-2.6386,-2.6706,-2.6997,-2.7559,-2.7668,-2.7488,-2.75,-2.732,-2.7332,-2.75,-2.7774,-2.7993,-2.8077,-2.8306,-2.8474,-2.8471,-2.8431,-2.8259,-2.8219,-2.8151,-2.8002,-2.7962,-2.7817,-2.7725,-2.7563,-2.74,-2.729,-2.7219,-2.7064,-2.6978,-2.6462,-2.5934,-2.5261,-2.4637,-2.4477,-2.4286,-2.383,-2.3593,-2.3409,-2.3298,-2.3224,-2.315,-2.3075,-2.3038,-2.3001,-2.3001,-2.3001,-2.2889,-3.2896,-3.2069,-3.2069,-3.232,-3.2754,-3.2884,-3.3543,-3.4601,-3.542,-3.6009,-3.6711,-3.7689,-3.8204,-3.8423,-3.8437,-3.807,-3.7398,-3.6316,-3.5479,-3.4525,-3.3598,-3.3086,-3.3501,-3.367,-3.3755,-3.3839,-3.4426,-3.4758,-3.4758,-3.4417,-3.4217,-3.4152,-3.2937,-3.2101,-3.1964,-3.1538,-3.1187,-3.1086,-3.102,-3.0761,-3.0394,-3.0406,-3.019,-2.9818,-2.9586,-2.9362,-2.905,-2.8712,-2.8114,-2.7169,-2.6646,-2.6429,-2.6506,-2.6524,-2.6452,-2.6452,-2.6487,-2.6452,-2.6418,-2.6305,-2.6236,-2.6188,-2.6084,-2.606,-2.6358,-2.6311,-2.6461,-2.6909,-2.7306,-2.7639,-2.7802,-2.8125,-2.8401,-2.8436,-2.8005,-2.7981,-2.839,-2.8462,-2.8414,-2.845,-2.851,-2.851,-2.851,-2.8471,-2.8391,-2.8311,-2.8339,-2.8283,-2.8122,-2.803,-2.7926,-2.7805,-2.7603,-2.7545,-2.7476,-2.7452,-2.7337,-2.7007,-2.6512,-2.5904,-2.5127,-2.4849,-2.4562,-2.4104,-2.3751,-2.3556,-2.3409,-2.3335,-2.3224,-2.315,-2.3075,-2.3038,-2.3001,-2.3001,-2.3001,-3.3129,-3.2742,-3.2742,-3.3,-3.3501,-3.3966,-3.4343,-3.4837,-3.5866,-3.6357,-3.6782,-3.7419,-3.7716,-3.7745,-3.746,-3.7107,-3.6599,-3.5247,-3.4666,-3.4478,-3.3343,-3.3129,-3.3713,-3.4217,-3.4426,-3.4509,-3.5019,-3.5413,-3.5386,-3.4808,-3.4484,-3.4371,-3.3532,-3.2794,-3.2256,-3.196,-3.1572,-3.1215,-3.1084,-3.0823,-3.0482,-3.0406,-3.0228,-2.9818,-2.9702,-2.9626,-2.9515,-2.9063,-2.8512,-2.7861,-2.7297,-2.7032,-2.704,-2.6713,-2.6487,-2.6487,-2.6487,-2.6487,-2.6499,-2.6465,-2.6465,-2.6555,-2.6533,-2.6564,-2.6803,-2.6598,-2.6688,-2.7024,-2.7314,-2.7617,-2.8063,-2.8484,-2.8753,-2.8885,-2.8539,-2.8357,-2.8462,-2.851,-2.851,-2.851,-2.851,-2.851,-2.851,-2.8474,-2.8435,-2.8383,-2.8347,-2.8362,-2.8108,-2.7961,-2.7786,-2.7947,-2.7886,-2.7829,-2.7771,-2.776,-2.7644,-2.7424,-2.707,-2.6655,-2.58,-2.5127,-2.4703,-2.4217,-2.3956,-2.374,-2.3629,-2.353,-2.3372,-2.3224,-2.315,-2.3113,-2.3038,-2.3001,-2.3038,-3.3343,-3.3043,-3.3343,-3.3713,-3.4134,-3.4509,-3.4853,-3.5235,-3.5845,-3.6225,-3.6375,-3.6863,-3.7134,-3.7121,-3.6997,-3.6836,-3.644,-3.5147,-3.48,-3.4977,-3.4384,-3.4134,-3.4301,-3.4799,-3.5141,-3.5087,-3.5251,-3.5183,-3.4996,-3.4686,-3.4393,-3.4212,-3.4076,-3.3723,-3.3354,-3.281,-3.2489,-3.2058,-3.1596,-3.1048,-3.0672,-3.047,-3.0177,-2.9895,-2.9779,-2.9779,-2.9729,-2.9465,-2.8938,-2.8197,-2.7607,-2.7329,-2.7278,-2.6788,-2.6499,-2.6487,-2.6487,-2.6487,-2.6521,-2.6624,-2.676,-2.685,-2.693,-2.7201,-2.7356,-2.7255,-2.7348,-2.7853,-2.7893,-2.8182,-2.8573,-2.8857,-2.8966,-2.9052,-2.8907,-2.8709,-2.8657,-2.855,-2.851,-2.851,-2.851,-2.851,-2.8498,-2.833,-2.821,-2.8114,-2.7822,-2.7774,-2.7687,-2.7654,-2.7584,-2.7589,-2.7652,-2.7493,-2.7507,-2.7502,-2.7589,-2.7405,-2.7128,-2.6845,-2.6219,-2.5417,-2.4969,-2.4531,-2.424,-2.397,-2.3824,-2.3677,-2.353,-2.342,-2.3298,-2.3187,-2.315,-2.3038,-2.3038,-3.3501,-3.3288,-3.3937,-3.4439,-3.4758,-3.484,-3.5168,-3.5588,-3.571,-3.5778,-3.5873,-3.6293,-3.6497,-3.6537,-3.6794,-3.6971,-3.6428,-3.5588,-3.5445,-3.5412,-3.5332,-3.5263,-3.4881,-3.5291,-3.5548,-3.5507,-3.5033,-3.4672,-3.4459,-3.4233,-3.41,-3.4139,-3.4469,-3.4652,-3.4237,-3.3794,-3.3459,-3.2867,-3.1762,-3.1149,-3.0748,-3.0444,-3.0113,-2.9856,-2.9779,-2.9779,-2.9779,-2.9691,-2.9315,-2.836,-2.7758,-2.7557,-2.7394,-2.6901,-2.6596,-2.6589,-2.6589,-2.6624,-2.6658,-2.6918,-2.7108,-2.7188,-2.7501,-2.7828,-2.8153,-2.8259,-2.841,-2.8726,-2.8907,-2.8926,-2.9088,-2.9195,-2.9199,-2.9248,-2.917,-2.9052,-2.8882,-2.8697,-2.855,-2.851,-2.851,-2.851,-2.8318,-2.8053,-2.7717,-2.7633,-2.7428,-2.7318,-2.727,-2.7217,-2.699,-2.6765,-2.6865,-2.6999,-2.7113,-2.7249,-2.732,-2.7315,-2.6971,-2.6644,-2.6299,-2.5658,-2.5233,-2.4852,-2.4551,-2.4226,-2.397,-2.3824,-2.3677,-2.353,-2.3372,-2.3335,-2.3298,-2.315,-2.3113,-3.3937,-3.466,-3.4825,-3.5113,-3.5467,-3.5494,-3.5548,-3.571,-3.571,-3.571,-3.575,-3.5873,-3.5927,-3.594,-3.6089,-3.6008,-3.5886,-3.5327,-3.4933,-3.4975,-3.5507,-3.5629,-3.5467,-3.5629,-3.5669,-3.5494,-3.4781,-3.4472,-3.4471,-3.4215,-3.399,-3.4393,-3.4753,-3.4741,-3.4615,-3.3807,-3.3027,-3.2607,-3.1434,-3.0698,-3.0558,-3.019,-2.9895,-2.9779,-2.9779,-2.9779,-2.9779,-2.9779,-2.9666,-2.9365,-2.8875,-2.8385,-2.7907,-2.7465,-2.7126,-2.6952,-2.693,-2.6998,-2.7222,-2.7335,-2.7549,-2.7848,-2.8265,-2.8765,-2.9153,-2.9301,-2.9294,-2.9249,-2.9155,-2.9237,-2.9351,-2.955,-2.9573,-2.9534,-2.9443,-2.9341,-2.9223,-2.8961,-2.8803,-2.8685,-2.8581,-2.8366,-2.7969,-2.7777,-2.7438,-2.715,-2.6958,-2.6873,-2.6776,-2.6666,-2.647,-2.6164,-2.6399,-2.6585,-2.6615,-2.6788,-2.6913,-2.6917,-2.6674,-2.6419,-2.6076,-2.5911,-2.5497,-2.5164,-2.484,-2.4528,-2.4125,-2.397,-2.3835,-2.3641,-2.3482,-2.3372,-2.3298,-2.3198,-2.3198,-3.4481,-3.4936,-3.5236,-3.5521,-3.5669,-3.571,-3.571,-3.571,-3.571,-3.571,-3.571,-3.571,-3.571,-3.5669,-3.5426,-3.5399,-3.5629,-3.5521,-3.5372,-3.548,-3.5764,-3.5858,-3.5777,-3.5602,-3.548,-3.5548,-3.4914,-3.4658,-3.4601,-3.4595,-3.4712,-3.4881,-3.5452,-3.5597,-3.5076,-3.4046,-3.325,-3.2503,-3.119,-3.0406,-3.033,-3.0011,-2.9779,-2.9779,-2.9779,-2.9779,-2.9779,-2.9779,-2.9908,-2.9935,-2.9771,-2.9188,-2.8551,-2.8275,-2.7936,-2.7369,-2.754,-2.7517,-2.7594,-2.7696,-2.7987,-2.8439,-2.8906,-2.9403,-2.9781,-3.0023,-2.9944,-2.9699,-2.9626,-2.9628,-2.9589,-2.9702,-2.9792,-2.9779,-2.9689,-2.9664,-2.9741,-2.9496,-2.9145,-2.8978,-2.8729,-2.8341,-2.7985,-2.7495,-2.6971,-2.6562,-2.6154,-2.6021,-2.5937,-2.5852,-2.5839,-2.5765,-2.6025,-2.6178,-2.6162,-2.6264,-2.6447,-2.6414,-2.6233,-2.6078,-2.5869,-2.5796,-2.5761,-2.5325,-2.4843,-2.4522,-2.415,-2.4066,-2.3934,-2.3714,-2.3556,-2.3409,-2.3335,-2.3335,-2.3335,-3.4977,-3.4895,-3.5467,-3.571,-3.571,-3.571,-3.571,-3.571,-3.571,-3.571,-3.571,-3.571,-3.571,-3.5588,-3.5209,-3.525,-3.5683,-3.5938,-3.5952,-3.6032,-3.6072,-3.6112,-3.5992,-3.5656,-3.5399,-3.5548,-3.4701,-3.4393,-3.4535,-3.4983,-3.5006,-3.5418,-3.6398,-3.6306,-3.5558,-3.4588,-3.3473,-3.2476,-3.1189,-3.033,-3.0241,-2.9934,-2.983,-2.9934,-2.9921,-3.0011,-3.0088,-3.0113,-3.0216,-3.0482,-3.0621,-3.004,-2.9414,-2.911,-2.8948,-2.7831,-2.8153,-2.8163,-2.7941,-2.804,-2.8391,-2.8953,-2.9403,-2.9896,-3.0391,-3.0591,-3.0499,-3.028,-3.0127,-2.9882,-2.9793,-2.9792,-2.983,-2.9895,-2.9895,-3.0075,-3.0317,-3.0088,-2.9732,-2.9285,-2.8896,-2.8458,-2.7677,-2.7015,-2.6444,-2.5949,-2.5564,-2.5276,-2.5241,-2.5242,-2.5373,-2.5385,-2.5635,-2.5645,-2.5619,-2.5641,-2.58,-2.5782,-2.5675,-2.5573,-2.5421,-2.5245,-2.513,-2.5073,-2.4705,-2.4441,-2.4258,-2.4164,-2.4007,-2.3776,-2.3629,-2.3519,-2.3482,-2.3482,-2.3482,-3.5059,-3.5548,-3.5629,-3.571,-3.571,-3.571,-3.571,-3.571,-3.571,-3.571,-3.571,-3.571,-3.571,-3.5629,-3.5629,-3.5723,-3.5858,-3.6032,-3.6192,-3.6325,-3.6365,-3.6351,-3.6232,-3.5683,-3.5467,-3.5035,-3.4229,-3.37,-3.4044,-3.4216,-3.5092,-3.5773,-3.649,-3.6455,-3.5614,-3.4633,-3.3423,-3.2249,-3.1105,-3.0414,-3.0022,-2.9934,-3.0011,-3.0228,-3.0292,-3.0482,-3.071,-3.0885,-3.1009,-3.1121,-3.1529,-3.1324,-3.0771,-3.0275,-2.9623,-2.9002,-2.8858,-2.8839,-2.8542,-2.8492,-2.8847,-2.9348,-2.9923,-3.0513,-3.1021,-3.1218,-3.1043,-3.0673,-3.0214,-2.9858,-2.9793,-2.9921,-3.0049,-3.019,-3.0368,-3.0457,-3.0693,-3.0631,-3.0192,-2.9634,-2.9073,-2.8512,-2.7692,-2.6894,-2.6334,-2.59,-2.5551,-2.5312,-2.5276,-2.5276,-2.5301,-2.5254,-2.5171,-2.5075,-2.4991,-2.5014,-2.5107,-2.5031,-2.498,-2.4869,-2.4724,-2.4501,-2.4384,-2.4556,-2.4659,-2.4545,-2.4384,-2.4235,-2.4043,-2.3776,-2.3714,-2.3641,-2.3567,-2.3482,-2.3519,-3.5426,-3.571,-3.571,-3.571,-3.571,-3.571,-3.571,-3.571,-3.571,-3.571,-3.571,-3.571,-3.571,-3.5588,-3.5304,-3.5304,-3.5602,-3.6112,-3.6312,-3.6524,-3.6549,-3.6549,-3.6391,-3.5669,-3.4995,-3.455,-3.386,-3.3917,-3.4685,-3.4941,-3.5473,-3.6172,-3.6554,-3.6057,-3.5238,-3.4204,-3.3086,-3.1886,-3.1044,-3.0357,-2.9919,-3.0037,-3.0317,-3.0444,-3.0759,-3.1009,-3.106,-3.127,-3.1455,-3.1676,-3.1932,-3.2037,-3.1869,-3.158,-3.0975,-3.014,-2.9903,-2.9726,-2.9367,-2.9272,-2.9479,-3.0038,-3.0569,-3.1145,-3.1585,-3.1684,-3.1357,-3.081,-3.057,-3.019,-3.0228,-3.0457,-3.0759,-3.091,-3.0934,-3.0966,-3.096,-3.0935,-3.0428,-2.979,-2.9131,-2.8486,-2.7817,-2.7057,-2.6311,-2.5833,-2.5512,-2.5382,-2.5312,-2.5382,-2.5418,-2.5548,-2.5524,-2.5348,-2.5171,-2.5028,-2.4933,-2.4742,-2.4526,-2.4418,-2.4345,-2.4296,-2.4305,-2.4384,-2.4441,-2.4487,-2.4384,-2.4189,-2.4007,-2.3861,-2.3861,-2.3824,-2.3641,-2.353,-2.3593,-3.571,-3.571,-3.571,-3.571,-3.571,-3.571,-3.571,-3.571,-3.571,-3.571,-3.571,-3.571,-3.571,-3.5588,-3.5263,-3.5087,-3.525,-3.6112,-3.6484,-3.6682,-3.6747,-3.6747,-3.6218,-3.5507,-3.475,-3.4469,-3.419,-3.454,-3.4807,-3.5413,-3.611,-3.6452,-3.6256,-3.5857,-3.5197,-3.4592,-3.3042,-3.1871,-3.1211,-3.068,-3.024,-3.033,-3.0696,-3.0772,-3.1344,-3.1553,-3.164,-3.1823,-3.2042,-3.2223,-3.2381,-3.2489,-3.2789,-3.281,-3.2353,-3.155,-3.1239,-3.077,-3.0336,-3.0058,-3.0205,-3.0795,-3.1149,-3.173,-3.2104,-3.1965,-3.1445,-3.0797,-3.0709,-3.0796,-3.0833,-3.1182,-3.1405,-3.1529,-3.1489,-3.1479,-3.1289,-3.1007,-3.0502,-2.9832,-2.914,-2.8462,-2.7854,-2.7088,-2.63,-2.5937,-2.5629,-2.5347,-2.5347,-2.5594,-2.5734,-2.6002,-2.6002,-2.5828,-2.5618,-2.5336,-2.5194,-2.4981,-2.467,-2.4418,-2.4345,-2.4273,-2.4282,-2.4281,-2.4269,-2.4303,-2.4212,-2.4189,-2.4043,-2.397,-2.408,-2.4007,-2.3787,-2.3714,-2.374,-3.571,-3.571,-3.571,-3.571,-3.571,-3.571,-3.571,-3.571,-3.571,-3.571,-3.571,-3.571,-3.571,-3.5683,-3.5629,-3.5723,-3.5992,-3.6246,-3.6563,-3.6761,-3.685,-3.6679,-3.6165,-3.5602,-3.5182,-3.4887,-3.4568,-3.3988,-3.4348,-3.5372,-3.6017,-3.627,-3.6587,-3.6508,-3.5749,-3.5278,-3.4487,-3.2643,-3.2145,-3.1538,-3.0738,-3.0658,-3.1145,-3.1603,-3.1982,-3.2187,-3.2367,-3.2547,-3.2775,-3.2832,-3.3051,-3.3171,-3.3241,-3.3206,-3.3178,-3.28,-3.2236,-3.1447,-3.0956,-3.0798,-3.0943,-3.144,-3.1702,-3.2081,-3.2297,-3.2273,-3.1836,-3.1442,-3.1405,-3.1392,-3.1392,-3.1516,-3.1626,-3.175,-3.1896,-3.1942,-3.1807,-3.1002,-3.0459,-2.9849,-2.9141,-2.8538,-2.7921,-2.7083,-2.6336,-2.6047,-2.5769,-2.5558,-2.5523,-2.5908,-2.5978,-2.6198,-2.6452,-2.6336,-2.5921,-2.5676,-2.5442,-2.523,-2.4802,-2.4454,-2.4381,-2.4309,-2.4236,-2.4212,-2.4189,-2.4189,-2.4189,-2.4152,-2.408,-2.408,-2.408,-2.4007,-2.3897,-2.3897,-2.3897,-3.571,-3.571,-3.571,-3.571,-3.571,-3.571,-3.571,-3.571,-3.571,-3.571,-3.571,-3.571,-3.571,-3.5723,-3.5844,-3.6032,-3.6286,-3.6484,-3.6668,-3.6811,-3.6915,-3.6836,-3.6508,-3.6031,-3.5669,-3.5507,-3.5372,-3.4979,-3.4874,-3.5292,-3.6111,-3.6508,-3.6468,-3.6284,-3.6031,-3.5615,-3.4246,-3.275,-3.1759,-3.1316,-3.1226,-3.1442,-3.1736,-3.2092,-3.2538,-3.2753,-3.2895,-3.3037,-3.3157,-3.3192,-3.329,-3.3276,-3.3276,-3.3276,-3.3276,-3.3248,-3.2947,-3.2368,-3.1852,-3.1652,-3.1785,-3.1938,-3.2145,-3.2362,-3.2376,-3.2345,-3.2042,-3.1553,-3.1809,-3.1955,-3.2101,-3.2345,-3.2439,-3.2489,-3.2345,-3.2046,-3.1837,-3.1087,-3.0392,-2.978,-2.9238,-2.875,-2.8311,-2.7795,-2.7185,-2.6871,-2.6586,-2.6324,-2.6358,-2.6611,-2.6577,-2.6393,-2.6679,-2.6829,-2.6302,-2.5886,-2.5618,-2.5336,-2.4802,-2.4526,-2.4418,-2.4345,-2.4273,-2.4189,-2.4189,-2.4189,-2.4189,-2.4189,-2.4116,-2.4116,-2.4091,-2.4043,-2.4007,-2.4043,-2.4007,-3.5723,-3.5804,-3.5723,-3.571,-3.571,-3.571,-3.571,-3.571,-3.571,-3.571,-3.5669,-3.5574,-3.5547,-3.5762,-3.5842,-3.596,-3.6391,-3.6589,-3.6772,-3.6875,-3.6954,-3.6875,-3.6508,-3.6151,-3.5965,-3.6005,-3.5884,-3.5736,-3.579,-3.6017,-3.6468,-3.6758,-3.6547,-3.635,-3.6137,-3.5802,-3.4847,-3.3158,-3.1676,-3.1338,-3.1663,-3.2114,-3.2295,-3.261,-3.2909,-3.3241,-3.3122,-3.3206,-3.3276,-3.3136,-3.31,-3.3086,-3.3086,-3.3086,-3.3171,-3.3241,-3.3157,-3.3003,-3.2632,-3.2451,-3.243,-3.2486,-3.2583,-3.2769,-3.2547,-3.2525,-3.2525,-3.2114,-3.2367,-3.2596,-3.2704,-3.3016,-3.2945,-3.286,-3.2797,-3.2378,-3.1885,-3.126,-3.0814,-3.0473,-2.9916,-2.9279,-2.8864,-2.8538,-2.814,-2.7762,-2.7456,-2.7074,-2.7121,-2.7235,-2.7188,-2.7007,-2.7175,-2.7255,-2.6667,-2.622,-2.5921,-2.5477,-2.4921,-2.4598,-2.449,-2.4381,-2.4298,-2.4261,-2.4225,-2.4189,-2.4189,-2.4189,-2.4189,-2.4164,-2.4164,-2.4164,-2.4152,-2.4164,-2.4091,-3.5858,-3.6032,-3.5804,-3.571,-3.571,-3.571,-3.571,-3.571,-3.571,-3.571,-3.5696,-3.5262,-3.5477,-3.5813,-3.5742,-3.5886,-3.6431,-3.6603,-3.6747,-3.6811,-3.6836,-3.6705,-3.6429,-3.623,-3.6085,-3.6085,-3.6165,-3.6429,-3.6665,-3.6626,-3.6508,-3.6191,-3.6626,-3.6822,-3.6615,-3.6039,-3.5391,-3.3848,-3.234,-3.1813,-3.2151,-3.2489,-3.2682,-3.3051,-3.3241,-3.3276,-3.3276,-3.3241,-3.3122,-3.286,-3.281,-3.281,-3.2846,-3.2895,-3.3051,-3.3241,-3.3276,-3.3192,-3.3094,-3.3066,-3.3164,-3.3206,-3.3164,-3.3122,-3.3016,-3.3136,-3.3122,-3.2966,-3.3016,-3.3051,-3.3136,-3.3241,-3.3136,-3.2931,-3.281,-3.2563,-3.2083,-3.1586,-3.1216,-3.1078,-3.0568,-2.9849,-2.9442,-2.9093,-2.8517,-2.8132,-2.7776,-2.7397,-2.7577,-2.7723,-2.7802,-2.7789,-2.7855,-2.7689,-2.704,-2.6564,-2.6047,-2.5583,-2.5064,-2.4742,-2.4538,-2.4454,-2.4381,-2.4298,-2.4261,-2.4225,-2.4236,-2.4273,-2.4309,-2.4236,-2.4189,-2.4189,-2.4152,-2.4152,-2.4043,-3.5898,-3.5858,-3.5723,-3.571,-3.571,-3.571,-3.571,-3.571,-3.571,-3.5804,-3.5924,-3.572,-3.5853,-3.6094,-3.6265,-3.6274,-3.6589,-3.6797,-3.6836,-3.6875,-3.69,-3.6822,-3.6626,-3.6587,-3.664,-3.6601,-3.6626,-3.6665,-3.69,-3.6978,-3.69,-3.6783,-3.6861,-3.6659,-3.642,-3.5669,-3.4909,-3.4576,-3.3189,-3.2395,-3.2824,-3.2945,-3.3051,-3.3241,-3.3276,-3.3276,-3.3241,-3.3051,-3.286,-3.2739,-3.269,-3.269,-3.2725,-3.2895,-3.3086,-3.3276,-3.3276,-3.3276,-3.3276,-3.3276,-3.3276,-3.3276,-3.3276,-3.3276,-3.3276,-3.3276,-3.3276,-3.3276,-3.3276,-3.3276,-3.3157,-3.3192,-3.3171,-3.2895,-3.2704,-3.261,-3.2302,-3.1804,-3.152,-3.139,-3.088,-3.0242,-2.9944,-2.9686,-2.9038,-2.8468,-2.8092,-2.7861,-2.7973,-2.8072,-2.8118,-2.8066,-2.8066,-2.7769,-2.7154,-2.6633,-2.6151,-2.5641,-2.5171,-2.4921,-2.4634,-2.4526,-2.4454,-2.4381,-2.4381,-2.4418,-2.4454,-2.4418,-2.4381,-2.4309,-2.4236,-2.4189,-2.4152,-2.4116,-2.4043,-3.5938,-3.5884,-3.5844,-3.5764,-3.571,-3.571,-3.571,-3.571,-3.5804,-3.5938,-3.6178,-3.6041,-3.6174,-3.6387,-3.6378,-3.6579,-3.6741,-3.6915,-3.6954,-3.6978,-3.6978,-3.6978,-3.6978,-3.694,-3.6915,-3.6978,-3.6978,-3.6978,-3.6978,-3.6978,-3.694,-3.694,-3.6964,-3.675,-3.6185,-3.4896,-3.4279,-3.4315,-3.367,-3.2838,-3.3241,-3.3276,-3.3241,-3.3276,-3.3276,-3.3276,-3.3206,-3.298,-3.2761,-3.2668,-3.2596,-3.2596,-3.2739,-3.2931,-3.3171,-3.3241,-3.3276,-3.3276,-3.3276,-3.3276,-3.3276,-3.3276,-3.3276,-3.3276,-3.3276,-3.3276,-3.3276,-3.3276,-3.3276,-3.3241,-3.3108,-3.3241,-3.3157,-3.2917,-3.2917,-3.281,-3.2456,-3.2044,-3.1877,-3.1697,-3.1145,-3.0622,-2.9998,-2.9659,-2.9056,-2.8571,-2.8419,-2.8203,-2.8268,-2.8314,-2.8281,-2.8183,-2.802,-2.7623,-2.7201,-2.6577,-2.599,-2.5629,-2.5182,-2.5004,-2.4802,-2.4658,-2.4598,-2.4562,-2.461,-2.4693,-2.4634,-2.4575,-2.4478,-2.4345,-2.4273,-2.4189,-2.4189,-2.4152,-2.4116,-3.5978,-3.6365,-3.6152,-3.5938,-3.575,-3.571,-3.5723,-3.5804,-3.5978,-3.6206,-3.6322,-3.5919,-3.6039,-3.6459,-3.6286,-3.6487,-3.6844,-3.6993,-3.6978,-3.6978,-3.6978,-3.6978,-3.6978,-3.6978,-3.6978,-3.6978,-3.6978,-3.6978,-3.6978,-3.6978,-3.6978,-3.6922,-3.688,-3.6849,-3.6782,-3.57,-3.4857,-3.4231,-3.3578,-3.3311,-3.3276,-3.3276,-3.3276,-3.3206,-3.3276,-3.3276,-3.3086,-3.2895,-3.269,-3.2654,-3.2453,-3.2453,-3.2704,-3.2789,-3.3016,-3.3276,-3.3276,-3.3276,-3.3276,-3.3276,-3.3276,-3.3276,-3.3276,-3.3276,-3.3276,-3.3276,-3.3276,-3.3276,-3.3276,-3.3276,-3.3276,-3.3276,-3.3157,-3.2898,-3.2835,-3.2611,-3.2233,-3.191,-3.1613,-3.1398,-3.1295,-3.0975,-3.0201,-2.9523,-2.8953,-2.8627,-2.86,-2.8587,-2.8554,-2.8379,-2.8249,-2.8052,-2.7822,-2.731,-2.685,-2.6349,-2.5863,-2.55,-2.5241,-2.5076,-2.5004,-2.4909,-2.4849,-2.479,-2.4577,-2.4424,-2.4554,-2.4683,-2.4294,-2.3883,-2.4192,-2.4189,-2.4189,-2.4189,-2.4152,-3.6377,-3.6405,-3.6325,-3.6246,-3.6178,-3.6178,-3.6138,-3.6192,-3.6272,-3.6391,-3.6522,-3.6339,-3.6496,-3.671,-3.6707,-3.6729,-3.6922,-3.6978,-3.6978,-3.6978,-3.6978,-3.6978,-3.6978,-3.6978,-3.6978,-3.6978,-3.6978,-3.6978,-3.6978,-3.6978,-3.6978,-3.6936,-3.6613,-3.6427,-3.6037,-3.5236,-3.4343,-3.4119,-3.3641,-3.3276,-3.3276,-3.3276,-3.3206,-3.3002,-3.3206,-3.3206,-3.3016,-3.281,-3.2725,-3.2725,-3.2489,-3.2561,-3.2789,-3.286,-3.3136,-3.3276,-3.3276,-3.3276,-3.3276,-3.3276,-3.3276,-3.3276,-3.3276,-3.3276,-3.3276,-3.3276,-3.3276,-3.3276,-3.3276,-3.3241,-3.3143,-3.3241,-3.3073,-3.2493,-3.2243,-3.1909,-3.1571,-3.1289,-3.1014,-3.08,-3.0676,-3.0364,-2.9754,-2.9414,-2.8899,-2.8627,-2.86,-2.8587,-2.8587,-2.8183,-2.7954,-2.7789,-2.751,-2.6973,-2.6508,-2.6107,-2.5758,-2.543,-2.5276,-2.5218,-2.5111,-2.5052,-2.4921,-2.479,-2.4425,-2.4097,-2.4155,-2.4108,-2.3607,-2.3364,-2.3697,-2.3948,-2.3971,-2.4051,-2.4189,-3.6563,-3.651,-3.651,-3.6563,-3.6589,-3.647,-3.6431,-3.6484,-3.6524,-3.6628,-3.6772,-3.6825,-3.685,-3.694,-3.6978,-3.6978,-3.6978,-3.6978,-3.6978,-3.6978,-3.6978,-3.6978,-3.6978,-3.6978,-3.6978,-3.6978,-3.6978,-3.6978,-3.6978,-3.6978,-3.6838,-3.6571,-3.6248,-3.5826,-3.5363,-3.4582,-3.409,-3.3838,-3.3403,-3.3276,-3.3326,-3.3326,-3.3297,-3.3192,-3.3241,-3.3312,-3.3051,-3.286,-3.2775,-3.2824,-3.2824,-3.2789,-3.2945,-3.3136,-3.3276,-3.3276,-3.3276,-3.3276,-3.3276,-3.3276,-3.3276,-3.3276,-3.3276,-3.3276,-3.3276,-3.3276,-3.3276,-3.3276,-3.3276,-3.3227,-3.3143,-3.3276,-3.3024,-3.2458,-3.2215,-3.1909,-3.1364,-3.111,-3.0747,-3.0528,-3.0066,-2.9699,-2.9393,-2.9184,-2.8872,-2.8722,-2.8587,-2.8587,-2.8522,-2.8085,-2.7709,-2.7543,-2.7209,-2.6633,-2.6255,-2.5943,-2.5629,-2.5347,-2.5276,-2.5253,-2.5147,-2.5052,-2.4921,-2.4755,-2.4343,-2.3968,-2.3663,-2.3418,-2.3118,-2.304,-2.326,-2.3478,-2.3696,-2.3752,-2.3821,-3.6524,-3.6682,-3.6707,-3.6811,-3.6915,-3.6628,-3.6563,-3.6707,-3.6707,-3.6811,-3.6978,-3.6993,-3.6993,-3.6978,-3.6978,-3.6978,-3.6978,-3.6978,-3.6978,-3.6978,-3.6978,-3.6978,-3.6978,-3.6978,-3.6978,-3.6978,-3.6978,-3.6978,-3.6978,-3.681,-3.6581,-3.623,-3.5855,-3.5293,-3.4624,-3.4175,-3.3824,-3.3501,-3.3361,-3.3276,-3.3326,-3.3431,-3.3382,-3.3347,-3.3382,-3.3396,-3.3192,-3.3037,-3.3002,-3.3016,-3.298,-3.3065,-3.3171,-3.3276,-3.3276,-3.3276,-3.3276,-3.3276,-3.3262,-3.3262,-3.3262,-3.3234,-3.3178,-3.3234,-3.3276,-3.3276,-3.3276,-3.3276,-3.3276,-3.3276,-3.3276,-3.3262,-3.322,-3.2947,-3.2772,-3.2257,-3.1564,-3.1131,-3.076,-3.0297,-2.9733,-2.9279,-2.8926,-2.8722,-2.8804,-2.8709,-2.8554,-2.8457,-2.8295,-2.7888,-2.7543,-2.741,-2.696,-2.6289,-2.5943,-2.5699,-2.5558,-2.5312,-2.5312,-2.5276,-2.5182,-2.5087,-2.4992,-2.4767,-2.4295,-2.3779,-2.3053,-2.2823,-2.2781,-2.2773,-2.2603,-2.2914,-2.3075,-2.3052,-2.311,-3.6889,-3.6929,-3.6929,-3.6954,-3.6978,-3.6875,-3.6836,-3.6915,-3.6915,-3.6954,-3.6978,-3.6978,-3.6978,-3.6978,-3.6978,-3.6978,-3.6978,-3.6978,-3.6978,-3.6978,-3.6978,-3.6978,-3.6978,-3.6978,-3.6978,-3.6978,-3.6978,-3.6978,-3.6866,-3.6655,-3.6346,-3.6089,-3.5278,-3.4596,-3.4175,-3.3768,-3.3515,-3.3347,-3.329,-3.3276,-3.3312,-3.3396,-3.3312,-3.3227,-3.3382,-3.3347,-3.3122,-3.3157,-3.3206,-3.3206,-3.3206,-3.3241,-3.3241,-3.3276,-3.3276,-3.3276,-3.3276,-3.3276,-3.3206,-3.2904,-3.2848,-3.3066,-3.2974,-3.3002,-3.3108,-3.3276,-3.3276,-3.3276,-3.3276,-3.3276,-3.3276,-3.3262,-3.3115,-3.2905,-3.2584,-3.1903,-3.122,-3.0569,-3.0154,-2.9644,-2.9062,-2.8994,-2.8627,-2.8614,-2.8682,-2.8627,-2.8522,-2.836,-2.8085,-2.7643,-2.7276,-2.7095,-2.6552,-2.5873,-2.5664,-2.5418,-2.5382,-2.5312,-2.5347,-2.5347,-2.5253,-2.5147,-2.5087,-2.4684,-2.4024,-2.3053,-2.2043,-2.199,-2.2211,-2.1848,-2.1717,-2.2098,-2.242,-2.2443,-2.2524,-3.6978,-3.6978,-3.6978,-3.6978,-3.6978,-3.6978,-3.6978,-3.6978,-3.6978,-3.6978,-3.6978,-3.6978,-3.6978,-3.6978,-3.6978,-3.6978,-3.6978,-3.6978,-3.6978,-3.6978,-3.6978,-3.6978,-3.6978,-3.6978,-3.6978,-3.6978,-3.6978,-3.6978,-3.6796,-3.6385,-3.6005,-3.5222,-3.4427,-3.4133,-3.3796,-3.3501,-3.3361,-3.329,-3.3276,-3.3276,-3.3312,-3.3347,-3.3227,-3.3157,-3.3382,-3.3262,-3.3122,-3.3361,-3.3361,-3.3326,-3.3276,-3.3276,-3.3276,-3.3276,-3.3361,-3.3396,-3.3312,-3.3213,-3.303,-3.2946,-3.289,-3.289,-3.2834,-3.3024,-3.3122,-3.3276,-3.3276,-3.3276,-3.3276,-3.3276,-3.3276,-3.3248,-3.2968,-3.2688,-3.2021,-3.1371,-3.0637,-2.9894,-2.9331,-2.8836,-2.8641,-2.8641,-2.8587,-2.8587,-2.8554,-2.8522,-2.836,-2.8085,-2.7809,-2.7443,-2.7007,-2.6667,-2.607,-2.5382,-2.5312,-2.5347,-2.5382,-2.5488,-2.5699,-2.5629,-2.5418,-2.5228,-2.5131,-2.4503,-2.3682,-2.2747,-2.1853,-2.1559,-2.1562,-2.1305,-2.1221,-2.1546,-2.1834,-2.1834,-2.2006,-3.6978,-3.6978,-3.6978,-3.6978,-3.6978,-3.6978,-3.7031,-3.7031,-3.7017,-3.7017,-3.6978,-3.6978,-3.7017,-3.7056,-3.707,-3.7109,-3.7109,-3.7095,-3.7056,-3.7017,-3.6978,-3.6978,-3.6978,-3.6978,-3.6978,-3.6978,-3.695,-3.6894,-3.6669,-3.6051,-3.5124,-3.4231,-3.409,-3.3838,-3.3459,-3.3361,-3.3276,-3.3276,-3.3276,-3.3276,-3.3361,-3.3466,-3.3605,-3.3605,-3.3675,-3.3724,-3.3619,-3.355,-3.3515,-3.3361,-3.3276,-3.3276,-3.3276,-3.3276,-3.3396,-3.3346,-3.322,-3.2987,-3.2811,-3.2686,-3.2651,-3.2736,-3.289,-3.3066,-3.3178,-3.3066,-3.3045,-3.3164,-3.3178,-3.3192,-3.3206,-3.3024,-3.2744,-3.2402,-3.1882,-3.1103,-3.0309,-2.9629,-2.9054,-2.8687,-2.8651,-2.8651,-2.8554,-2.8554,-2.8314,-2.836,-2.8118,-2.7776,-2.741,-2.7061,-2.6756,-2.6324,-2.5804,-2.5347,-2.5382,-2.5418,-2.5488,-2.5629,-2.5908,-2.5908,-2.5676,-2.5423,-2.5146,-2.4342,-2.3491,-2.2763,-2.2031,-2.1689,-2.1388,-2.1356,-2.1273,-2.1233,-2.1282,-2.1385,-2.15,-3.6978,-3.6978,-3.6978,-3.6978,-3.6978,-3.6978,-3.7095,-3.7226,-3.7226,-3.7134,-3.7017,-3.7031,-3.7095,-3.7226,-3.7226,-3.7264,-3.7394,-3.7264,-3.7226,-3.7187,-3.7095,-3.7017,-3.6978,-3.7017,-3.6964,-3.6978,-3.6922,-3.6638,-3.6079,-3.5293,-3.4596,-3.4161,-3.3852,-3.3445,-3.3319,-3.3276,-3.3276,-3.3276,-3.3312,-3.3312,-3.3361,-3.3501,-3.3605,-3.3605,-3.3689,-3.3689,-3.357,-3.3466,-3.3396,-3.3276,-3.3276,-3.3276,-3.3276,-3.3312,-3.3312,-3.329,-3.3002,-3.2678,-3.2452,-3.2354,-3.223,-3.2412,-3.2623,-3.2918,-3.2988,-3.2778,-3.275,-3.296,-3.3052,-3.3066,-3.2968,-3.2743,-3.2478,-3.2103,-3.1687,-3.0827,-2.9988,-2.9411,-2.8836,-2.876,-2.8743,-2.8651,-2.8554,-2.8392,-2.8137,-2.7875,-2.7564,-2.7229,-2.6824,-2.6496,-2.6449,-2.6047,-2.5734,-2.5418,-2.5453,-2.5546,-2.5664,-2.5921,-2.6233,-2.6129,-2.5955,-2.5542,-2.5092,-2.4152,-2.3297,-2.2719,-2.2185,-2.1654,-2.1431,-2.14,-2.1305,-2.1233,-2.1201,-2.1282,-2.1293,-3.6978,-3.6978,-3.6978,-3.6978,-3.6978,-3.6978,-3.7095,-3.7264,-3.7303,-3.7303,-3.7264,-3.7264,-3.7341,-3.7419,-3.7419,-3.7429,-3.7558,-3.7495,-3.7457,-3.738,-3.7165,-3.7187,-3.7095,-3.6972,-3.6827,-3.6785,-3.6362,-3.5911,-3.5316,-3.4773,-3.4175,-3.3824,-3.3403,-3.3276,-3.3276,-3.3276,-3.3276,-3.3276,-3.3361,-3.3431,-3.3431,-3.3536,-3.3675,-3.3689,-3.3758,-3.3709,-3.3675,-3.357,-3.3466,-3.3431,-3.3431,-3.3536,-3.357,-3.3605,-3.357,-3.3401,-3.3012,-3.2388,-3.2148,-3.1968,-3.1864,-3.2103,-3.2693,-3.3108,-3.3066,-3.289,-3.2553,-3.2707,-3.2693,-3.2707,-3.2314,-3.1999,-3.1971,-3.1716,-3.1107,-3.0339,-2.9621,-2.8983,-2.8733,-2.877,-2.8748,-2.8683,-2.8619,-2.8587,-2.8281,-2.7809,-2.743,-2.6926,-2.6461,-2.6117,-2.6013,-2.6013,-2.5804,-2.5734,-2.5838,-2.5873,-2.5873,-2.6198,-2.6508,-2.6543,-2.6427,-2.5697,-2.4977,-2.4154,-2.3454,-2.2944,-2.2388,-2.1808,-2.1506,-2.1431,-2.1316,-2.1201,-2.1233,-2.1265,-2.1256,-3.6712,-3.6754,-3.6764,-3.6778,-3.6806,-3.6916,-3.7084,-3.7266,-3.7337,-3.7495,-3.7606,-3.7587,-3.7577,-3.7649,-3.7534,-3.7534,-3.742,-3.7134,-3.7263,-3.7187,-3.7035,-3.6803,-3.6755,-3.6805,-3.6557,-3.6132,-3.5679,-3.5102,-3.4522,-3.4084,-3.3726,-3.3361,-3.3276,-3.3276,-3.3276,-3.3276,-3.3276,-3.3347,-3.3431,-3.357,-3.364,-3.364,-3.3779,-3.3882,-3.3917,-3.3917,-3.3848,-3.3779,-3.3675,-3.364,-3.364,-3.3709,-3.3744,-3.3744,-3.3587,-3.3382,-3.2721,-3.2159,-3.1891,-3.1974,-3.1884,-3.2061,-3.2848,-3.3164,-3.3108,-3.2974,-3.2637,-3.23,-3.2286,-3.2174,-3.178,-3.1387,-3.134,-3.1128,-3.0448,-2.9887,-2.9256,-2.8697,-2.8729,-2.8748,-2.8748,-2.8683,-2.8651,-2.8619,-2.8281,-2.7809,-2.731,-2.6769,-2.6324,-2.6082,-2.5873,-2.6104,-2.6242,-2.622,-2.6082,-2.6289,-2.6324,-2.6427,-2.6701,-2.6905,-2.6871,-2.6161,-2.5335,-2.4302,-2.3667,-2.3215,-2.2607,-2.1989,-2.1714,-2.1588,-2.1702,-2.1714,-2.1463,-2.1463,-2.1316,-3.5541,-3.5541,-3.5667,-3.5704,-3.5826,-3.6452,-3.6868,-3.7118,-3.7548,-3.7891,-3.7812,-3.756,-3.7523,-3.781,-3.7293,-3.7143,-3.7131,-3.6806,-3.6439,-3.6251,-3.6339,-3.6165,-3.6086,-3.6191,-3.5972,-3.5579,-3.5123,-3.4632,-3.4171,-3.374,-3.3431,-3.329,-3.3276,-3.3276,-3.3276,-3.3276,-3.3312,-3.3361,-3.3501,-3.3689,-3.3848,-3.3917,-3.4005,-3.4074,-3.4059,-3.4059,-3.4025,-3.3902,-3.3848,-3.3848,-3.3799,-3.3833,-3.3748,-3.3656,-3.3437,-3.2885,-3.2192,-3.1787,-3.1551,-3.1574,-3.1499,-3.2075,-3.275,-3.3122,-3.3108,-3.3108,-3.2623,-3.1808,-3.1766,-3.1864,-3.1513,-3.0891,-3.0648,-3.0202,-2.9647,-2.9329,-2.8848,-2.8697,-2.8619,-2.8683,-2.8716,-2.8683,-2.8651,-2.849,-2.8183,-2.7709,-2.7209,-2.6701,-2.6427,-2.6117,-2.5838,-2.6208,-2.662,-2.6104,-2.5687,-2.6654,-2.6871,-2.6905,-2.6905,-2.704,-2.6973,-2.6667,-2.5763,-2.4642,-2.4008,-2.3611,-2.2923,-2.2224,-2.2183,-2.2118,-2.231,-2.2298,-2.197,-2.1733,-2.1639]},{"header":{"parameterUnit":"m.s-1","parameterCategory":1,"la1":31.0,"la2":29.5877,"lo1":-88.7671,"lo2":-86.6584,"dy":0.0162,"dx":0.0185,"nx":115,"ny":88,"refTime":"2024-07-04T06:00:00:Z","depth":0,"parameterNumber":3,"parameterNumberName":"V-component_of_WINDS"},"data":[0.0,0.0,0.0,0.0,0.0,0.0,0.0,0.0,0.0,0.0,0.0,0.0,0.0,0.0,0.0,0.0,0.0,0.0,0.0,0.0,0.0,0.0,0.0,0.0,0.0,0.0,0.0,0.0,0.0,0.0,0.0,0.0,0.0,0.0,0.0,0.0,0.0,0.0,0.0,0.0,0.0,0.0,0.0,0.0,0.0,0.0,0.0,0.0,0.0,0.0,0.0,0.0,0.0,0.0,0.0,0.0,0.0,0.0,0.0,0.0,0.0,0.0,0.0,0.0,0.0,0.0,0.0,0.0,0.0,0.0,0.0,0.0,0.0,0.0,0.0,0.0,0.0,0.0,0.0,0.0,0.0,0.0,0.0,0.0,0.0,0.0,0.0,0.0,0.0,0.0,0.0,0.0,0.0,0.0,0.0,0.0,0.0,0.0,0.0,0.0,0.0,0.0,0.0,0.0,0.0,0.0,0.0,0.0,0.0,0.0,0.0,0.0,0.0,0.0,0.0,0.0,0.0,0.0,0.0,0.0,0.0,0.0,0.0,0.0,0.0,0.0,0.0,0.0,0.0,0.0,0.0,0.0,0.0,0.0,0.0,0.0,0.0,0.0,0.0,0.0,0.0,0.0,0.0,0.0,0.0,0.0,0.0,0.0,0.0,0.0,0.0,0.0,0.0,0.0,0.0,0.0,0.0,0.0,0.0,0.0,0.0,0.0,0.0,0.0,0.0,0.0,0.0,0.0,0.0,0.0,0.0,0.0,0.0,0.0,0.0,0.0,0.0,0.0,0.0,0.0,0.0,0.0,0.0,0.0,0.0,0.0,0.0,0.0,0.0,0.0,0.0,0.0,0.0,0.0,0.0,0.0,0.0,0.0,0.0,0.0,0.0,0.0,0.0,0.0,0.0,0.0,0.0,0.0,0.0,0.0,0.0,0.0,0.0,0.0,0.0,0.0,0.0,0.0,0.0,0.0,0.0,0.0,0.0,0.0,0.0,0.0,0.0,0.0,0.0,0.0,0.0,0.0,0.0,0.0,0.0,0.0,0.0,0.0,0.0,0.0,0.0,0.0,0.0,0.0,0.0,0.0,0.0,0.0,0.0,0.0,0.0,0.0,0.0,0.0,0.0,0.0,0.0,0.0,0.0,0.0,0.0,0.0,0.0,0.0,0.0,0.0,0.0,0.0,0.0,0.0,0.0,0.0,0.0,0.0,0.0,0.0,0.0,0.0,0.0,0.0,0.0,0.0,0.0,0.0,0.0,0.0,0.0,0.0,0.0,0.0,0.0,0.0,0.0,0.0,0.0,0.0,0.0,0.0,0.0,0.0,0.0,0.0,0.0,0.0,0.0,0.0,0.0,0.0,0.0,0.0,0.0,0.0,0.0,0.0,0.0,0.0,0.0,0.0,0.0,0.0,0.0,0.0,0.0,0.0,0.0,0.0,0.0,0.0,0.0,0.0,0.0,0.0,0.0,0.0,0.0,0.0,0.0,0.0,0.0,0.0,0.0,0.0,0.0,0.0,0.0,0.0,0.0,0.0,0.0,0.0,0.0,0.0,0.0,0.0,0.0,0.0,0.0,0.0,0.0,0.0,0.0,0.0,0.0,0.0,0.0,0.0,0.0,0.0,0.0,0.0,0.0,0.0,0.0,0.0,0.0,0.0,0.0,0.0,0.0,0.0,0.0,0.0,0.0,0.0,0.0,0.0,0.0,0.0,0.0,0.0,0.0,0.0,0.0,0.0,0.0,0.0,0.0,0.0,0.0,0.0,0.0,0.0,0.0,0.0,0.0,0.0,0.0,0.0,0.0,0.0,0.0,0.0,0.0,0.0,0.0,0.0,0.0,0.0,0.0,0.0,0.0,0.0,0.0,0.0,0.0,0.0,0.0,0.0,0.0,0.0,0.0,0.0,0.0,0.0,0.0,0.0,0.0,0.0,0.0,0.0,0.0,0.0,0.0,0.0,0.0,0.0,0.0,0.0,0.0,0.0,0.0,0.0,0.0,0.0,0.0,0.0,0.0,0.0,0.0,0.0,0.0,0.0,0.0,0.0,0.0,0.0,0.0,0.0,0.0,0.0,0.0,0.0,0.0,0.0,0.0,0.0,0.0,0.0,0.0,0.0,0.0,0.0,0.0,0.0,0.0,0.0,0.0,0.0,0.0,0.0,0.0,0.0,0.0,0.0,0.0,0.0,0.0,0.0,0.0,0.0,0.0,0.0,0.0,0.0,0.0,0.0,0.0,0.0,0.0,0.0,0.0,0.0,0.0,0.0,0.0,0.0,0.0,0.0,0.0,0.0,0.0,0.0,0.0,0.0,0.0,0.0,0.0,0.0,0.0,0.0,0.0,0.0,0.0,0.0,0.0,0.0,0.0,0.0,0.0,0.0,0.0,0.0,0.0,0.0,0.0,0.0,0.0,0.0,0.0,0.0,0.0,0.0,0.0,0.0,0.0,0.0,0.0,0.0,0.0,0.0,0.0,0.0,0.0,0.0,0.0,0.0,0.0,0.0,0.0,0.0,0.0,0.0,0.0,0.0,0.0,0.0,0.0,0.0,0.0,0.0,0.0,0.0,0.0,0.0,0.0,0.0,0.0,0.0,0.0,0.0,0.0,0.0,0.0,0.0,0.0,0.0,0.0,0.0,0.0,0.0,0.0,0.0,0.0,0.0,0.0,0.0,0.0,0.0,0.0,0.0,0.0,0.0,0.0,0.0,0.0,0.0,0.0,0.0,0.0,0.0,0.0,0.0,0.0,0.0,0.0,0.0,0.0,0.0,0.0,0.0,0.0,0.0,0.0,0.0,0.0,0.0,0.0,0.0,0.0,0.0,0.0,0.0,0.0,0.0,0.0,0.0,0.0,0.0,0.0,0.0,0.0,0.0,0.0,0.0,0.0,0.0,0.0,0.0,0.0,0.0,0.0,0.0,0.0,0.0,0.0,0.0,0.0,0.0,0.0,0.0,0.0,0.0,0.0,0.0,0.0,0.0,0.0,0.0,0.0,0.0,0.0,0.0,0.0,0.0,0.0,0.0,0.0,0.0,0.0,0.0,0.0,0.0,0.0,0.0,0.0,0.0,0.0,0.0,0.0,0.0,0.0,0.0,0.0,0.0,0.0,0.0,0.0,0.0,0.0,0.0,0.0,0.0,0.0,0.0,0.0,0.0,0.0,0.0,0.0,0.0,0.0,0.0,0.0,0.0,0.0,0.0,0.0,0.0,0.0,0.0,0.0,0.0,0.0,0.0,0.0,0.0,0.0,0.0,0.0,0.0,0.0,0.0,0.0,0.0,0.0,0.0,0.0,0.0,0.0,0.0,0.0,0.0,0.0,0.0,0.0,0.0,0.0,0.0,0.0,0.0,0.0,0.0,0.0,0.0,0.0,0.0,0.0,0.0,0.0,0.0,0.0,0.0,0.0,0.0,0.0,0.0,0.0,0.0,0.0,0.0,0.0,0.0,0.0,0.0,0.0,0.0,0.0,0.0,0.0,0.0,0.0,0.0,0.0,0.0,0.0,0.0,0.0,0.0,0.0,0.0,0.0,0.0,0.0,0.0,0.0,0.0,0.0,0.0,0.0,0.0,0.0,0.0,0.0,0.0,0.0,0.0,0.0,0.0,0.0,0.0,0.0,0.0,0.0,0.0,0.0,0.0,0.0,0.0,0.0,0.0,0.0,0.0,0.0,0.0,0.0,0.0,0.0,0.0,0.0,0.0,0.0,0.0,0.0,0.0,0.0,0.0,0.0,0.0,0.0,0.0,0.0,0.0,0.0,0.0,0.0,0.0,0.0,0.0,0.0,0.0,0.0,0.0,0.0,0.0,0.0,0.0,0.0,0.0,0.0,0.0,0.0,0.0,0.0,0.0,0.0,0.0,0.0,0.0,0.0,0.0,0.0,0.0,0.0,0.0,0.0,0.0,0.0,0.0,0.0,0.0,0.0,0.0,0.0,0.0,0.0,0.0,0.0,0.0,0.0,0.0,0.0,0.0,0.0,0.0,0.0,0.0,0.0,0.0,0.0,0.0,0.0,0.0,0.0,0.0,0.0,0.0,0.0,0.0,0.0,0.0,0.0,0.0,0.0,0.0,0.0,0.0,0.0,0.0,0.0,0.0,0.0,0.0,0.0,0.0,0.0,0.0,0.0,0.0,0.0,0.0,0.0,0.0,0.0,0.0,0.0,0.0,0.0,0.0,0.0,0.0,0.0,0.0,0.0,0.0,0.0,0.0,0.0,0.0,0.0,0.0,0.0,0.0,0.0,0.0,0.0,0.0,-0.5995,0.0,0.0,0.0,0.0,0.0,0.0,0.0,0.0,0.0,0.0,0.0,0.0,0.0,0.0,0.0,0.0,0.0,0.0,0.0,0.0,0.0,0.0,0.0,0.0,0.0,0.0,0.0,0.0,0.0,0.0,0.0,0.0,0.0,0.0,0.0,0.0,0.0,0.0,0.0,0.0,0.0,0.0,0.0,0.0,0.0,0.0,0.0,0.0,0.0,0.0,0.0,0.0,0.0,0.0,0.0,0.0,0.0,0.0,0.0,0.0,0.0,0.0,0.0,0.0,0.0,0.0,0.0,0.0,0.0,0.0,0.0,0.0,0.0,0.0,0.0,0.0,0.0,0.0,0.0,0.0,0.0,0.0,0.0,0.0,0.0,0.0,0.0,0.0,0.0,0.0,0.0,0.0,0.0,0.0,0.0,0.0,0.0,0.0,0.0,0.0,0.0,0.0,0.0,0.0,0.0,0.0,0.0,0.0,0.0,0.0,-0.7282,-0.6451,-0.7346,-0.7353,-0.6331,0.0,0.0,0.0,0.0,0.0,0.0,0.0,0.0,0.0,0.0,0.0,0.0,0.0,0.0,0.0,0.0,0.0,0.0,0.0,0.0,0.0,0.0,0.0,0.0,0.0,0.0,0.0,0.0,0.0,0.0,0.0,0.0,0.0,0.0,0.0,0.0,0.0,0.0,0.0,0.0,0.0,0.0,0.0,0.0,0.0,0.0,0.0,0.0,0.0,0.0,0.0,0.0,0.0,0.0,0.0,0.0,0.0,0.0,0.0,0.0,0.0,0.0,0.0,0.0,0.0,0.0,0.0,0.0,0.0,0.0,0.0,0.0,0.0,0.0,0.0,0.0,0.0,0.0,0.0,0.0,0.0,0.0,0.0,0.0,0.0,0.0,0.0,0.0,0.0,0.0,0.0,0.0,0.0,0.0,0.0,0.0,0.0,0.0,0.0,0.0,0.0,0.0,0.0,0.0,0.0,0.0,0.0,0.0,0.0,0.0,0.0,0.0,-0.7832,-0.7936,-0.7284,0.0,0.0,0.0,0.0,0.0,0.0,0.0,0.0,0.0,0.0,0.0,0.0,0.0,0.0,0.0,0.0,0.0,0.0,0.0,0.0,0.0,0.0,0.0,0.0,0.0,0.0,0.0,0.0,0.0,0.0,0.0,0.0,0.0,0.0,0.0,0.0,0.0,0.0,0.0,0.0,0.0,0.0,0.0,0.0,0.0,0.0,0.0,0.0,0.0,0.0,0.0,0.0,0.0,0.0,0.0,0.0,0.0,0.0,0.0,0.0,0.0,0.0,0.0,0.0,0.0,0.0,0.0,0.0,0.0,0.0,0.0,0.0,0.0,0.0,0.0,0.0,0.0,0.0,0.0,0.0,0.0,0.0,0.0,0.0,0.0,0.0,0.0,0.0,0.0,0.0,0.0,0.0,0.0,0.0,0.0,0.0,0.0,0.0,0.0,0.0,0.0,0.0,0.0,0.0,0.0,0.0,0.0,0.0,0.0,0.0,-0.7548,-0.8737,-0.9085,0.0,-0.9443,0.0,0.0,0.0,0.0,0.0,0.0,0.0,0.0,0.0,0.0,0.0,0.0,0.0,0.0,0.0,0.0,0.0,0.0,0.0,0.0,0.0,0.0,0.0,0.0,0.0,0.0,0.0,0.0,0.0,0.0,0.0,0.0,0.0,0.0,0.0,0.0,0.0,0.0,0.0,0.0,0.0,0.0,0.0,0.0,0.0,0.0,0.0,0.0,0.0,0.0,0.0,0.0,0.0,0.0,0.0,0.0,0.0,0.0,0.0,0.0,0.0,0.0,0.0,0.0,0.0,0.0,0.0,0.0,0.0,0.0,0.0,0.0,0.0,0.0,0.0,0.0,0.0,0.0,0.0,0.0,0.0,0.0,0.0,0.0,0.0,0.0,0.0,0.0,0.0,0.0,0.0,0.0,0.0,0.0,0.0,0.0,0.0,0.0,0.0,0.0,0.0,0.0,0.0,0.0,0.0,0.0,0.0,0.0,0.0,0.0,0.0,-0.9342,-0.946,-0.9418,0.0,0.0,0.0,0.0,0.0,0.0,0.0,0.0,0.0,0.0,0.0,0.0,0.0,0.0,0.0,0.0,0.0,0.0,0.0,0.0,0.0,0.0,0.0,0.0,0.0,0.0,0.0,0.0,0.0,0.0,0.0,0.0,0.0,0.0,0.0,0.0,0.0,0.0,0.0,0.0,0.0,0.0,0.0,0.0,0.0,0.0,0.0,0.0,0.0,0.0,0.0,0.0,0.0,0.0,0.0,0.0,0.0,0.0,0.0,0.0,0.0,0.0,0.0,0.0,0.0,0.0,0.0,0.0,0.0,0.0,0.0,0.0,0.0,0.0,0.0,0.0,0.0,0.0,0.0,0.0,0.0,0.0,0.0,0.0,0.0,0.0,0.0,0.0,0.0,0.0,0.0,0.0,0.0,0.0,0.0,0.0,0.0,0.0,0.0,0.0,0.0,0.0,0.0,0.0,0.0,0.0,0.0,0.0,0.0,0.0,-0.87,0.0,-1.0214,-0.9902,-0.9558,-0.9227,0.0,0.0,0.0,0.0,0.0,0.0,0.0,0.0,0.0,0.0,0.0,0.0,0.0,0.0,0.0,0.0,0.0,0.0,0.0,0.0,0.0,0.0,0.0,0.0,0.0,0.0,0.0,0.0,0.0,0.0,0.0,0.0,0.0,0.0,0.0,0.0,0.0,0.0,0.0,0.0,0.0,0.0,0.0,0.0,0.0,0.0,0.0,0.0,0.0,0.0,0.0,0.0,0.0,0.0,0.0,0.0,0.0,0.0,0.0,0.0,0.0,0.0,0.0,0.0,0.0,0.0,0.0,0.0,0.0,0.0,0.0,0.0,0.0,0.0,0.0,0.0,0.0,0.0,0.0,0.0,0.0,0.0,0.0,0.0,0.0,0.0,0.0,0.0,0.0,0.0,0.0,0.0,0.0,0.0,0.0,0.0,0.0,0.0,0.0,0.0,0.0,0.0,0.0,0.0,0.0,0.0,0.0,0.0,0.0,-1.0423,-1.0461,-1.1871,-1.068,-1.0051,0.0,0.0,0.0,0.0,0.0,0.0,0.0,0.0,0.0,0.0,0.0,0.0,0.0,0.0,0.0,0.0,0.0,0.0,0.0,0.0,0.0,0.0,0.0,0.0,0.0,0.0,0.0,0.0,0.0,0.0,0.0,0.0,0.0,0.0,0.0,0.0,0.0,0.0,0.0,0.0,0.0,0.0,0.0,0.0,0.0,0.0,0.0,0.0,0.0,0.0,0.0,0.0,0.0,0.0,0.0,0.0,0.0,0.0,0.0,0.0,0.0,0.0,0.0,0.0,0.0,0.0,0.0,0.0,0.0,0.0,0.0,0.0,0.0,0.0,0.0,0.0,0.0,0.0,0.0,0.0,0.0,0.0,0.0,0.0,0.0,0.0,0.0,0.0,0.0,0.0,0.0,0.0,0.0,0.0,0.0,0.0,0.0,0.0,0.0,0.0,0.0,0.0,0.0,0.0,0.0,0.0,0.0,0.0,0.0,-0.9293,-1.0209,-1.1239,0.0,-1.1358,-1.0898,0.0,0.0,0.0,0.0,0.0,0.0,0.0,0.0,0.0,0.0,0.0,0.0,0.0,0.0,0.0,0.0,0.0,0.0,0.0,0.0,0.0,0.0,0.0,0.0,0.0,0.0,0.0,0.0,0.0,0.0,0.0,0.0,0.0,0.0,0.0,0.0,0.0,0.0,0.0,0.0,0.0,0.0,0.0,0.0,0.0,0.0,0.0,0.0,0.0,0.0,0.0,0.0,0.0,0.0,0.0,0.0,0.0,0.0,0.0,0.0,0.0,0.0,0.0,0.0,0.0,0.0,0.0,0.0,0.0,0.0,0.0,0.0,0.0,0.0,0.0,0.0,0.0,0.0,0.0,0.0,0.0,0.0,0.0,0.0,0.0,0.0,0.0,0.0,0.0,0.0,0.0,0.0,0.0,0.0,0.0,0.0,0.0,0.0,0.0,0.0,0.0,0.0,0.0,0.0,0.0,0.0,0.0,0.0,0.0,-0.964,0.0,-1.3114,0.0,-1.2265,-1.1462,0.0,0.0,0.0,0.0,0.0,0.0,0.0,0.0,0.0,0.0,0.0,0.0,0.0,0.0,0.0,0.0,0.0,0.0,0.0,0.0,0.0,0.0,0.0,0.0,0.0,0.0,0.0,0.0,0.0,0.0,0.0,0.0,0.0,0.0,0.0,0.0,0.0,0.0,0.0,0.0,0.0,0.0,0.0,0.0,0.0,0.0,0.0,0.0,0.0,0.0,0.0,0.0,0.0,0.0,0.0,0.0,0.0,0.0,0.0,0.0,0.0,0.0,0.0,0.0,0.0,0.0,0.0,0.0,0.0,0.0,0.0,0.0,0.0,0.0,0.0,0.0,0.0,0.0,0.0,0.0,0.0,0.0,0.0,0.0,0.0,0.0,0.0,0.0,0.0,0.0,0.0,0.0,0.0,0.0,0.0,0.0,0.0,0.0,0.0,0.0,0.0,0.0,0.0,0.0,0.0,0.0,0.0,0.0,-0.9842,-1.3213,-1.5345,-1.6022,-1.5408,-1.3383,-1.1702,0.0,0.0,0.0,0.0,0.0,0.0,0.0,0.0,0.0,0.0,0.0,0.0,0.0,0.0,0.0,0.0,0.0,0.0,0.0,0.0,0.0,0.0,0.0,0.0,0.0,0.0,0.0,0.0,0.0,0.0,0.0,0.0,0.0,0.0,0.0,0.0,0.0,0.0,0.0,0.0,0.0,0.0,0.0,0.0,0.0,0.0,0.0,0.0,0.0,0.0,0.0,0.0,0.0,0.0,0.0,0.0,0.0,0.0,0.0,0.0,0.0,0.0,0.0,0.0,0.0,0.0,0.0,0.0,0.0,0.0,0.0,0.0,0.0,0.0,0.0,0.0,0.0,0.0,0.0,0.0,0.0,0.0,0.0,0.0,0.0,0.0,0.0,0.0,0.0,0.0,0.0,0.0,0.0,0.0,0.0,0.0,0.0,0.0,0.0,0.0,0.0,0.0,0.0,0.0,0.0,0.0,0.0,0.0,0.0,-1.276,-1.4845,-1.6294,-1.6856,-1.4027,-1.2751,0.0,0.0,0.0,0.0,0.0,0.0,0.0,0.0,0.0,0.0,0.0,0.0,0.0,0.0,0.0,0.0,0.0,0.0,0.0,0.0,0.0,0.0,0.0,0.0,0.0,0.0,0.0,0.0,0.0,0.0,0.0,0.0,0.0,0.0,0.0,0.0,0.0,0.0,0.0,0.0,0.0,0.0,0.0,0.0,0.0,0.0,0.0,0.0,0.0,0.0,0.0,0.0,0.0,0.0,0.0,0.0,0.0,0.0,0.0,0.0,0.0,0.0,0.0,0.0,0.0,0.0,0.0,0.0,0.0,0.0,0.0,0.0,0.0,0.0,0.0,0.0,0.0,0.0,0.0,0.0,0.0,0.0,0.0,0.0,0.0,0.0,0.0,0.0,0.0,0.0,0.0,0.0,0.0,0.0,0.0,0.0,0.0,0.0,0.0,0.0,0.0,0.0,0.0,0.0,0.0,0.0,0.0,0.0,0.0,-1.5395,-1.7298,-1.8532,-1.8881,-1.5791,-1.4295,-1.4671,0.0,0.0,0.0,0.0,0.0,0.0,0.0,0.0,0.0,0.0,0.0,0.0,0.0,0.0,0.0,0.0,0.0,0.0,0.0,0.0,0.0,0.0,0.0,0.0,0.0,0.0,0.0,0.0,0.0,0.0,0.0,0.0,0.0,0.0,0.0,0.0,0.0,0.0,0.0,0.0,0.0,0.0,0.0,0.0,0.0,0.0,0.0,0.0,0.0,0.0,0.0,0.0,0.0,0.0,0.0,0.0,0.0,0.0,0.0,0.0,0.0,0.0,0.0,0.0,0.0,0.0,0.0,0.0,0.0,0.0,0.0,0.0,0.0,0.0,0.0,0.0,0.0,0.0,0.0,0.0,0.0,0.0,0.0,0.0,0.0,0.0,0.0,0.0,0.0,0.0,0.0,0.0,0.0,0.0,0.0,0.0,0.0,0.0,0.0,0.0,0.0,0.0,0.0,0.0,0.0,0.0,0.0,0.0,-2.0187,-2.2069,-2.2394,-2.105,-1.8254,-1.6205,0.0,0.0,0.0,0.0,0.0,0.0,0.0,0.0,0.0,0.0,0.0,0.0,0.0,0.0,0.0,0.0,0.0,0.0,0.0,0.0,0.0,0.0,0.0,0.0,0.0,0.0,0.0,0.0,0.0,0.0,0.0,0.0,0.0,0.0,0.0,0.0,0.0,0.0,0.0,0.0,0.0,0.0,0.0,0.0,0.0,0.0,0.0,0.0,0.0,0.0,0.0,0.0,0.0,0.0,0.0,0.0,0.0,0.0,0.0,0.0,0.0,0.0,0.0,0.0,0.0,0.0,0.0,0.0,0.0,0.0,0.0,0.0,0.0,0.0,0.0,0.0,0.0,0.0,0.0,0.0,0.0,0.0,0.0,0.0,0.0,0.0,0.0,0.0,0.0,0.0,0.0,0.0,0.0,0.0,0.0,0.0,0.0,0.0,0.0,0.0,0.0,0.0,0.0,0.0,0.0,0.0,0.0,0.0,0.0,-2.1551,-2.3938,-2.4507,-2.3088,-1.9018,-1.694,0.0,0.0,0.0,0.0,0.0,0.0,0.0,0.0,0.0,0.0,0.0,0.0,0.0,0.0,0.0,0.0,0.0,0.0,0.0,0.0,0.0,0.0,0.0,0.0,0.0,0.0,0.0,0.0,0.0,0.0,0.0,0.0,0.0,0.0,0.0,0.0,0.0,0.0,0.0,0.0,0.0,0.0,0.0,0.0,0.0,0.0,0.0,0.0,0.0,0.0,0.0,0.0,0.0,0.0,0.0,0.0,0.0,0.0,0.0,0.0,0.0,0.0,0.0,0.0,0.0,0.0,0.0,0.0,0.0,0.0,0.0,0.0,0.0,0.0,0.0,0.0,0.0,0.0,0.0,0.0,0.0,0.0,0.0,0.0,0.0,0.0,0.0,0.0,0.0,0.0,0.0,0.0,0.0,0.0,0.0,0.0,0.0,0.0,0.0,0.0,0.0,0.0,0.0,0.0,0.0,0.0,0.0,0.0,-2.1039,-2.3619,-2.5437,-2.6056,-2.5374,-2.1498,-1.9133,0.0,0.0,0.0,0.0,0.0,0.0,0.0,0.0,0.0,0.0,0.0,0.0,0.0,0.0,0.0,0.0,0.0,0.0,0.0,0.0,0.0,0.0,0.0,0.0,0.0,0.0,0.0,0.0,0.0,0.0,0.0,0.0,0.0,0.0,0.0,0.0,0.0,0.0,0.0,0.0,0.0,0.0,0.0,0.0,0.0,0.0,0.0,0.0,0.0,0.0,0.0,0.0,0.0,0.0,0.0,0.0,0.0,0.0,0.0,0.0,0.0,0.0,0.0,0.0,0.0,0.0,0.0,0.0,0.0,0.0,0.0,0.0,0.0,0.0,0.0,0.0,0.0,0.0,0.0,0.0,0.0,0.0,0.0,0.0,0.0,0.0,0.0,0.0,0.0,0.0,0.0,0.0,0.0,0.0,0.0,0.0,0.0,0.0,0.0,0.0,0.0,0.0,0.0,0.0,0.0,0.0,0.0,0.0,-2.268,-2.6012,-2.6702,-2.7247,-2.7619,-2.4738,-2.1984,0.0,0.0,0.0,0.0,0.0,0.0,0.0,0.0,0.0,0.0,0.0,0.0,0.0,0.0,0.0,0.0,0.0,0.0,0.0,0.0,0.0,0.0,0.0,0.0,0.0,0.0,0.0,0.0,0.0,0.0,0.0,0.0,0.0,0.0,0.0,0.0,0.0,0.0,0.0,0.0,0.0,0.0,0.0,0.0,0.0,0.0,0.0,0.0,0.0,0.0,0.0,0.0,0.0,0.0,0.0,0.0,0.0,0.0,0.0,0.0,0.0,0.0,0.0,0.0,0.0,0.0,0.0,0.0,0.0,0.0,0.0,0.0,0.0,0.0,0.0,0.0,0.0,0.0,0.0,0.0,0.0,0.0,0.0,0.0,0.0,0.0,0.0,0.0,0.0,0.0,0.0,0.0,0.0,0.0,0.0,0.0,0.0,0.0,0.0,0.0,0.0,0.0,0.0,0.0,0.0,0.0,0.0,0.0,-2.3495,-2.787,-2.7911,-2.8468,-2.9767,-2.6007,-2.3085,0.0,0.0,0.0,0.0,0.0,0.0,0.0,0.0,0.0,0.0,0.0,0.0,0.0,0.0,0.0,0.0,0.0,0.0,0.0,0.0,0.0,0.0,0.0,0.0,0.0,0.0,0.0,0.0,0.0,0.0,0.0,0.0,0.0,0.0,0.0,0.0,0.0,0.0,0.0,0.0,0.0,0.0,0.0,0.0,0.0,0.0,0.0,0.0,-1.1811,0.0,0.0,0.0,0.0,0.0,0.0,0.0,0.0,0.0,0.0,0.0,0.0,0.0,0.0,0.0,0.0,0.0,0.0,0.0,0.0,0.0,0.0,0.0,0.0,0.0,0.0,0.0,0.0,0.0,0.0,0.0,0.0,0.0,0.0,0.0,0.0,0.0,0.0,0.0,0.0,0.0,0.0,0.0,0.0,0.0,0.0,0.0,0.0,0.0,0.0,0.0,0.0,0.0,0.0,0.0,0.0,0.0,0.0,0.0,-2.5482,-2.923,-2.9004,-2.9445,-3.0603,-2.8206,-2.5431,0.0,0.0,0.0,0.0,0.0,0.0,0.0,0.0,0.0,0.0,0.0,0.0,0.0,0.0,0.0,0.0,0.0,0.0,0.0,0.0,0.0,0.0,0.0,0.0,0.0,0.0,0.0,0.0,0.0,0.0,0.0,0.0,0.0,0.0,0.0,0.0,0.0,0.0,0.0,0.0,0.0,0.0,0.0,0.0,0.0,0.0,0.0,0.0,0.0,0.0,0.0,0.0,0.0,0.0,0.0,0.0,0.0,0.0,0.0,0.0,0.0,0.0,0.0,0.0,0.0,0.0,0.0,0.0,0.0,0.0,0.0,0.0,0.0,0.0,0.0,0.0,0.0,0.0,0.0,0.0,0.0,0.0,0.0,0.0,0.0,0.0,0.0,0.0,0.0,0.0,0.0,0.0,0.0,0.0,0.0,0.0,0.0,0.0,0.0,0.0,0.0,0.0,0.0,0.0,0.0,0.0,0.0,-2.4597,-2.7311,-3.0401,-2.9967,-3.0154,-3.1195,-3.0319,-2.7711,-2.3302,0.0,0.0,0.0,0.0,0.0,0.0,0.0,0.0,0.0,0.0,0.0,0.0,0.0,0.0,0.0,0.0,0.0,0.0,0.0,0.0,0.0,0.0,0.0,0.0,0.0,0.0,0.0,0.0,0.0,0.0,0.0,0.0,0.0,0.0,0.0,0.0,0.0,0.0,-1.2595,-1.3224,0.0,0.0,0.0,0.0,0.0,0.0,0.0,0.0,-1.3663,0.0,0.0,0.0,0.0,0.0,0.0,0.0,0.0,0.0,0.0,0.0,0.0,0.0,0.0,0.0,0.0,0.0,0.0,0.0,0.0,0.0,0.0,0.0,0.0,0.0,0.0,0.0,0.0,0.0,0.0,0.0,0.0,0.0,0.0,0.0,0.0,0.0,0.0,0.0,0.0,0.0,0.0,0.0,0.0,0.0,0.0,0.0,0.0,0.0,0.0,0.0,0.0,0.0,0.0,0.0,0.0,-2.3664,-2.4116,-2.6698,-3.1619,-3.0453,-3.0447,-3.1818,-3.0678,-2.8092,-2.4196,0.0,0.0,0.0,0.0,0.0,0.0,0.0,0.0,0.0,0.0,0.0,0.0,0.0,0.0,0.0,0.0,0.0,0.0,0.0,0.0,0.0,0.0,0.0,0.0,0.0,0.0,0.0,0.0,0.0,0.0,0.0,0.0,0.0,0.0,0.0,0.0,0.0,0.0,0.0,-1.4314,-1.4658,0.0,0.0,0.0,0.0,0.0,0.0,0.0,0.0,-1.411,0.0,0.0,0.0,0.0,0.0,0.0,0.0,0.0,0.0,0.0,0.0,0.0,0.0,0.0,0.0,0.0,0.0,0.0,0.0,0.0,0.0,0.0,0.0,0.0,0.0,0.0,0.0,0.0,0.0,0.0,0.0,0.0,0.0,0.0,0.0,0.0,0.0,0.0,0.0,0.0,0.0,0.0,0.0,0.0,0.0,0.0,0.0,0.0,0.0,0.0,0.0,0.0,0.0,0.0,0.0,-2.4012,-2.5927,-2.8665,-3.2235,-3.1314,-3.1395,-3.2684,-3.1006,-2.8321,0.0,0.0,0.0,0.0,0.0,0.0,0.0,0.0,0.0,0.0,0.0,0.0,0.0,0.0,0.0,0.0,0.0,0.0,0.0,0.0,0.0,0.0,0.0,0.0,0.0,0.0,0.0,0.0,0.0,0.0,0.0,0.0,0.0,0.0,0.0,0.0,0.0,0.0,0.0,0.0,-1.5634,-1.6405,-1.6393,0.0,0.0,0.0,0.0,0.0,0.0,-1.6422,-1.6179,0.0,0.0,0.0,0.0,0.0,0.0,0.0,0.0,0.0,0.0,0.0,0.0,0.0,0.0,0.0,0.0,0.0,0.0,0.0,0.0,0.0,0.0,0.0,0.0,0.0,0.0,0.0,0.0,0.0,0.0,0.0,0.0,0.0,0.0,0.0,0.0,0.0,0.0,0.0,0.0,0.0,0.0,0.0,0.0,0.0,0.0,0.0,0.0,0.0,0.0,0.0,0.0,0.0,0.0,0.0,-2.413,-2.7443,-3.029,-3.2442,-3.1918,-3.2138,-3.3254,-3.1122,-2.8334,0.0,0.0,0.0,0.0,0.0,0.0,0.0,0.0,0.0,0.0,0.0,0.0,0.0,0.0,0.0,0.0,0.0,0.0,0.0,0.0,0.0,0.0,0.0,0.0,0.0,0.0,0.0,0.0,0.0,0.0,0.0,0.0,0.0,0.0,0.0,0.0,0.0,0.0,0.0,0.0,0.0,-1.7844,-1.7514,-1.8496,0.0,0.0,0.0,0.0,-1.8595,-1.8649,0.0,0.0,0.0,0.0,0.0,0.0,0.0,0.0,0.0,0.0,0.0,0.0,0.0,0.0,0.0,0.0,0.0,0.0,0.0,0.0,0.0,0.0,0.0,0.0,0.0,0.0,0.0,0.0,0.0,0.0,0.0,0.0,0.0,0.0,0.0,0.0,0.0,0.0,0.0,0.0,0.0,0.0,0.0,0.0,0.0,0.0,0.0,0.0,0.0,0.0,0.0,0.0,0.0,0.0,0.0,0.0,-2.3786,-2.6355,-2.9154,-3.2047,-3.1714,-3.2003,-3.3151,-3.0691,-2.7925,0.0,0.0,0.0,0.0,0.0,0.0,0.0,0.0,0.0,0.0,0.0,0.0,0.0,0.0,0.0,0.0,0.0,0.0,0.0,0.0,0.0,0.0,0.0,0.0,0.0,0.0,0.0,0.0,0.0,0.0,0.0,0.0,0.0,0.0,0.0,0.0,0.0,0.0,0.0,0.0,0.0,-1.8172,-1.8867,-1.9112,-1.9149,0.0,0.0,-1.9382,-1.9882,-1.9965,0.0,0.0,0.0,0.0,0.0,0.0,0.0,0.0,0.0,0.0,0.0,0.0,0.0,0.0,0.0,0.0,0.0,0.0,0.0,0.0,0.0,0.0,0.0,0.0,0.0,0.0,0.0,0.0,0.0,0.0,0.0,0.0,0.0,0.0,0.0,0.0,0.0,0.0,0.0,0.0,0.0,0.0,0.0,0.0,0.0,0.0,0.0,0.0,0.0,0.0,0.0,0.0,0.0,0.0,0.0,-2.222,-2.4131,-2.7398,-3.0086,-3.2036,-3.1841,-3.2221,-3.3349,-3.0429,-2.7689,0.0,0.0,0.0,0.0,0.0,0.0,0.0,0.0,0.0,0.0,0.0,0.0,0.0,0.0,0.0,0.0,0.0,0.0,0.0,0.0,0.0,0.0,0.0,0.0,0.0,0.0,0.0,0.0,0.0,0.0,0.0,0.0,0.0,0.0,0.0,0.0,0.0,0.0,0.0,0.0,0.0,0.0,-1.9794,-2.0898,0.0,0.0,0.0,-2.2345,-2.2215,0.0,0.0,0.0,0.0,0.0,0.0,0.0,0.0,0.0,0.0,0.0,0.0,0.0,0.0,0.0,0.0,0.0,0.0,0.0,0.0,0.0,0.0,0.0,0.0,0.0,0.0,0.0,0.0,0.0,0.0,0.0,0.0,0.0,0.0,0.0,0.0,0.0,0.0,0.0,0.0,0.0,0.0,0.0,0.0,0.0,0.0,0.0,0.0,0.0,0.0,0.0,0.0,0.0,0.0,0.0,0.0,0.0,-2.4561,-2.8454,-3.0974,-3.1969,-3.2014,-3.2479,-3.3271,-3.0473,0.0,0.0,0.0,0.0,0.0,0.0,0.0,0.0,0.0,0.0,0.0,0.0,0.0,0.0,0.0,0.0,0.0,0.0,0.0,0.0,0.0,0.0,0.0,0.0,0.0,0.0,0.0,-0.9149,0.0,0.0,0.0,0.0,0.0,0.0,0.0,0.0,0.0,0.0,0.0,0.0,0.0,0.0,-2.0688,-2.0843,-2.2579,-2.3882,0.0,0.0,-2.4777,-2.4232,-2.476,-2.4415,0.0,0.0,0.0,0.0,0.0,0.0,0.0,0.0,0.0,0.0,0.0,0.0,0.0,0.0,0.0,0.0,0.0,0.0,0.0,0.0,0.0,0.0,0.0,0.0,0.0,0.0,0.0,0.0,0.0,0.0,0.0,0.0,0.0,0.0,0.0,0.0,0.0,0.0,0.0,0.0,0.0,0.0,0.0,0.0,0.0,0.0,0.0,0.0,0.0,0.0,0.0,0.0,0.0,0.0,0.0,-2.5111,-2.8837,-3.1062,-3.1734,-3.2148,-3.257,-3.2971,-3.1054,-2.8799,0.0,0.0,0.0,0.0,0.0,0.0,0.0,0.0,0.0,0.0,0.0,0.0,0.0,0.0,0.0,0.0,0.0,0.0,0.0,0.0,0.0,0.0,0.0,0.0,0.0,0.0,0.0,0.0,0.0,0.0,0.0,0.0,0.0,0.0,0.0,0.0,0.0,0.0,0.0,0.0,0.0,-2.1526,-2.2335,-2.3634,-2.4746,0.0,0.0,-2.5638,-2.5433,-2.6105,-2.5813,-2.3293,0.0,0.0,0.0,0.0,0.0,0.0,0.0,0.0,0.0,0.0,0.0,0.0,0.0,0.0,0.0,0.0,0.0,0.0,0.0,0.0,0.0,0.0,0.0,0.0,0.0,0.0,0.0,0.0,0.0,0.0,0.0,0.0,0.0,0.0,0.0,0.0,0.0,0.0,0.0,0.0,0.0,0.0,0.0,0.0,0.0,0.0,0.0,0.0,0.0,0.0,0.0,0.0,0.0,-2.4116,-2.5616,-2.8812,-3.0951,-3.1842,-3.199,-3.2212,-3.2614,-3.0787,-2.8637,0.0,0.0,0.0,0.0,0.0,0.0,0.0,0.0,0.0,0.0,0.0,0.0,0.0,0.0,0.0,0.0,0.0,0.0,0.0,0.0,0.0,0.0,0.0,0.0,0.0,0.0,0.0,0.0,-1.2798,-1.3522,-1.4032,0.0,0.0,0.0,0.0,0.0,0.0,0.0,0.0,0.0,0.0,-2.3142,-2.4295,-2.5932,0.0,0.0,-2.8021,-2.8335,-2.8328,-2.8155,-2.7531,-2.6004,-2.516,0.0,0.0,0.0,0.0,0.0,0.0,0.0,0.0,0.0,0.0,0.0,0.0,0.0,0.0,0.0,0.0,0.0,0.0,0.0,0.0,0.0,0.0,0.0,0.0,0.0,0.0,0.0,0.0,0.0,0.0,0.0,0.0,0.0,0.0,0.0,0.0,0.0,0.0,0.0,0.0,0.0,0.0,0.0,0.0,0.0,0.0,0.0,0.0,0.0,0.0,0.0,0.0,-2.4824,-2.612,-2.9319,-3.1379,-3.2222,-3.2229,-3.235,-3.2573,-3.1124,-2.9301,0.0,0.0,0.0,0.0,0.0,0.0,0.0,0.0,0.0,0.0,0.0,0.0,0.0,0.0,0.0,0.0,0.0,0.0,0.0,0.0,0.0,0.0,0.0,0.0,0.0,0.0,0.0,0.0,-1.363,-1.4231,-1.4507,0.0,0.0,0.0,0.0,0.0,0.0,0.0,0.0,0.0,0.0,-2.4925,-2.6092,-2.7802,-2.9009,-2.9152,-2.975,-3.0136,-2.9994,-2.9663,-2.9025,-2.7858,0.0,0.0,0.0,0.0,0.0,0.0,0.0,0.0,0.0,0.0,0.0,0.0,0.0,0.0,0.0,0.0,0.0,0.0,0.0,0.0,0.0,0.0,0.0,0.0,0.0,0.0,0.0,-1.2547,0.0,0.0,-1.1744,0.0,0.0,0.0,0.0,0.0,0.0,0.0,0.0,0.0,0.0,0.0,0.0,0.0,0.0,0.0,0.0,0.0,0.0,0.0,0.0,0.0,0.0,-2.5706,-2.6629,-3.0497,-3.261,-3.2796,-3.3029,-3.3167,-3.3138,-3.2383,-3.1124,-2.9326,0.0,0.0,0.0,0.0,0.0,0.0,0.0,0.0,0.0,0.0,0.0,0.0,0.0,0.0,0.0,0.0,0.0,0.0,0.0,0.0,0.0,0.0,0.0,0.0,0.0,0.0,-1.2921,-1.3646,-1.4255,0.0,0.0,0.0,0.0,0.0,0.0,0.0,0.0,0.0,0.0,-2.4786,-2.6806,-2.7555,-2.8877,-2.9811,-2.981,-3.0419,-3.0577,-2.9781,-3.0299,-3.0231,0.0,0.0,0.0,0.0,0.0,0.0,0.0,0.0,0.0,0.0,0.0,0.0,0.0,0.0,0.0,0.0,0.0,0.0,0.0,0.0,0.0,0.0,0.0,0.0,0.0,0.0,0.0,-1.5255,-1.5028,0.0,0.0,0.0,0.0,0.0,0.0,0.0,0.0,0.0,0.0,0.0,-2.399,-2.5236,0.0,0.0,0.0,0.0,0.0,0.0,0.0,0.0,0.0,0.0,0.0,0.0,-2.6149,-2.8403,-3.0995,-3.2859,-3.3895,-3.4027,-3.3833,-3.3343,-3.29,-3.1659,-2.9515,0.0,0.0,0.0,0.0,0.0,0.0,0.0,0.0,0.0,0.0,0.0,0.0,0.0,0.0,0.0,0.0,0.0,0.0,0.0,0.0,0.0,0.0,0.0,0.0,0.0,-1.455,0.0,0.0,0.0,0.0,0.0,0.0,0.0,0.0,0.0,0.0,0.0,-2.2661,-2.515,-2.6542,-2.7841,-2.9214,-3.0193,-3.0916,0.0,0.0,0.0,0.0,0.0,0.0,0.0,0.0,0.0,0.0,0.0,0.0,0.0,0.0,-2.5782,-2.3557,-2.2255,-2.147,-2.1361,0.0,0.0,0.0,0.0,0.0,0.0,0.0,0.0,0.0,0.0,0.0,0.0,0.0,0.0,-1.8837,0.0,-1.7715,0.0,0.0,0.0,0.0,0.0,0.0,0.0,0.0,-2.6102,-2.7457,-2.769,-2.8635,-2.8474,0.0,-2.7,-2.5089,0.0,0.0,0.0,0.0,0.0,0.0,0.0,0.0,-2.7432,-2.9632,-3.2017,-3.3776,-3.4783,-3.4784,-3.4387,-3.3696,-3.2964,-3.1642,-2.9659,-2.7504,-2.5675,0.0,0.0,0.0,0.0,0.0,0.0,0.0,0.0,0.0,0.0,0.0,0.0,0.0,0.0,0.0,0.0,0.0,0.0,0.0,0.0,0.0,0.0,0.0,-1.5535,0.0,0.0,0.0,0.0,0.0,0.0,0.0,0.0,0.0,-2.0523,-2.2506,-2.4728,-2.6909,-2.7891,-2.887,-3.013,0.0,0.0,0.0,0.0,0.0,0.0,0.0,-2.9875,-2.9776,-2.9384,-2.8956,-2.8478,-2.9182,-2.9816,-2.988,0.0,0.0,-2.63,-2.4984,-2.4244,-2.4082,-2.4401,-2.4521,-2.3947,-2.4277,-2.4549,0.0,0.0,0.0,0.0,0.0,0.0,0.0,0.0,-2.428,-2.385,0.0,-2.2087,0.0,0.0,0.0,0.0,0.0,-2.3085,0.0,0.0,-3.0406,-3.1744,-3.1401,-3.1385,-3.1367,-3.1261,-3.0703,-2.9665,-2.8069,-2.4796,0.0,0.0,0.0,0.0,0.0,0.0,-2.9492,-3.0513,-3.3537,-3.5309,-3.5522,-3.5324,-3.4912,-3.4193,-3.2637,-3.1209,-2.9966,-2.9582,-2.8134,-2.54,-2.4313,0.0,0.0,0.0,0.0,0.0,0.0,0.0,0.0,0.0,0.0,0.0,0.0,0.0,0.0,0.0,0.0,0.0,0.0,0.0,0.0,-1.5931,0.0,0.0,0.0,0.0,0.0,0.0,0.0,0.0,0.0,0.0,-2.0739,-2.3943,-2.6721,-2.7529,0.0,0.0,0.0,0.0,-3.015,-2.9918,-2.978,-2.9781,-2.9917,-3.0743,-3.1319,-3.1189,0.0,0.0,-2.9722,-3.0063,-3.0393,-2.9995,-3.0336,-3.0194,-2.863,-2.7535,-2.6619,-2.5789,-2.5741,-2.5619,-2.5601,-2.5862,-2.5781,-3.1786,0.0,0.0,0.0,0.0,-2.6685,-2.695,-2.7471,-2.738,-2.7271,-2.7053,-2.5681,0.0,0.0,0.0,0.0,0.0,0.0,-2.8252,-3.0709,-3.1829,-3.2934,-3.3999,-3.401,-3.3917,-3.368,-3.2913,-3.2315,-3.1812,-3.0376,-2.8191,-2.5398,0.0,0.0,0.0,0.0,-3.0809,-3.2823,-3.4426,-3.5539,-3.6199,-3.6168,-3.5508,-3.4224,-3.2652,-3.1717,-3.1515,-3.0806,-2.9802,-2.8576,-2.6679,0.0,0.0,0.0,0.0,0.0,0.0,0.0,0.0,0.0,0.0,0.0,0.0,0.0,0.0,0.0,0.0,0.0,0.0,0.0,-1.7,-1.7056,-1.7527,0.0,0.0,0.0,0.0,0.0,0.0,0.0,0.0,0.0,-2.4975,-2.6209,-2.7455,0.0,0.0,-2.8913,-2.932,-3.0085,-3.0653,-3.0779,-3.1187,0.0,-3.1492,-3.1406,-3.1321,-3.1285,-3.1631,-3.1608,-3.068,-3.0941,-3.1073,-3.0451,-3.0521,-3.0519,-3.0034,-2.9854,-2.9688,-2.959,-2.9573,-2.9537,-2.9554,-2.9536,-2.9555,-3.7263,-3.4328,-3.1652,-3.0737,-3.1021,-3.0757,-3.1089,-3.1834,-3.1475,-3.1393,-3.1337,-2.9683,-2.883,-2.8496,-2.7581,0.0,0.0,0.0,-3.1696,-3.4241,-3.4351,-3.5151,-3.6379,-3.6176,-3.5947,-3.5781,-3.5012,-3.4475,-3.4214,-3.3764,-3.217,-2.9603,0.0,0.0,-3.0215,-3.1154,-3.2505,-3.4295,-3.5258,-3.5984,-3.6492,-3.5845,-3.511,-3.4208,-3.2637,-3.187,-3.2025,-3.1531,-3.0913,-3.0166,-2.8276,-2.6308,0.0,0.0,0.0,0.0,0.0,0.0,0.0,0.0,0.0,0.0,0.0,-1.6365,0.0,0.0,0.0,0.0,-1.7296,-1.7713,-1.8617,-1.8562,0.0,0.0,0.0,0.0,0.0,0.0,0.0,-2.3502,-2.548,-2.7052,-2.7649,-2.8162,-2.886,-2.9914,-2.9922,-2.9885,-2.997,0.0,-3.1012,-3.1078,-3.1398,-3.1645,-3.1702,-3.1746,-3.1853,-3.2089,-3.2398,-3.24,-3.1805,-3.1686,-3.1432,-3.1035,-3.0767,-3.0609,-3.051,-3.0712,-3.0935,-3.1098,-3.1173,-3.119,-3.119,-3.119,-3.123,-4.1678,-4.1232,-3.6307,-3.462,-3.5093,-3.4397,-3.5055,-3.6569,-3.6014,-3.5752,-3.5598,-3.386,-3.2734,-3.2086,-3.0978,0.0,-3.3187,-3.3666,-3.5212,-3.7569,-3.7471,-3.7793,-3.8477,-3.7861,-3.7569,-3.7554,-3.6892,-3.6261,-3.566,-3.5408,-3.4921,-3.4147,-3.2853,-3.2348,-3.2619,-3.3433,-3.426,-3.5099,-3.5933,-3.6399,-3.6476,-3.4866,-3.4075,-3.4193,-3.2637,-3.1799,-3.1813,-3.1912,-3.1537,-3.0576,-2.9297,-2.7572,-2.5321,0.0,0.0,0.0,0.0,0.0,0.0,0.0,0.0,0.0,0.0,0.0,0.0,0.0,0.0,0.0,-1.9877,0.0,-2.054,-2.0492,0.0,0.0,0.0,-2.2253,-2.4201,-2.5121,-2.587,-2.6575,0.0,0.0,-2.916,-2.9794,-3.065,-3.179,-3.1925,-3.1759,-3.1451,-3.1358,-3.1308,-3.1098,-3.1082,-3.1128,-3.1458,-3.211,-3.283,-3.3329,-3.3592,-3.3443,-3.2839,-3.2282,-3.183,-3.1565,-3.1068,-3.0621,-3.0539,-3.0726,-3.0899,-3.1022,-3.1086,-3.1171,-3.1171,-3.119,-3.1207,-4.2371,-4.2263,-4.097,-3.965,-3.8327,-3.7648,-3.7616,-3.8,-3.7861,-3.7784,-3.7707,-3.6785,-3.6245,-3.6091,-3.5645,-3.6061,-3.714,-3.7262,-3.7631,-3.8262,-3.8244,-3.8321,-3.8492,-3.8354,-3.8262,-3.8231,-3.7584,-3.7184,-3.6984,-3.6446,-3.5977,-3.5584,-3.5269,-3.4746,-3.4096,-3.3768,-3.434,-3.5817,-3.5529,-3.5714,-3.6415,-3.4851,-3.4134,-3.4415,-3.2579,-3.1741,-3.2094,-3.194,-3.1568,-3.09,-2.9985,-2.8682,-2.6903,-2.4583,0.0,0.0,0.0,0.0,0.0,0.0,0.0,0.0,0.0,-1.9532,-1.7548,0.0,-2.0378,0.0,-2.2066,-2.3093,-2.3664,-2.3658,0.0,0.0,-2.493,-2.5457,-2.7037,-2.7803,-2.8361,-2.8806,-2.9525,-3.0254,-3.0836,-3.1146,-3.1766,-3.2882,-3.1853,-3.0868,-3.0754,-3.1561,-3.2091,-3.1993,-3.2655,-3.3313,-3.3272,-3.3598,-3.3909,-3.4056,-3.4283,-3.4197,-3.3518,-3.334,-3.2928,-3.1896,-3.1967,-3.1719,-3.0737,-3.149,-3.2091,-3.1683,-3.1297,-3.1035,-3.1055,-3.1131,-3.1188,-4.3479,-4.3464,-4.3156,-4.1934,-4.0155,-4.03,-4.0339,-4.0293,-3.9644,-3.9367,-3.9339,-3.8385,-3.7954,-3.7969,-3.8115,-3.8486,-3.897,-3.9228,-3.9382,-3.9382,-3.9367,-3.9416,-3.9351,-3.9075,-3.8954,-3.8939,-3.8277,-3.78,-3.7492,-3.7123,-3.6724,-3.6271,-3.6285,-3.5933,-3.5264,-3.4743,-3.4811,-3.5426,-3.5153,-3.5506,-3.6399,-3.4866,-3.41,-3.4268,-3.2548,-3.1704,-3.1914,-3.1756,-3.1299,-3.0619,-2.9853,-2.8762,-2.7214,-2.5462,-2.4017,0.0,0.0,0.0,0.0,0.0,0.0,0.0,0.0,0.0,0.0,0.0,-2.2668,-2.3271,-2.4347,-2.5206,-2.5696,-2.5728,-2.6162,-2.7223,-2.734,-2.7958,-2.9396,-3.0125,-3.06,-3.0768,-3.1365,-3.1913,-3.2313,-3.2451,-3.2773,-3.3495,-3.2668,-3.1968,-3.1978,-3.2559,-3.2951,-3.3016,-3.3574,-3.4025,-3.4075,-3.4176,-3.4209,-3.43,-3.4423,-3.4374,-3.4052,-3.3841,-3.34,-3.2689,-3.2602,-3.247,-3.1686,-3.2144,-3.2636,-3.2347,-3.2,-3.1759,-3.1506,-3.1248,-3.1049,-4.461,-4.4526,-4.3978,-4.286,-4.1538,-4.2464,-4.2515,-4.1831,-4.0627,-4.0195,-4.0269,-3.92,-3.8752,-3.8816,-3.9351,-3.9628,-3.9659,-4.0228,-4.0489,-4.0489,-4.0489,-4.0489,-4.0459,-3.989,-3.9647,-3.9582,-3.8954,-3.8323,-3.7769,-3.7584,-3.7185,-3.66,-3.6492,-3.6304,-3.6046,-3.5816,-3.5329,-3.459,-3.4857,-3.5443,-3.6353,-3.4666,-3.3869,-3.4006,-3.2473,-3.1599,-3.1566,-3.1421,-3.0919,-2.9998,-2.9336,-2.8385,-2.7052,-2.6238,-2.529,0.0,-2.3737,0.0,0.0,0.0,0.0,0.0,0.0,0.0,0.0,-2.4213,-2.4922,-2.6052,-2.6623,-2.7052,-2.7368,-2.7451,-2.7983,-2.9139,-2.9422,-3.0006,-3.1182,-3.2007,-3.2434,-3.2418,-3.2929,-3.3361,-3.3403,-3.3477,-3.3513,-3.3591,-3.3547,-3.3438,-3.3578,-3.3582,-3.3659,-3.3864,-3.3915,-3.4,-3.4075,-3.4101,-3.4151,-3.425,-3.43,-3.4325,-3.4431,-3.4045,-3.3696,-3.3538,-3.3251,-3.2939,-3.2746,-3.2834,-3.2984,-3.2884,-3.2901,-3.2723,-3.2068,-3.1528,-3.1026,-4.461,-4.461,-4.4486,-4.4209,-4.396,-4.4117,-4.1961,-3.8293,-3.8134,-3.8529,-3.9385,-3.977,-4.0017,-4.012,-4.0155,-4.0217,-4.0305,-4.0428,-4.0489,-4.0489,-4.0489,-4.0489,-4.0489,-4.0366,-4.0305,-4.0259,-3.9647,-3.9228,-3.9075,-3.8031,-3.7343,-3.6967,-3.6435,-3.603,-3.5808,0.0,0.0,0.0,-3.4804,-3.5312,-3.582,-3.3756,-3.3008,-3.378,-3.2102,0.0,-3.1421,-3.1202,-3.0486,-2.9304,-2.9092,0.0,0.0,0.0,0.0,0.0,0.0,0.0,0.0,0.0,0.0,0.0,-2.608,-2.5615,-2.4831,-2.6288,-2.7482,-2.7953,-2.8747,-2.9482,-2.9989,-3.0165,-3.0398,-3.0747,-3.1334,-3.1817,-3.2102,-3.2677,-3.3119,-3.3119,-3.323,-3.3309,-3.3335,-3.3319,-3.3361,-3.3388,-3.3388,-3.3372,-3.3372,-3.3581,-3.371,-3.3745,-3.3915,-3.405,-3.4101,-3.4101,-3.4101,-3.4134,-3.4226,-3.43,-3.4333,-3.4366,-3.411,-3.3745,-3.4006,-3.3905,-3.2955,-3.3624,-3.4203,-3.3729,-3.3613,-3.3261,-3.2091,-3.183,-3.1591,-4.461,0.0,-4.461,-4.413,0.0,-4.2942,-4.0909,-3.7928,-3.975,-4.0427,-4.0321,-4.0385,-4.0436,-4.0493,-3.9951,-3.9758,-3.9763,-3.9323,-3.937,-3.9794,-3.9809,-4.0031,-4.0489,-4.0489,-4.0489,-4.0474,-4.0151,-3.9813,-3.9493,-3.8831,-3.8081,-3.7313,-3.6971,-3.6564,-3.6115,-3.6099,-3.5797,-3.5187,-3.5077,-3.5393,-3.6057,-3.4492,-3.3845,-3.4279,-3.2619,0.0,0.0,0.0,0.0,0.0,0.0,0.0,0.0,0.0,0.0,-2.8965,-2.8123,-2.7882,-2.8503,-2.8153,-2.8166,-2.8693,-2.9052,-2.8693,-2.74,-2.9107,-3.0285,-3.0423,-3.0856,-3.1249,-3.1575,-3.181,-3.1982,-3.205,-3.2488,-3.2787,-3.2845,-3.3087,-3.3293,-3.3293,-3.3293,-3.3293,-3.3293,-3.3293,-3.3293,-3.3293,-3.3293,-3.3293,-3.3319,-3.3477,-3.3607,-3.3684,-3.3848,-3.4,-3.3984,-3.4059,-3.4101,-3.4101,-3.4151,-3.4184,-3.4201,-3.4325,-3.4293,-3.4038,-3.4364,-3.4418,-3.3961,-3.4372,-3.4767,-3.4435,-3.4336,-3.4011,-3.2984,-3.228,-3.157,-4.461,-4.461,-4.461,-4.3766,-4.2404,-4.1845,-4.0787,-3.9578,0.0,0.0,0.0,-4.0812,-4.0562,-4.0413,-3.9689,-3.9339,-3.9293,-3.8557,-3.8621,-3.9339,-3.9339,-3.9765,-4.0474,-4.0489,-4.0489,-4.0489,-4.0489,-4.0213,-3.9674,-3.9551,-3.8893,-3.7784,-3.7554,-3.7169,-3.6538,-3.6492,-3.6383,-3.6154,-3.5399,-3.5457,-3.6322,-3.5308,-3.4764,-3.4845,-3.336,-3.2471,-3.2282,-3.1677,-3.0947,-3.0117,-2.9966,-2.9713,-2.9328,-2.9297,-2.9493,-2.9879,-2.9824,-2.9958,-3.0369,-3.0357,-3.0472,-3.0735,-3.1259,-3.1149,-3.018,-3.15,-3.2398,-3.2398,-3.2398,-3.2382,-3.2425,-3.2691,-3.287,-3.2897,-3.3112,-3.3214,-3.324,-3.3256,-3.3229,-3.3282,-3.3282,-3.3266,-3.3293,-3.3293,-3.3293,-3.3293,-3.3293,-3.3293,-3.3346,-3.3424,-3.3555,-3.3658,-3.3787,-3.3873,-3.3899,-3.3975,-3.4075,-3.4101,-3.4101,-3.4101,-3.4126,-3.4201,-3.4275,-3.4276,-3.4497,-3.4602,-3.4675,-3.4771,-3.4859,-3.4883,-3.4899,-3.4667,-3.3905,-3.2862,-3.1868,-4.461,-4.461,-4.461,-4.4456,-4.4216,-4.4123,-4.3945,-4.3519,-4.1214,-4.0158,-4.0184,-4.0839,-4.0816,-4.0331,-4.029,-4.03,-4.03,-4.0152,-4.0198,-4.03,-4.03,-4.0374,-4.0489,-4.0489,-4.0489,-4.0489,-4.0489,-4.0459,-4.029,-3.9767,-3.909,-3.8385,-3.78,-3.7169,-3.6553,-3.6492,-3.6476,-3.643,-3.5474,-3.5294,-3.5836,-3.4459,-3.399,-3.4498,-3.3688,-3.2872,-3.2238,-3.2016,-3.1262,-3.002,-2.9902,-3.004,-3.0357,-3.0394,-3.0856,-3.1866,-3.1948,-3.1967,-3.206,-3.2064,-3.2067,-3.2105,-3.2213,-3.1948,-3.1292,-3.1917,-3.2398,-3.2398,-3.2398,-3.2453,-3.2551,-3.2605,-3.2718,-3.287,-3.2924,-3.3005,-3.3096,-3.3032,-3.3043,-3.3282,-3.3219,-3.3176,-3.3282,-3.3324,-3.3372,-3.3324,-3.3482,-3.3382,-3.3488,-3.3503,-3.3503,-3.3555,-3.3633,-3.3745,-3.3848,-3.3915,-3.3975,-3.4075,-3.4101,-3.4101,-3.4101,-3.4109,-3.4176,-3.4275,-3.4333,-3.4448,-3.4618,-3.4715,-3.4763,-3.4875,-3.4899,-3.4651,-3.4005,-3.3591,-3.3193,-4.4534,-4.4458,-4.4534,-4.461,-4.4594,-4.4225,-4.4071,-4.3895,-4.2205,-4.1403,-4.1341,-4.1199,-4.0853,-4.0389,-3.9807,-3.965,-3.9736,-3.92,-3.9246,-3.9751,-3.9734,-4.0003,-4.0459,-4.0489,-4.0489,-4.0489,-4.0489,-4.0489,-4.0459,-4.0166,-3.9505,-3.8508,-3.7477,-3.6784,-3.6522,-3.6492,-3.6492,-3.6507,-3.6043,-3.5888,-3.5999,-3.5239,-3.4957,-3.5147,-3.4383,-3.3804,-3.3437,-3.3043,-3.2509,-3.1885,-3.1518,-3.1402,-3.1597,-3.139,-3.1521,-3.2145,-3.2247,-3.2315,-3.2382,-3.2398,-3.2398,-3.2398,-3.2398,-3.2302,-3.1967,-3.2213,-3.2425,-3.2496,-3.2437,-3.2468,-3.2578,-3.2605,-3.2621,-3.273,-3.2881,-3.3032,-3.3085,-3.3058,-3.3085,-3.3256,-3.3176,-3.3165,-3.3282,-3.3609,-3.3846,-3.3878,-3.413,-3.43,-3.3974,-3.3921,-3.3821,-3.3582,-3.3555,-3.3658,-3.3787,-3.3848,-3.3949,-3.4075,-3.4101,-3.4101,-3.4101,-3.4101,-3.4126,-3.4176,-3.425,-3.4349,-3.4472,-3.4546,-3.4643,-3.4739,-3.4804,-3.4629,-3.4445,-3.4386,-3.3839,-4.4473,-4.432,-4.4458,-4.4496,-4.4412,-4.3943,-4.3765,-4.3727,-4.3328,-4.2962,-4.2493,-4.1562,-4.0878,-4.0309,-3.9501,-3.9268,-3.9292,-3.8669,-3.8764,-3.937,-3.9416,-3.9809,-4.0432,-4.0489,-4.0489,-4.0489,-4.0489,-4.0489,-4.0455,-4.0489,-3.9813,-3.8457,-3.7212,-3.6552,-3.646,-3.6429,-3.646,-3.6492,-3.6492,-3.6429,-3.6274,-3.6132,-3.5958,-3.5753,-3.5142,-3.4685,-3.4488,-3.3978,-3.3649,-3.3484,-3.3006,-3.2766,-3.2796,-3.2357,-3.2139,-3.2279,-3.2267,-3.2302,-3.2398,-3.2398,-3.2398,-3.2398,-3.2398,-3.2398,-3.2398,-3.2398,-3.2453,-3.2508,-3.2437,-3.2425,-3.2523,-3.2551,-3.2551,-3.2578,-3.2784,-3.292,-3.2989,-3.2947,-3.3,-3.3134,-3.3096,-3.3096,-3.3324,-3.3851,-3.432,-3.4573,-3.5047,-3.5138,-3.4679,-3.4415,-3.4105,-3.3821,-3.3562,-3.3503,-3.3617,-3.3761,-3.3899,-3.4025,-3.4092,-3.4101,-3.4101,-3.4101,-3.4101,-3.4126,-3.4176,-3.4275,-3.43,-3.4358,-3.4497,-3.4618,-3.4659,-3.4675,-3.4754,-3.4809,-3.426,-4.432,-4.432,-4.432,-4.4205,-4.4073,-4.4151,-4.4197,-4.4159,-4.3804,-4.3206,-4.2523,-4.1901,-4.1019,-4.0173,-4.0109,-4.0175,-4.0297,-4.0254,-4.0223,-4.0281,-4.0374,-4.0401,-4.0489,-4.0489,-4.0489,-4.0489,-4.0489,-4.042,-4.0331,-4.0389,-3.9745,-3.8369,-3.741,-3.6709,-3.6287,-3.6227,-3.632,-3.6492,-3.6492,-3.6492,-3.6445,-3.6274,-3.6116,-3.5973,-3.5738,-3.5262,-3.4578,-3.4459,-3.4113,-3.3559,-3.3469,-3.3547,-3.3743,-3.3242,-3.2993,-3.3205,-3.2708,-3.2398,-3.2398,-3.2398,-3.2398,-3.2398,-3.2398,-3.2398,-3.2398,-3.2398,-3.2398,-3.2425,-3.2425,-3.2398,-3.241,-3.2425,-3.2425,-3.2425,-3.248,-3.2508,-3.2633,-3.2535,-3.2578,-3.2881,-3.2924,-3.2993,-3.3222,-3.3939,-3.4652,-3.5331,-3.5537,-3.5552,-3.53,-3.4857,-3.4446,-3.4189,-3.3762,-3.3467,-3.3534,-3.3633,-3.3771,-3.3899,-3.4025,-3.4075,-3.4075,-3.4101,-3.4101,-3.4101,-3.4101,-3.4176,-3.425,-3.4325,-3.4349,-3.4472,-3.4546,-3.457,-3.4707,-3.4804,-3.4283,-4.4065,-4.3949,-4.4065,-4.4143,-4.4166,-4.4127,-4.4205,-4.4251,-4.3578,-4.2902,-4.2199,-4.1553,-4.0912,-4.0312,-4.0312,-4.0207,-4.0036,-4.0156,-3.993,-3.9595,-3.9965,-4.0156,-4.0071,-4.0351,-4.0489,-4.0489,-4.0489,-4.0455,-4.0359,-3.9987,-3.9229,-3.8274,-3.7192,-3.6496,-3.6225,-3.5991,-3.6085,-3.6492,-3.6492,-3.6492,-3.646,-3.6226,-3.599,-3.5831,-3.5653,-3.5467,-3.513,-3.5085,-3.4951,-3.4666,-3.4307,-3.413,-3.4285,-3.3471,-3.3041,-3.3125,-3.2698,-3.2398,-3.2398,-3.2398,-3.2398,-3.2398,-3.2398,-3.2398,-3.2398,-3.2398,-3.2398,-3.2398,-3.2398,-3.241,-3.2496,-3.2468,-3.2398,-3.2425,-3.2453,-3.2551,-3.2578,-3.2535,-3.2605,-3.2843,-3.28,-3.2998,-3.3701,-3.479,-3.5789,-3.6453,-3.6624,-3.6437,-3.6074,-3.5698,-3.541,-3.5015,-3.4699,-3.4232,-3.3731,-3.3529,-3.3684,-3.3838,-3.3949,-3.4,-3.4075,-3.4101,-3.4101,-3.4101,-3.4101,-3.4101,-3.4151,-3.4201,-3.4226,-3.4349,-3.4472,-3.4546,-3.4667,-3.4739,-3.4402,-4.3754,-4.3729,-4.391,-4.3944,-4.38,-4.3738,-4.3723,-4.3685,-4.2986,-4.237,-4.1858,-4.1122,-4.0639,-4.0272,-4.0106,-3.9895,-3.9717,-3.9681,-3.9358,-3.8892,-3.9574,-3.9839,-3.9753,-4.0246,-4.0489,-4.0489,-4.0489,-4.0489,-4.0409,-3.9772,-3.9025,-3.825,-3.7166,-3.6472,-3.6165,-3.5793,-3.5879,-3.6383,-3.6429,-3.6414,-3.6367,-3.61,-3.5863,-3.5767,-3.5604,-3.5489,-3.5489,-3.5489,-3.5489,-3.5474,-3.4878,-3.4581,-3.4584,-3.3652,-3.2994,-3.2839,-3.2578,-3.2398,-3.2398,-3.2398,-3.2398,-3.2398,-3.2398,-3.2398,-3.2398,-3.2398,-3.2398,-3.2398,-3.2398,-3.2453,-3.2523,-3.2453,-3.2425,-3.2398,-3.2496,-3.2551,-3.2523,-3.2551,-3.2594,-3.2718,-3.2648,-3.3072,-3.4265,-3.5502,-3.655,-3.7241,-3.7431,-3.7368,-3.6817,-3.6503,-3.6172,-3.5742,-3.5521,-3.4928,-3.3964,-3.381,-3.3862,-3.3736,-3.3822,-3.3949,-3.4034,-3.4034,-3.4101,-3.4101,-3.4101,-3.4101,-3.4126,-3.4126,-3.4109,-3.4226,-3.4349,-3.4472,-3.4546,-3.4618,-3.4589,-4.329,-4.366,-4.3895,-4.3432,-4.2734,-4.2955,-4.278,-4.2493,-4.2104,-4.1782,-4.151,-4.0728,-4.0169,-3.9732,-3.9523,-3.9538,-3.9574,-3.909,-3.8819,-3.8745,-3.9394,-3.9681,-3.9717,-4.0246,-4.0489,-4.0489,-4.0489,-4.0489,-4.0455,-4.0111,-3.9425,-3.8422,-3.7521,-3.6777,-3.6179,-3.5666,-3.5672,-3.6164,-3.6242,-3.6211,-3.6179,-3.5879,-3.5784,-3.591,-3.5683,-3.5489,-3.5489,-3.5489,-3.5474,-3.5474,-3.4943,-3.4739,-3.4819,-3.38,-3.2953,-3.2511,-3.2413,-3.2398,-3.2398,-3.2398,-3.2398,-3.2398,-3.2398,-3.2398,-3.2398,-3.2398,-3.2398,-3.2398,-3.2398,-3.2425,-3.237,-3.2398,-3.2398,-3.2398,-3.2425,-3.241,-3.2425,-3.2425,-3.2425,-3.253,-3.2767,-3.3522,-3.4968,-3.5865,-3.6693,-3.7275,-3.751,-3.7462,-3.7306,-3.6848,-3.6487,-3.6298,-3.5884,-3.5169,-3.4474,-3.418,-3.4049,-3.3804,-3.3745,-3.3899,-3.3933,-3.3984,-3.405,-3.4101,-3.4101,-3.4101,-3.4101,-3.4101,-3.4101,-3.4151,-3.4226,-3.4325,-3.4399,-3.457,-3.4607,-4.1883,-4.2073,-4.2493,-4.253,-4.2423,-4.2318,-4.2278,-4.2212,-4.1329,-4.0917,-4.0682,-3.9801,-3.9276,-3.9075,-3.8634,-3.8486,-3.8509,-3.8449,-3.8165,-3.7772,-3.8412,-3.887,-3.9162,-3.9717,-4.0176,-4.0455,-4.0489,-4.0489,-4.042,-3.9895,-3.942,-3.8791,-3.7366,-3.6611,-3.6484,-3.5711,-3.5527,-3.6022,-3.6053,-3.6085,-3.6068,-3.5831,-3.572,-3.5799,-3.5619,-3.5489,-3.5489,-3.5182,-3.4988,-3.4988,-3.4468,-3.4213,-3.4197,-3.3528,-3.2823,-3.2338,-3.2274,-3.2315,-3.2398,-3.2398,-3.2398,-3.2398,-3.2398,-3.2398,-3.2398,-3.2398,-3.2398,-3.2398,-3.2398,-3.2315,-3.2092,-3.2231,-3.2398,-3.2398,-3.2398,-3.2428,-3.2398,-3.2398,-3.2552,-3.3072,-3.3851,-3.4907,-3.5381,-3.6305,-3.7001,-3.7266,-3.7435,-3.748,-3.7494,-3.7257,-3.7054,-3.7069,-3.688,-3.6469,-3.5745,-3.4806,-3.4195,-3.3778,-3.3607,-3.3761,-3.3838,-3.3899,-3.3949,-3.405,-3.4075,-3.4075,-3.4075,-3.4101,-3.4101,-3.4101,-3.4176,-3.4226,-3.4275,-3.4423,-3.4643,-4.1126,-4.1232,-4.1678,-4.1912,-4.1891,-4.1766,-4.1571,-4.1404,-4.0745,-4.036,-4.0048,-3.9377,-3.9101,-3.8987,-3.8491,-3.8067,-3.7906,-3.7849,-3.7519,-3.7134,-3.7976,-3.8523,-3.8892,-3.9595,-4.0141,-4.0436,-4.0316,-4.0246,-4.0176,-3.9666,-3.9283,-3.8948,-3.7343,-3.6679,-3.6705,-3.5795,-3.5444,-3.5831,-3.5894,-3.591,-3.5878,-3.5703,-3.5653,-3.5653,-3.5589,-3.5434,-3.519,-3.4821,-3.4539,-3.4315,-3.3834,-3.3455,-3.3257,-3.2892,-3.2524,-3.2183,-3.215,-3.2163,-3.2274,-3.2315,-3.2358,-3.2358,-3.2398,-3.2398,-3.2398,-3.2398,-3.2398,-3.2398,-3.2231,-3.2109,-3.2281,-3.2412,-3.2405,-3.2311,-3.2499,-3.2705,-3.2736,-3.2952,-3.3275,-3.3827,-3.4807,-3.5546,-3.5824,-3.6562,-3.7025,-3.7194,-3.7315,-3.7345,-3.748,-3.7435,-3.7435,-3.748,-3.7447,-3.7022,-3.6437,-3.5584,-3.4727,-3.4222,-3.3858,-3.3878,-3.371,-3.3813,-3.3873,-3.4,-3.405,-3.4075,-3.4075,-3.4075,-3.4101,-3.4101,-3.4126,-3.4176,-3.4226,-3.4275,-3.4472,-4.1135,-4.125,-4.1722,-4.1562,-4.124,-4.1153,-4.0608,-4.0039,-4.0326,-4.0092,-3.9686,-3.958,-3.9517,-3.9498,-3.8901,-3.8464,-3.7913,-3.7441,-3.7211,-3.7211,-3.8188,-3.876,-3.8929,-3.9895,-4.0316,-4.0385,-3.993,-3.9696,-3.9646,-3.9379,-3.9009,-3.8473,-3.7636,-3.703,-3.6856,-3.5911,-3.5409,-3.5638,-3.5655,-3.5671,-3.5688,-3.5539,-3.5457,-3.5522,-3.5621,-3.5321,-3.4593,-3.4488,-3.4237,-3.3698,-3.308,-3.2475,-3.2211,-3.2074,-3.2012,-3.2012,-3.1996,-3.1996,-3.2025,-3.2135,-3.2191,-3.2247,-3.233,-3.2398,-3.2398,-3.2398,-3.2398,-3.2259,-3.2155,-3.2167,-3.2957,-3.2994,-3.2638,-3.2007,-3.2863,-3.3398,-3.3521,-3.4029,-3.4489,-3.4627,-3.5302,-3.5655,-3.5901,-3.6457,-3.6998,-3.7074,-3.7105,-3.7151,-3.7361,-3.73,-3.7329,-3.7435,-3.7494,-3.7243,-3.6817,-3.6298,-3.5477,-3.479,-3.446,-3.425,-3.3772,-3.3658,-3.3745,-3.3873,-3.3949,-3.3958,-3.4009,-3.405,-3.4075,-3.4101,-3.4101,-3.4126,-3.4151,-3.4226,-3.4325,-4.0152,-4.0242,-4.0731,-4.0856,-4.0657,-4.034,-3.9969,-3.9649,-3.9512,-3.9261,-3.9093,-3.9116,-3.9159,-3.9019,-3.8506,-3.8116,-3.7889,-3.7689,-3.762,-3.7696,-3.8023,-3.8671,-3.9343,-3.9773,-3.993,-3.9844,-3.9343,-3.909,-3.9002,-3.8634,-3.8546,-3.8788,-3.7797,-3.7343,-3.7351,-3.6548,-3.5983,-3.5567,-3.5297,-3.5264,-3.5507,-3.5246,-3.5213,-3.5457,-3.5554,-3.5239,-3.4548,-3.4286,-3.3804,-3.308,-3.2504,-3.2123,-3.1915,-3.187,-3.187,-3.187,-3.1885,-3.1912,-3.1996,-3.2053,-3.2122,-3.2178,-3.2247,-3.2315,-3.2398,-3.2398,-3.2231,-3.2096,-3.2431,-3.2871,-3.266,-3.3422,-3.3736,-3.3657,-3.3956,-3.4137,-3.426,-3.4797,-3.5136,-3.5275,-3.5814,-3.623,-3.6276,-3.6662,-3.68,-3.6861,-3.6923,-3.7076,-3.7121,-3.718,-3.7224,-3.73,-3.7344,-3.7433,-3.7133,-3.6864,-3.6358,-3.5552,-3.5086,-3.4476,-3.3969,-3.3672,-3.3744,-3.372,-3.3822,-3.3899,-3.3958,-3.4025,-3.405,-3.4075,-3.4101,-3.4101,-3.4126,-3.4176,-3.425,-3.9644,-3.996,-4.0296,-4.0316,-4.0176,-3.9824,-3.9415,-3.9069,-3.8893,-3.8667,-3.8563,-3.9023,-3.924,-3.9226,-3.9002,-3.8678,-3.8337,-3.8478,-3.8333,-3.8057,-3.8449,-3.8907,-3.9343,-3.9358,-3.9379,-3.9271,-3.8745,-3.8449,-3.8449,-3.8263,-3.8412,-3.8679,-3.8148,-3.7825,-3.7822,-3.6858,-3.6038,-3.5633,-3.5034,-3.4883,-3.5148,-3.5034,-3.5082,-3.5439,-3.5539,-3.5194,-3.458,-3.4347,-3.3759,-3.2839,-3.2202,-3.1856,-3.1742,-3.1698,-3.1698,-3.1698,-3.1698,-3.1727,-3.1798,-3.1883,-3.1968,-3.2038,-3.2094,-3.2079,-3.2092,-3.2048,-3.1866,-3.1656,-3.2254,-3.2823,-3.2916,-3.3789,-3.4712,-3.5199,-3.4968,-3.4983,-3.5199,-3.5629,-3.583,-3.5938,-3.623,-3.6445,-3.6523,-3.6554,-3.6662,-3.6693,-3.677,-3.6908,-3.6938,-3.6998,-3.7043,-3.7164,-3.7284,-3.7389,-3.7464,-3.7336,-3.7133,-3.6421,-3.5695,-3.4928,-3.4222,-3.4,-3.3969,-3.3718,-3.3694,-3.3822,-3.3899,-3.3949,-3.4,-3.405,-3.4075,-3.4101,-3.4101,-3.4101,-3.4176,-3.9553,-4.0226,-4.0226,-4.0001,-3.9646,-3.9538,-3.8929,-3.8176,-3.8486,-3.8446,-3.8265,-3.9113,-3.9647,-3.9788,-3.9802,-3.9423,-3.9067,-3.9201,-3.8803,-3.8429,-3.8907,-3.9343,-3.8965,-3.8819,-3.8745,-3.8671,-3.815,-3.7848,-3.7848,-3.7974,-3.8337,-3.8264,-3.8394,-3.8512,-3.8093,-3.6763,-3.6035,-3.576,-3.4908,-3.4616,-3.4887,-3.4902,-3.5115,-3.5457,-3.5574,-3.5304,-3.4775,-3.4599,-3.4029,-3.2885,-3.2253,-3.1849,-3.1658,-3.154,-3.1524,-3.1524,-3.1496,-3.1524,-3.1553,-3.1698,-3.1756,-3.1769,-3.1855,-3.1824,-3.1552,-3.1566,-3.1466,-3.1161,-3.1901,-3.2721,-3.3577,-3.45,-3.5307,-3.6152,-3.5845,-3.5814,-3.6338,-3.643,-3.6368,-3.6415,-3.6492,-3.6492,-3.6492,-3.6523,-3.6585,-3.6647,-3.66,-3.6693,-3.6816,-3.6862,-3.6892,-3.6983,-3.7134,-3.7225,-3.7301,-3.727,-3.7112,-3.6918,-3.624,-3.5572,-3.4663,-3.4358,-3.3963,-3.3715,-3.3607,-3.372,-3.3822,-3.3873,-3.3949,-3.4,-3.405,-3.4075,-3.4101,-3.4101,-3.4101,-3.9307,-3.9631,-3.9631,-3.9415,-3.8965,-3.856,-3.8225,-3.7935,-3.8044,-3.8062,-3.8088,-3.8749,-3.9141,-3.9086,-3.8791,-3.8426,-3.8399,-3.8804,-3.867,-3.8208,-3.9126,-3.9307,-3.8782,-3.8337,-3.815,-3.8075,-3.7553,-3.7236,-3.7208,-3.7002,-3.7304,-3.8173,-3.7901,-3.7976,-3.8102,-3.7173,-3.6399,-3.5829,-3.4903,-3.4534,-3.4835,-3.4902,-3.5082,-3.5457,-3.5554,-3.5464,-3.5175,-3.479,-3.4206,-3.3351,-3.2676,-3.2287,-3.2153,-3.1765,-3.1496,-3.1496,-3.1496,-3.1496,-3.1511,-3.1539,-3.1539,-3.1438,-3.1482,-3.1379,-3.1175,-3.135,-3.1248,-3.1294,-3.2408,-3.3502,-3.3742,-3.4863,-3.5826,-3.6071,-3.6121,-3.6214,-3.643,-3.6492,-3.6492,-3.6492,-3.6492,-3.6492,-3.6492,-3.6445,-3.6476,-3.6492,-3.6446,-3.6384,-3.6384,-3.6522,-3.6458,-3.6753,-3.6922,-3.7014,-3.7106,-3.709,-3.7104,-3.7145,-3.6751,-3.6353,-3.5429,-3.4663,-3.4078,-3.3562,-3.3508,-3.3591,-3.3668,-3.3761,-3.3848,-3.3949,-3.4,-3.4025,-3.4075,-3.4101,-3.4075,-3.9126,-3.9379,-3.9126,-3.8782,-3.8412,-3.8075,-3.7787,-3.7538,-3.7526,-3.7512,-3.7667,-3.8173,-3.8454,-3.844,-3.8396,-3.8145,-3.7983,-3.8525,-3.8312,-3.7672,-3.8188,-3.8412,-3.8263,-3.781,-3.7519,-3.7462,-3.6904,-3.6753,-3.6797,-3.6472,-3.6882,-3.75,-3.7597,-3.7784,-3.8032,-3.6923,-3.6162,-3.5683,-3.4784,-3.4332,-3.4668,-3.482,-3.51,-3.5392,-3.5489,-3.5489,-3.5429,-3.5115,-3.4487,-3.3604,-3.2901,-3.2497,-3.2437,-3.1854,-3.1511,-3.1496,-3.1496,-3.1496,-3.1467,-3.138,-3.1263,-3.1161,-3.1117,-3.0881,-3.0717,-3.0807,-3.0776,-3.1138,-3.2659,-3.3438,-3.3977,-3.5163,-3.593,-3.6037,-3.6178,-3.6336,-3.6352,-3.646,-3.6492,-3.6492,-3.6492,-3.6492,-3.6476,-3.6261,-3.6107,-3.5984,-3.5691,-3.5629,-3.5598,-3.5796,-3.5949,-3.6117,-3.6364,-3.6484,-3.6669,-3.6746,-3.6779,-3.6867,-3.6829,-3.6528,-3.5922,-3.4984,-3.4367,-3.3841,-3.3594,-3.345,-3.3555,-3.3658,-3.3761,-3.3838,-3.3899,-3.3975,-3.4,-3.4075,-3.4075,-3.8965,-3.9147,-3.8612,-3.8165,-3.7848,-3.7772,-3.7467,-3.7095,-3.706,-3.7049,-3.7147,-3.7583,-3.7793,-3.7835,-3.8185,-3.8285,-3.7805,-3.8331,-3.801,-3.7479,-3.7313,-3.7404,-3.7734,-3.7352,-3.7134,-3.7011,-3.6437,-3.6377,-3.6471,-3.647,-3.6568,-3.6931,-3.737,-3.7733,-3.761,-3.6399,-3.5723,-3.5633,-3.4738,-3.4293,-3.4601,-3.4868,-3.518,-3.5424,-3.5489,-3.5489,-3.5489,-3.5385,-3.4936,-3.3799,-3.308,-3.2841,-3.2647,-3.1989,-3.1556,-3.1409,-3.1409,-3.138,-3.1351,-3.1102,-3.0911,-3.0866,-3.0745,-3.0502,-3.0389,-3.0504,-3.0869,-3.1349,-3.2317,-3.3497,-3.4437,-3.5416,-3.5817,-3.5878,-3.5941,-3.6037,-3.6148,-3.632,-3.646,-3.6492,-3.6492,-3.6492,-3.6245,-3.5907,-3.5476,-3.5368,-3.5106,-3.5044,-3.4982,-3.5073,-3.5174,-3.5198,-3.549,-3.5829,-3.6062,-3.6326,-3.6419,-3.6496,-3.6533,-3.6337,-3.6032,-3.5315,-3.4731,-3.4284,-3.3947,-3.3652,-3.345,-3.3555,-3.3658,-3.3761,-3.3848,-3.3873,-3.3899,-3.4,-3.4025,-3.8612,-3.7991,-3.7839,-3.7572,-3.7211,-3.7159,-3.7134,-3.6978,-3.6978,-3.6978,-3.7021,-3.7147,-3.7203,-3.7217,-3.7453,-3.7288,-3.7324,-3.78,-3.7873,-3.7754,-3.7173,-3.7056,-3.7211,-3.7056,-3.7017,-3.6916,-3.6651,-3.6405,-3.6245,-3.5976,-3.5975,-3.6481,-3.6542,-3.6931,-3.7528,-3.6493,-3.5964,-3.5977,-3.5141,-3.4698,-3.4769,-3.5115,-3.5392,-3.5489,-3.5489,-3.5489,-3.5489,-3.5489,-3.5355,-3.4996,-3.4412,-3.3753,-3.3185,-3.2587,-3.1901,-3.1279,-3.1117,-3.1058,-3.0836,-3.0762,-3.0597,-3.0457,-3.0711,-3.078,-3.0521,-3.108,-3.1621,-3.2272,-3.3245,-3.4157,-3.5135,-3.5452,-3.5636,-3.5668,-3.5718,-3.5752,-3.5847,-3.6085,-3.6211,-3.6305,-3.6337,-3.6307,-3.5799,-3.5553,-3.5198,-3.4828,-3.4582,-3.4474,-3.4426,-3.4363,-3.4342,-3.433,-3.4716,-3.5041,-3.5239,-3.5549,-3.5796,-3.5964,-3.6048,-3.6114,-3.5808,-3.5663,-3.5094,-3.4636,-3.4268,-3.3915,-3.3435,-3.345,-3.3571,-3.3684,-3.3771,-3.3848,-3.3899,-3.3991,-3.3991,-3.8127,-3.7711,-3.7457,-3.7187,-3.7017,-3.6978,-3.6978,-3.6978,-3.6978,-3.6978,-3.6978,-3.6978,-3.6978,-3.7017,-3.725,-3.7303,-3.7056,-3.7187,-3.7356,-3.7226,-3.6954,-3.6889,-3.6968,-3.7109,-3.7226,-3.6972,-3.6551,-3.6283,-3.6066,-3.5747,-3.5633,-3.6041,-3.592,-3.6462,-3.7124,-3.6271,-3.5891,-3.6019,-3.5409,-3.4902,-3.4968,-3.5294,-3.5489,-3.5489,-3.5489,-3.5489,-3.5489,-3.5489,-3.5407,-3.5204,-3.4857,-3.425,-3.3355,-3.2743,-3.1925,-3.1071,-3.1128,-3.0966,-3.0714,-3.0491,-3.0409,-3.0497,-3.0728,-3.0849,-3.0974,-3.15,-3.2111,-3.284,-3.356,-3.431,-3.5419,-3.5554,-3.5504,-3.5489,-3.5539,-3.5509,-3.5444,-3.5623,-3.5911,-3.5946,-3.5795,-3.563,-3.534,-3.4955,-3.4522,-3.3998,-3.3475,-3.338,-3.3347,-3.3314,-3.3447,-3.3578,-3.3994,-3.427,-3.4405,-3.4696,-3.5096,-3.5292,-3.5451,-3.5565,-3.5524,-3.5505,-3.5458,-3.4857,-3.4194,-3.3751,-3.3393,-3.343,-3.3477,-3.3633,-3.372,-3.3822,-3.3873,-3.3873,-3.3873,-3.7672,-3.7749,-3.7211,-3.6978,-3.6978,-3.6978,-3.6978,-3.6978,-3.6978,-3.6978,-3.6978,-3.6978,-3.6978,-3.7095,-3.7429,-3.739,-3.7031,-3.6811,-3.6825,-3.6747,-3.6707,-3.6668,-3.6786,-3.7084,-3.7303,-3.6972,-3.6727,-3.6481,-3.6076,-3.5833,-3.5701,-3.5651,-3.569,-3.6227,-3.6581,-3.6052,-3.5817,-3.6227,-3.5722,-3.52,-3.5096,-3.5359,-3.5472,-3.5359,-3.5344,-3.5294,-3.5228,-3.518,-3.5067,-3.4835,-3.4687,-3.4028,-3.3174,-3.2686,-3.1939,-3.0842,-3.113,-3.0937,-3.0425,-3.0201,-3.0247,-3.0845,-3.0849,-3.1026,-3.1471,-3.1956,-3.2635,-3.3262,-3.3977,-3.4451,-3.535,-3.5504,-3.5472,-3.5392,-3.5392,-3.5213,-3.4953,-3.4996,-3.5043,-3.5368,-3.5131,-3.4909,-3.4485,-3.4039,-3.3619,-3.3213,-3.2721,-3.2425,-3.2453,-3.2527,-3.277,-3.2934,-3.3333,-3.3572,-3.369,-3.3796,-3.4238,-3.4448,-3.4698,-3.4797,-3.4908,-3.4747,-3.4589,-3.451,-3.4004,-3.364,-3.3388,-3.3335,-3.3424,-3.3565,-3.3668,-3.3745,-3.3771,-3.3771,-3.3771,-3.7596,-3.7134,-3.7056,-3.6978,-3.6978,-3.6978,-3.6978,-3.6978,-3.6978,-3.6978,-3.6978,-3.6978,-3.6978,-3.7056,-3.7056,-3.6993,-3.6889,-3.6747,-3.6589,-3.6484,-3.6445,-3.6431,-3.6549,-3.7031,-3.7211,-3.7324,-3.7273,-3.6857,-3.6111,-3.6056,-3.5945,-3.5462,-3.5624,-3.6217,-3.6718,-3.6576,-3.6395,-3.6611,-3.6259,-3.5848,-3.5463,-3.5359,-3.5294,-3.5082,-3.5001,-3.4835,-3.4635,-3.4452,-3.4288,-3.4187,-3.3811,-3.3226,-3.2782,-3.2895,-3.2328,-3.1306,-3.1014,-3.0791,-3.0077,-2.9829,-3.0003,-3.0524,-3.1054,-3.1597,-3.2193,-3.2897,-3.3436,-3.4066,-3.4681,-3.5192,-3.5427,-3.5344,-3.5261,-3.5115,-3.4935,-3.4806,-3.4389,-3.3945,-3.3605,-3.3865,-3.404,-3.413,-3.3593,-3.3211,-3.2959,-3.278,-3.2557,-3.2398,-3.2425,-3.2425,-3.253,-3.2616,-3.2729,-3.2901,-3.3014,-3.3119,-3.3318,-3.3521,-3.3681,-3.3763,-3.3797,-3.3645,-3.3561,-3.3799,-3.3941,-3.3783,-3.3561,-3.3356,-3.3398,-3.3565,-3.3633,-3.3684,-3.3736,-3.3771,-3.3745,-3.725,-3.6978,-3.6978,-3.6978,-3.6978,-3.6978,-3.6978,-3.6978,-3.6978,-3.6978,-3.6978,-3.6978,-3.6978,-3.7095,-3.7366,-3.7366,-3.7109,-3.6668,-3.647,-3.6286,-3.6232,-3.6232,-3.6391,-3.7017,-3.7201,-3.7376,-3.7688,-3.7504,-3.6391,-3.658,-3.6255,-3.578,-3.5922,-3.6612,-3.7133,-3.7164,-3.707,-3.7005,-3.6671,-3.6178,-3.5499,-3.5246,-3.4953,-3.4868,-3.4539,-3.4288,-3.4269,-3.4051,-3.3879,-3.3673,-3.343,-3.3031,-3.2786,-3.2631,-3.2427,-3.1279,-3.0965,-3.0648,-3.0015,-2.9917,-3.0261,-3.0834,-3.1517,-3.2182,-3.2707,-3.3316,-3.3997,-3.452,-3.4706,-3.5037,-3.5004,-3.4806,-3.4539,-3.4404,-3.4356,-3.409,-3.3566,-3.3029,-3.2701,-3.2439,-3.2353,-3.2482,-3.257,-3.2317,-3.2275,-3.2259,-3.229,-3.2342,-3.2398,-3.2342,-3.2315,-3.2262,-3.2305,-3.2444,-3.2582,-3.2691,-3.2788,-3.2908,-3.3069,-3.315,-3.3203,-3.3287,-3.3377,-3.3561,-3.364,-3.3704,-3.3561,-3.3293,-3.3424,-3.3529,-3.3529,-3.3555,-3.3684,-3.3761,-3.3694,-3.6978,-3.6978,-3.6978,-3.6978,-3.6978,-3.6978,-3.6978,-3.6978,-3.6978,-3.6978,-3.6978,-3.6978,-3.6978,-3.7095,-3.7404,-3.7544,-3.739,-3.6668,-3.6325,-3.6126,-3.6032,-3.6032,-3.6536,-3.7092,-3.751,-3.737,-3.7889,-3.7942,-3.7163,-3.6912,-3.6506,-3.6136,-3.6415,-3.6808,-3.7171,-3.7177,-3.7265,-3.707,-3.6786,-3.616,-3.5406,-3.489,-3.4543,-3.4553,-3.3982,-3.3762,-3.3707,-3.3534,-3.3325,-3.315,-3.3023,-3.2917,-3.2646,-3.2596,-3.2142,-3.1344,-3.1103,-3.077,-3.0403,-3.0322,-3.067,-3.1269,-3.1906,-3.243,-3.2884,-3.3318,-3.3942,-3.4505,-3.4558,-3.4428,-3.4394,-3.4104,-3.3899,-3.3811,-3.3768,-3.3536,-3.3044,-3.2532,-3.1933,-3.1574,-3.1044,-3.1061,-3.1346,-3.1857,-3.1905,-3.2101,-3.2148,-3.237,-3.237,-3.2176,-3.2064,-3.1896,-3.1896,-3.2038,-3.2206,-3.2428,-3.2539,-3.2703,-3.2962,-3.315,-3.3203,-3.3256,-3.3345,-3.3419,-3.3403,-3.3451,-3.3324,-3.3293,-3.3398,-3.345,-3.3372,-3.3424,-3.3581,-3.3633,-3.3591,-3.6978,-3.6978,-3.6978,-3.6978,-3.6978,-3.6978,-3.6978,-3.6978,-3.6978,-3.6978,-3.6978,-3.6978,-3.6978,-3.7031,-3.7056,-3.6993,-3.6786,-3.6563,-3.6246,-3.6046,-3.5898,-3.6045,-3.6561,-3.7109,-3.74,-3.7329,-3.789,-3.7914,-3.7402,-3.6951,-3.6652,-3.6429,-3.6111,-3.6191,-3.6858,-3.7013,-3.6741,-3.6654,-3.6494,-3.5884,-3.4896,-3.4576,-3.4138,-3.3742,-3.3409,-3.3185,-3.3009,-3.2832,-3.2632,-3.2547,-3.2408,-3.2314,-3.2241,-3.2277,-3.225,-3.2022,-3.1817,-3.1447,-3.0888,-3.0798,-3.1011,-3.1509,-3.191,-3.2221,-3.2722,-3.3129,-3.3548,-3.3865,-3.3899,-3.3885,-3.3885,-3.3796,-3.3693,-3.3604,-3.3465,-3.3367,-3.3009,-3.2103,-3.1541,-3.1044,-3.0641,-3.0404,-3.047,-3.1087,-3.1596,-3.1809,-3.2035,-3.2203,-3.2231,-3.1923,-3.1866,-3.171,-3.1524,-3.1596,-3.1938,-3.2135,-3.2345,-3.2511,-3.2839,-3.3123,-3.3176,-3.3229,-3.3282,-3.3324,-3.3293,-3.3293,-3.3293,-3.3319,-3.3372,-3.3372,-3.3372,-3.3424,-3.3503,-3.3503,-3.3503,-3.6978,-3.6978,-3.6978,-3.6978,-3.6978,-3.6978,-3.6978,-3.6978,-3.6978,-3.6978,-3.6978,-3.6978,-3.6978,-3.6993,-3.6875,-3.6747,-3.6524,-3.6325,-3.6112,-3.5938,-3.5804,-3.5884,-3.6191,-3.6665,-3.7017,-3.7173,-3.7275,-3.751,-3.7234,-3.6947,-3.6587,-3.6191,-3.623,-3.6443,-3.6665,-3.7042,-3.6885,-3.6453,-3.5819,-3.501,-3.4302,-3.3865,-3.3589,-3.3304,-3.2895,-3.2682,-3.2538,-3.2395,-3.23,-3.2264,-3.2218,-3.2205,-3.2205,-3.2205,-3.2205,-3.2178,-3.2096,-3.1738,-3.1232,-3.124,-3.144,-3.1729,-3.2075,-3.2575,-3.2946,-3.3058,-3.3325,-3.3762,-3.352,-3.3381,-3.3241,-3.3058,-3.2938,-3.2917,-3.3058,-3.2968,-3.2681,-3.1912,-3.1198,-3.0704,-3.0277,-3.023,-3.0161,-3.0533,-3.0999,-3.1117,-3.1335,-3.1581,-3.1552,-3.1365,-3.1394,-3.1523,-3.1307,-3.1205,-3.1625,-3.1966,-3.2206,-3.2428,-3.2839,-3.3069,-3.315,-3.3203,-3.3256,-3.3293,-3.3293,-3.3293,-3.3293,-3.3293,-3.3346,-3.3346,-3.3388,-3.3398,-3.3424,-3.3398,-3.3424,-3.6993,-3.6915,-3.6993,-3.6978,-3.6978,-3.6978,-3.6978,-3.6978,-3.6978,-3.6978,-3.6936,-3.6838,-3.681,-3.6791,-3.6632,-3.6434,-3.6391,-3.6192,-3.5978,-3.5844,-3.5764,-3.5844,-3.6191,-3.6547,-3.6758,-3.6719,-3.6836,-3.6844,-3.6819,-3.6652,-3.623,-3.5965,-3.6151,-3.635,-3.6533,-3.6671,-3.6561,-3.587,-3.4949,-3.42,-3.3659,-3.3255,-3.308,-3.2824,-3.2552,-3.2241,-3.2336,-3.2277,-3.2205,-3.235,-3.2386,-3.2372,-3.2372,-3.2372,-3.2314,-3.2241,-3.216,-3.201,-3.1719,-3.1681,-3.173,-3.1924,-3.216,-3.2555,-3.2832,-3.2881,-3.2881,-3.3255,-3.3009,-3.281,-3.2704,-3.2444,-3.2516,-3.2574,-3.2583,-3.2449,-3.2305,-3.188,-3.1632,-3.1419,-3.0979,-3.0319,-3.0284,-3.027,-3.0375,-3.043,-3.0628,-3.094,-3.0925,-3.0851,-3.0866,-3.0999,-3.0851,-3.0807,-3.1292,-3.1667,-3.1938,-3.2318,-3.2773,-3.3016,-3.3096,-3.3176,-3.3214,-3.324,-3.3266,-3.3293,-3.3293,-3.3293,-3.3293,-3.3335,-3.3335,-3.3335,-3.3319,-3.3335,-3.3388,-3.6889,-3.6747,-3.6915,-3.6978,-3.6978,-3.6978,-3.6978,-3.6978,-3.6978,-3.6978,-3.6883,-3.6515,-3.6497,-3.6523,-3.6292,-3.6122,-3.6351,-3.6206,-3.6032,-3.5938,-3.5884,-3.5991,-3.627,-3.6468,-3.664,-3.664,-3.6561,-3.627,-3.6031,-3.6071,-3.6191,-3.6508,-3.6071,-3.5871,-3.5747,-3.5804,-3.5623,-3.4975,-3.4228,-3.3597,-3.322,-3.2917,-3.2753,-3.2408,-3.2241,-3.2205,-3.2205,-3.2241,-3.2336,-3.2574,-3.2596,-3.2596,-3.2561,-3.2538,-3.2408,-3.2241,-3.2205,-3.2123,-3.2028,-3.2001,-3.2096,-3.2137,-3.2237,-3.2336,-3.2444,-3.235,-3.2336,-3.2467,-3.2444,-3.2408,-3.235,-3.2241,-3.235,-3.2503,-3.2596,-3.2706,-3.2577,-3.2353,-3.2114,-3.2112,-3.1654,-3.0909,-3.0488,-3.0524,-3.0182,-3.0168,-3.0312,-3.0628,-3.0493,-3.0387,-3.0341,-3.0326,-3.0266,-3.0417,-3.097,-3.1379,-3.1809,-3.2234,-3.2664,-3.2908,-3.3085,-3.3123,-3.3176,-3.3214,-3.324,-3.3266,-3.3282,-3.3256,-3.3229,-3.3282,-3.3293,-3.3293,-3.3319,-3.3319,-3.3398,-3.685,-3.6889,-3.6993,-3.6978,-3.6978,-3.6978,-3.6978,-3.6978,-3.6978,-3.6915,-3.6797,-3.6588,-3.6484,-3.6411,-3.6186,-3.6038,-3.6192,-3.5924,-3.5884,-3.5844,-3.579,-3.5871,-3.6071,-3.6111,-3.6085,-3.6125,-3.6071,-3.6031,-3.579,-3.571,-3.579,-3.5911,-3.5831,-3.5478,-3.5247,-3.4899,-3.453,-3.42,-3.3626,-3.3037,-3.261,-3.2516,-3.2408,-3.2241,-3.2205,-3.2205,-3.2241,-3.2408,-3.2574,-3.2668,-3.269,-3.269,-3.2654,-3.2538,-3.2372,-3.2205,-3.2205,-3.2205,-3.2205,-3.2205,-3.2205,-3.2205,-3.2205,-3.2205,-3.2205,-3.2205,-3.2205,-3.2205,-3.2205,-3.2205,-3.23,-3.2264,-3.2314,-3.2538,-3.2704,-3.2824,-3.2799,-3.2577,-3.2498,-3.2434,-3.1977,-3.1316,-3.1007,-3.074,-3.0334,-2.9933,-3.0125,-3.0206,-3.0129,-3.0038,-3.0021,-3.0097,-3.0097,-3.0371,-3.0896,-3.1321,-3.1724,-3.2163,-3.2582,-3.2773,-3.2989,-3.3069,-3.3123,-3.3176,-3.3176,-3.315,-3.3123,-3.315,-3.3176,-3.3229,-3.3282,-3.3293,-3.3319,-3.3346,-3.3398,-3.6811,-3.6836,-3.6875,-3.6954,-3.6978,-3.6978,-3.6978,-3.6978,-3.6915,-3.6811,-3.6575,-3.6436,-3.6332,-3.6229,-3.5905,-3.5868,-3.587,-3.5804,-3.5764,-3.571,-3.571,-3.571,-3.571,-3.575,-3.5804,-3.571,-3.571,-3.571,-3.571,-3.571,-3.575,-3.575,-3.5696,-3.5412,-3.5097,-3.4292,-3.3833,-3.3574,-3.3088,-3.2624,-3.2241,-3.2205,-3.2241,-3.2205,-3.2205,-3.2205,-3.2277,-3.248,-3.2618,-3.2739,-3.281,-3.281,-3.2668,-3.2503,-3.2314,-3.2241,-3.2205,-3.2205,-3.2205,-3.2205,-3.2205,-3.2205,-3.2205,-3.2205,-3.2205,-3.2205,-3.2205,-3.2205,-3.2205,-3.2241,-3.2322,-3.2241,-3.23,-3.2489,-3.2489,-3.2596,-3.2812,-3.2751,-3.2723,-3.268,-3.2182,-3.171,-3.1064,-3.0712,-3.0154,-2.978,-2.9817,-2.9915,-2.9853,-2.9837,-2.9867,-2.996,-3.0113,-3.0477,-3.0881,-3.1394,-3.1881,-3.2148,-3.2523,-3.266,-3.2839,-3.2947,-3.3016,-3.3043,-3.3032,-3.2993,-3.2989,-3.2985,-3.3081,-3.3203,-3.3256,-3.3293,-3.3293,-3.3319,-3.3346,-3.6772,-3.6445,-3.6628,-3.6811,-3.694,-3.6978,-3.6993,-3.6915,-3.6772,-3.6603,-3.6322,-3.5841,-3.5804,-3.5907,-3.5581,-3.5544,-3.5736,-3.5723,-3.571,-3.571,-3.571,-3.571,-3.571,-3.571,-3.571,-3.571,-3.571,-3.571,-3.571,-3.571,-3.571,-3.5655,-3.5615,-3.5507,-3.552,-3.4475,-3.3661,-3.3129,-3.2568,-3.2309,-3.2205,-3.2205,-3.2205,-3.2277,-3.2205,-3.2205,-3.2372,-3.2538,-3.269,-3.2725,-3.2952,-3.2952,-3.2704,-3.2646,-3.2444,-3.2205,-3.2205,-3.2205,-3.2205,-3.2205,-3.2205,-3.2205,-3.2205,-3.2205,-3.2205,-3.2205,-3.2205,-3.2205,-3.2205,-3.2205,-3.2205,-3.2205,-3.23,-3.2258,-3.2266,-3.2187,-3.2374,-3.2472,-3.2381,-3.2372,-3.2336,-3.2075,-3.1274,-3.0572,-2.9982,-2.9645,-2.9617,-2.9602,-2.9634,-2.9775,-2.9898,-3.0083,-3.0296,-3.0732,-3.1161,-3.1611,-3.201,-3.2274,-3.2453,-3.2605,-3.266,-3.2757,-3.2827,-3.2897,-3.2763,-3.2634,-3.2732,-3.283,-3.2682,-3.2573,-3.3145,-3.3293,-3.3293,-3.3293,-3.3319,-3.6377,-3.6405,-3.6484,-3.6563,-3.6575,-3.6575,-3.6615,-3.6589,-3.651,-3.6391,-3.6204,-3.5945,-3.5786,-3.5762,-3.5681,-3.5546,-3.5655,-3.571,-3.571,-3.571,-3.571,-3.571,-3.571,-3.571,-3.571,-3.571,-3.571,-3.571,-3.571,-3.571,-3.571,-3.5669,-3.5357,-3.51,-3.4801,-3.4027,-3.3237,-3.302,-3.2558,-3.2205,-3.2205,-3.2205,-3.2277,-3.2431,-3.2277,-3.2277,-3.2444,-3.2596,-3.2654,-3.2654,-3.2917,-3.2846,-3.2646,-3.2574,-3.235,-3.2205,-3.2205,-3.2205,-3.2205,-3.2205,-3.2205,-3.2205,-3.2205,-3.2205,-3.2205,-3.2205,-3.2205,-3.2205,-3.2205,-3.2241,-3.2286,-3.2241,-3.2218,-3.1861,-3.1754,-3.1563,-3.1571,-3.1632,-3.1629,-3.1755,-3.1766,-3.1443,-3.0811,-3.0459,-2.9926,-2.9645,-2.9617,-2.9602,-2.9602,-2.996,-3.0174,-3.0326,-3.0553,-3.1029,-3.1452,-3.1811,-3.2094,-3.233,-3.2425,-3.2496,-3.2578,-3.2648,-3.2773,-3.2897,-3.256,-3.2269,-3.2201,-3.2065,-3.183,-3.1864,-3.2467,-3.2961,-3.2993,-3.3103,-3.3293,-3.6246,-3.6272,-3.6272,-3.6246,-3.6192,-3.6312,-3.6351,-3.6325,-3.6286,-3.6152,-3.5978,-3.5952,-3.5898,-3.575,-3.571,-3.571,-3.571,-3.571,-3.571,-3.571,-3.571,-3.571,-3.571,-3.571,-3.571,-3.571,-3.571,-3.571,-3.571,-3.571,-3.5574,-3.5316,-3.5004,-3.4597,-3.4149,-3.3468,-3.2993,-3.2748,-3.2327,-3.2205,-3.2182,-3.2182,-3.2155,-3.2264,-3.2241,-3.2169,-3.2408,-3.2574,-3.2632,-3.261,-3.261,-3.2646,-3.2516,-3.235,-3.2205,-3.2205,-3.2205,-3.2205,-3.2205,-3.2205,-3.2205,-3.2205,-3.2205,-3.2205,-3.2205,-3.2205,-3.2205,-3.2205,-3.2205,-3.2228,-3.2286,-3.2205,-3.21,-3.1758,-3.1727,-3.1563,-3.1364,-3.1451,-3.1425,-3.1475,-3.1134,-3.0755,-3.0371,-3.0221,-2.9897,-2.9743,-2.9602,-2.9602,-2.9665,-3.0052,-3.0372,-3.0523,-3.0822,-3.1321,-3.1638,-3.1894,-3.2148,-3.237,-3.2425,-3.2468,-3.2551,-3.2648,-3.2773,-3.2776,-3.2377,-3.1951,-3.1545,-3.1289,-3.1171,-3.1351,-3.1795,-3.224,-3.254,-3.2692,-3.2787,-3.6286,-3.6126,-3.6072,-3.5938,-3.5804,-3.6152,-3.6246,-3.6072,-3.6072,-3.5938,-3.571,-3.5723,-3.5723,-3.571,-3.571,-3.571,-3.571,-3.571,-3.571,-3.571,-3.571,-3.571,-3.571,-3.571,-3.571,-3.571,-3.571,-3.571,-3.571,-3.5547,-3.5249,-3.491,-3.4624,-3.4082,-3.3509,-3.3074,-3.2735,-3.2422,-3.2286,-3.2205,-3.2182,-3.2073,-3.2096,-3.2132,-3.2096,-3.2109,-3.2264,-3.2395,-3.2431,-3.2444,-3.248,-3.2422,-3.2314,-3.2205,-3.2205,-3.2205,-3.2205,-3.2205,-3.2191,-3.2191,-3.2191,-3.2164,-3.211,-3.2164,-3.2205,-3.2205,-3.2205,-3.2205,-3.2205,-3.2205,-3.2205,-3.2191,-3.2151,-3.2096,-3.2135,-3.1907,-3.1633,-3.1541,-3.1439,-3.1236,-3.0722,-3.0319,-2.9954,-2.9743,-2.9827,-2.9729,-2.9634,-2.9727,-2.9882,-3.0235,-3.0523,-3.0643,-3.1014,-3.161,-3.1894,-3.2092,-3.2203,-3.2398,-3.2398,-3.2425,-3.2523,-3.2621,-3.2718,-3.2571,-3.2095,-3.1555,-3.0732,-3.0563,-3.0716,-3.0917,-3.0968,-3.1394,-3.1688,-3.1729,-3.1808,-3.5858,-3.5817,-3.5817,-3.5764,-3.571,-3.5844,-3.5884,-3.5804,-3.5804,-3.5764,-3.571,-3.571,-3.571,-3.571,-3.571,-3.571,-3.571,-3.571,-3.571,-3.571,-3.571,-3.571,-3.571,-3.571,-3.571,-3.571,-3.571,-3.571,-3.5601,-3.5398,-3.5099,-3.4775,-3.4068,-3.3482,-3.3074,-3.268,-3.2436,-3.2273,-3.2218,-3.2205,-3.2169,-3.2109,-3.2169,-3.2228,-3.2096,-3.2132,-3.2336,-3.23,-3.2277,-3.2277,-3.2277,-3.2241,-3.2241,-3.2205,-3.2205,-3.2205,-3.2205,-3.2205,-3.2137,-3.1775,-3.1721,-3.2001,-3.1843,-3.187,-3.2042,-3.2205,-3.2205,-3.2205,-3.2205,-3.2205,-3.2205,-3.2191,-3.2119,-3.2055,-3.202,-3.1764,-3.1425,-3.1107,-3.1021,-3.0563,-3.0094,-3.0024,-2.9645,-2.9631,-2.9701,-2.9645,-2.9665,-2.982,-3.0052,-3.0433,-3.0762,-3.0896,-3.1364,-3.1951,-3.212,-3.2315,-3.2342,-3.2398,-3.237,-3.237,-3.2468,-3.2551,-3.2621,-3.2315,-3.1737,-3.0732,-2.9586,-2.965,-2.9948,-2.973,-2.9754,-3.0346,-3.0788,-3.0819,-3.1002,-3.571,-3.571,-3.571,-3.571,-3.571,-3.571,-3.571,-3.571,-3.571,-3.571,-3.571,-3.571,-3.571,-3.571,-3.571,-3.571,-3.571,-3.571,-3.571,-3.571,-3.571,-3.571,-3.571,-3.571,-3.571,-3.571,-3.571,-3.571,-3.5533,-3.5059,-3.4694,-3.4014,-3.3319,-3.3033,-3.2707,-3.2422,-3.2286,-3.2218,-3.2205,-3.2205,-3.2169,-3.2132,-3.2228,-3.23,-3.2096,-3.2191,-3.2336,-3.2146,-3.2146,-3.2182,-3.2205,-3.2205,-3.2205,-3.2205,-3.2146,-3.2109,-3.2169,-3.1933,-3.1757,-3.1816,-3.1762,-3.1762,-3.1707,-3.196,-3.2055,-3.2205,-3.2205,-3.2205,-3.2205,-3.2205,-3.2205,-3.2178,-3.2046,-3.1913,-3.1673,-3.144,-3.104,-3.062,-3.0241,-2.9796,-2.9659,-2.9659,-2.9602,-2.9602,-2.9634,-2.9665,-2.982,-3.0052,-3.0282,-3.0613,-3.0999,-3.1292,-3.1766,-3.2342,-3.2398,-3.237,-3.2342,-3.2259,-3.2092,-3.2148,-3.2315,-3.229,-3.2167,-3.1789,-3.1285,-3.0254,-2.9264,-2.9069,-2.914,-2.899,-2.9075,-2.9588,-2.9982,-2.9982,-3.0219,-3.571,-3.571,-3.571,-3.571,-3.571,-3.571,-3.5683,-3.5683,-3.5669,-3.5669,-3.571,-3.571,-3.5669,-3.5629,-3.5642,-3.5602,-3.5602,-3.5588,-3.5629,-3.5669,-3.571,-3.571,-3.571,-3.571,-3.571,-3.571,-3.5683,-3.5628,-3.5411,-3.4814,-3.3919,-3.3129,-3.2993,-3.2748,-3.2381,-3.2286,-3.2205,-3.2205,-3.2205,-3.2205,-3.2146,-3.2036,-3.189,-3.189,-3.1817,-3.1793,-3.1904,-3.1977,-3.2013,-3.2146,-3.2205,-3.2205,-3.2205,-3.2205,-3.2109,-3.1992,-3.201,-3.1717,-3.1478,-3.1495,-3.1531,-3.1612,-3.1762,-3.2001,-3.211,-3.2001,-3.1911,-3.2096,-3.211,-3.2123,-3.2137,-3.196,-3.1828,-3.1703,-3.1536,-3.1239,-3.0842,-3.0415,-3.002,-2.9641,-2.954,-2.954,-2.9634,-2.9634,-2.9837,-2.982,-3.0021,-3.0312,-3.0643,-3.0925,-3.119,-3.1581,-3.2007,-3.237,-3.2342,-3.2315,-3.2259,-3.2148,-3.1923,-3.1923,-3.2135,-3.1962,-3.1683,-3.1297,-3.0892,-3.0071,-2.9302,-2.9045,-2.8904,-2.8928,-2.9013,-2.9091,-2.9225,-2.9367,-2.9525,-3.571,-3.571,-3.571,-3.571,-3.571,-3.571,-3.5588,-3.548,-3.548,-3.5548,-3.5669,-3.5683,-3.5588,-3.548,-3.548,-3.544,-3.5331,-3.544,-3.548,-3.5521,-3.5588,-3.5669,-3.571,-3.5669,-3.5696,-3.571,-3.5655,-3.5303,-3.4841,-3.4082,-3.3482,-3.3061,-3.2762,-3.2368,-3.2246,-3.2205,-3.2205,-3.2205,-3.2169,-3.2169,-3.2146,-3.2,-3.189,-3.189,-3.183,-3.183,-3.1927,-3.2036,-3.2109,-3.2205,-3.2205,-3.2205,-3.2205,-3.2169,-3.2169,-3.2078,-3.173,-3.1419,-3.1202,-3.1108,-3.1124,-3.13,-3.1504,-3.1789,-3.1857,-3.1653,-3.1626,-3.1829,-3.1988,-3.2001,-3.1906,-3.1689,-3.157,-3.1478,-3.1344,-3.0962,-3.0583,-3.0191,-2.9796,-2.9652,-2.9505,-2.954,-2.9634,-2.9789,-2.9976,-3.0221,-3.0478,-3.0777,-3.1131,-3.1437,-3.1451,-3.1809,-3.2064,-3.2315,-3.2287,-3.2188,-3.212,-3.1938,-3.1682,-3.1768,-3.191,-3.1967,-3.19,-3.1122,-3.0499,-2.981,-2.9308,-2.8998,-2.8897,-2.892,-2.899,-2.9091,-2.9114,-2.9225,-2.924,-3.571,-3.571,-3.571,-3.571,-3.571,-3.571,-3.5588,-3.544,-3.5399,-3.5399,-3.544,-3.544,-3.5358,-3.5277,-3.5277,-3.5209,-3.51,-3.5195,-3.5236,-3.5318,-3.5346,-3.5521,-3.5588,-3.5548,-3.5332,-3.5291,-3.4885,-3.4453,-3.403,-3.358,-3.3074,-3.2735,-3.2327,-3.2205,-3.2205,-3.2205,-3.2205,-3.2205,-3.2146,-3.2073,-3.2073,-3.1963,-3.1817,-3.183,-3.1757,-3.178,-3.1817,-3.1927,-3.2036,-3.2073,-3.2073,-3.1963,-3.1927,-3.189,-3.1927,-3.1765,-3.1465,-3.1072,-3.0842,-3.0804,-3.0771,-3.1002,-3.1572,-3.2042,-3.2001,-3.1762,-3.1436,-3.1585,-3.1572,-3.1585,-3.1205,-3.0969,-3.0942,-3.0896,-3.0569,-3.0207,-3.0012,-2.9817,-2.9624,-2.9533,-2.9446,-2.9509,-2.9571,-2.9602,-2.9867,-3.0282,-3.0598,-3.1043,-3.1466,-3.1752,-3.1838,-3.1838,-3.2007,-3.2064,-3.1979,-3.1951,-3.1951,-3.171,-3.1452,-3.1423,-3.1495,-3.2018,-3.2114,-3.1195,-3.0428,-2.9834,-2.9375,-2.9005,-2.8865,-2.8897,-2.9006,-2.9114,-2.9091,-2.9068,-2.9122,-3.5452,-3.5493,-3.5425,-3.5439,-3.5466,-3.5494,-3.5346,-3.521,-3.5277,-3.5195,-3.4991,-3.4897,-3.4965,-3.5031,-3.4925,-3.4925,-3.4818,-3.4552,-3.4672,-3.4753,-3.4915,-3.4848,-3.4955,-3.5157,-3.4767,-3.4363,-3.3932,-3.3603,-3.3192,-3.2915,-3.264,-3.2286,-3.2205,-3.2205,-3.2205,-3.2205,-3.2205,-3.2132,-3.2073,-3.1927,-3.1853,-3.1853,-3.1706,-3.1596,-3.1559,-3.1559,-3.1633,-3.1706,-3.1817,-3.1853,-3.1853,-3.178,-3.1743,-3.1743,-3.1596,-3.1472,-3.1119,-3.0718,-3.0462,-3.0742,-3.0723,-3.0961,-3.1721,-3.2096,-3.2042,-3.1843,-3.1517,-3.1192,-3.1178,-3.107,-3.069,-3.031,-3.033,-3.0324,-2.9986,-2.9692,-2.9577,-2.9523,-2.9491,-2.9446,-2.9446,-2.9509,-2.954,-2.9571,-2.9867,-3.0282,-3.0732,-3.1204,-3.1581,-3.1781,-3.1951,-3.1737,-3.1623,-3.1667,-3.1781,-3.161,-3.1581,-3.1495,-3.1263,-3.1087,-3.1117,-3.1665,-3.1708,-3.1105,-3.0361,-2.9847,-2.933,-2.8917,-2.8881,-2.8779,-2.8669,-2.8685,-2.8873,-2.8873,-2.9006,-3.4246,-3.4246,-3.4143,-3.4104,-3.4146,-3.4366,-3.438,-3.4311,-3.4709,-3.4797,-3.4421,-3.4117,-3.4158,-3.4799,-3.4323,-3.411,-3.395,-3.3727,-3.3463,-3.3436,-3.3887,-3.3872,-3.3872,-3.4045,-3.3765,-3.347,-3.3185,-3.2936,-3.2712,-3.2512,-3.2354,-3.2218,-3.2205,-3.2205,-3.2205,-3.2205,-3.2169,-3.2146,-3.2,-3.183,-3.1633,-3.1559,-3.1434,-3.136,-3.1347,-3.1347,-3.1384,-3.1545,-3.1633,-3.1633,-3.1656,-3.1619,-3.1539,-3.1523,-3.1386,-3.1003,-3.0683,-3.0429,-3.0336,-3.0425,-3.0418,-3.0975,-3.1626,-3.2055,-3.2042,-3.2042,-3.1504,-3.0717,-3.0676,-3.0771,-3.0432,-2.9896,-2.9726,-2.9874,-2.9711,-2.9586,-2.9485,-2.9523,-2.9571,-2.9509,-2.9477,-2.9509,-2.954,-2.9696,-2.996,-3.0372,-3.0822,-3.1263,-3.1495,-3.1752,-3.1979,-3.1652,-3.1306,-3.1737,-3.2076,-3.1277,-3.1117,-3.1087,-3.1087,-3.097,-3.1029,-3.1292,-3.1183,-3.0635,-3.0317,-2.9884,-2.9406,-2.8638,-2.8521,-2.8374,-2.8174,-2.8158,-2.8439,-2.8646,-2.8716]}]]